[[{"header":{"parameterUnit":"m.s-1","parameterCategory":1,"la1":30.6,"la2":29.2853,"lo1":-89.7004,"lo2":-87.6739,"dy":0.0162,"dx":0.0183,"nx":112,"ny":82,"refTime":"2023-04-11T18:00:00:Z","depth":0,"parameterNumber":2,"parameterNumberName":"U-component_of_WINDS"},"data":[0.0,0.0,0.0,0.0,0.0,0.0,0.0,0.0,0.0,0.0,0.0,0.0,0.0,0.0,0.0,0.0,0.0,0.0,0.0,0.0,0.0,0.0,0.0,0.0,0.0,0.0,0.0,0.0,0.0,0.0,0.0,0.0,0.0,0.0,0.0,0.0,0.0,0.0,0.0,0.0,0.0,0.0,0.0,0.0,0.0,0.0,0.0,0.0,0.0,0.0,0.0,0.0,0.0,0.0,0.0,0.0,0.0,0.0,0.0,0.0,0.0,0.0,0.0,0.0,0.0,0.0,0.0,0.0,0.0,0.0,0.0,0.0,0.0,0.0,0.0,0.0,0.0,0.0,0.0,0.0,0.0,0.0,0.0,0.0,0.0,0.0,0.0,0.0,0.0,0.0,-4.0946,-4.1082,-4.0985,-4.1257,-4.2136,-4.1383,-4.0893,-4.0907,0.0,0.0,0.0,0.0,0.0,0.0,0.0,0.0,0.0,0.0,0.0,0.0,0.0,0.0,0.0,0.0,0.0,0.0,0.0,0.0,0.0,0.0,0.0,0.0,0.0,0.0,0.0,0.0,0.0,0.0,0.0,0.0,0.0,0.0,0.0,0.0,0.0,0.0,0.0,0.0,0.0,0.0,0.0,0.0,0.0,0.0,0.0,0.0,0.0,0.0,0.0,0.0,0.0,0.0,0.0,0.0,0.0,0.0,0.0,0.0,0.0,0.0,0.0,0.0,0.0,0.0,0.0,0.0,0.0,0.0,0.0,0.0,0.0,0.0,0.0,0.0,0.0,0.0,0.0,0.0,0.0,0.0,0.0,0.0,0.0,0.0,0.0,0.0,0.0,0.0,0.0,0.0,0.0,0.0,0.0,0.0,0.0,0.0,0.0,0.0,0.0,0.0,0.0,0.0,-4.1179,-4.1922,-4.1335,-4.1257,-4.2136,-4.1352,-4.0832,-4.0903,0.0,0.0,0.0,0.0,0.0,0.0,0.0,0.0,0.0,0.0,0.0,0.0,0.0,0.0,0.0,0.0,0.0,0.0,0.0,0.0,0.0,0.0,0.0,0.0,0.0,0.0,0.0,0.0,0.0,0.0,0.0,0.0,0.0,0.0,0.0,0.0,0.0,0.0,0.0,0.0,0.0,0.0,0.0,0.0,0.0,0.0,0.0,0.0,0.0,0.0,0.0,0.0,0.0,0.0,0.0,0.0,0.0,0.0,0.0,0.0,0.0,0.0,0.0,0.0,0.0,0.0,0.0,0.0,0.0,0.0,0.0,0.0,0.0,0.0,0.0,0.0,0.0,0.0,0.0,0.0,0.0,0.0,0.0,0.0,0.0,0.0,0.0,0.0,0.0,0.0,0.0,0.0,0.0,0.0,0.0,0.0,0.0,0.0,0.0,0.0,0.0,0.0,0.0,-4.1291,-4.1888,-4.2601,-4.1978,-4.1815,-4.2614,-4.1467,-4.0745,-4.0837,-4.0823,0.0,0.0,0.0,0.0,0.0,0.0,0.0,0.0,0.0,0.0,0.0,0.0,0.0,0.0,0.0,0.0,0.0,0.0,0.0,0.0,0.0,0.0,0.0,0.0,0.0,0.0,0.0,0.0,0.0,0.0,0.0,0.0,0.0,0.0,0.0,0.0,0.0,0.0,0.0,0.0,0.0,0.0,0.0,0.0,0.0,0.0,0.0,0.0,0.0,0.0,0.0,0.0,0.0,0.0,0.0,0.0,0.0,0.0,0.0,0.0,0.0,0.0,0.0,0.0,0.0,0.0,0.0,0.0,0.0,0.0,0.0,0.0,0.0,0.0,0.0,0.0,0.0,0.0,0.0,0.0,0.0,0.0,0.0,0.0,0.0,0.0,0.0,0.0,0.0,0.0,0.0,0.0,0.0,0.0,0.0,0.0,0.0,0.0,0.0,0.0,0.0,0.0,-4.1577,-4.2387,-4.3021,-4.2595,-4.2492,-4.3052,-4.1723,-4.084,-4.0808,-4.0732,0.0,0.0,0.0,0.0,0.0,0.0,0.0,0.0,0.0,0.0,0.0,0.0,0.0,0.0,0.0,0.0,0.0,0.0,0.0,0.0,0.0,0.0,0.0,0.0,0.0,0.0,0.0,0.0,0.0,0.0,0.0,0.0,0.0,0.0,0.0,0.0,0.0,0.0,0.0,0.0,0.0,0.0,0.0,0.0,0.0,0.0,0.0,0.0,0.0,0.0,0.0,0.0,0.0,0.0,0.0,0.0,0.0,0.0,0.0,0.0,0.0,0.0,0.0,0.0,0.0,0.0,0.0,0.0,0.0,0.0,0.0,0.0,0.0,0.0,0.0,0.0,0.0,0.0,0.0,0.0,0.0,0.0,0.0,0.0,0.0,0.0,0.0,0.0,0.0,0.0,0.0,0.0,0.0,0.0,0.0,0.0,0.0,0.0,0.0,0.0,0.0,0.0,-4.1454,-4.2223,-4.3026,-4.3049,-4.3049,-4.3096,-4.2197,-4.1393,-4.0821,-4.0579,0.0,0.0,0.0,0.0,0.0,0.0,0.0,0.0,0.0,0.0,0.0,0.0,0.0,0.0,0.0,0.0,0.0,0.0,0.0,0.0,0.0,0.0,0.0,0.0,0.0,0.0,0.0,0.0,0.0,0.0,0.0,0.0,0.0,0.0,0.0,0.0,0.0,0.0,0.0,0.0,0.0,0.0,0.0,0.0,0.0,0.0,0.0,0.0,0.0,0.0,0.0,0.0,0.0,0.0,0.0,0.0,0.0,0.0,0.0,0.0,0.0,0.0,0.0,0.0,0.0,0.0,0.0,0.0,0.0,0.0,0.0,0.0,0.0,0.0,0.0,0.0,0.0,0.0,0.0,0.0,0.0,0.0,0.0,0.0,0.0,0.0,0.0,0.0,0.0,0.0,0.0,0.0,0.0,0.0,0.0,0.0,0.0,0.0,0.0,0.0,0.0,0.0,-4.1781,-4.2726,-4.2886,-4.3438,-4.3551,-4.2954,-4.2086,-4.1276,-4.0588,0.0,0.0,0.0,0.0,0.0,0.0,0.0,0.0,0.0,0.0,0.0,0.0,0.0,0.0,0.0,0.0,0.0,0.0,0.0,0.0,0.0,0.0,0.0,0.0,0.0,0.0,0.0,0.0,0.0,0.0,0.0,0.0,0.0,0.0,0.0,0.0,0.0,0.0,0.0,0.0,0.0,0.0,0.0,0.0,0.0,0.0,0.0,0.0,0.0,0.0,0.0,0.0,0.0,0.0,0.0,0.0,0.0,0.0,0.0,0.0,0.0,0.0,0.0,0.0,0.0,0.0,0.0,0.0,0.0,0.0,0.0,0.0,0.0,0.0,0.0,0.0,0.0,0.0,0.0,0.0,0.0,0.0,0.0,0.0,0.0,0.0,0.0,0.0,0.0,0.0,0.0,0.0,0.0,0.0,0.0,0.0,0.0,0.0,0.0,0.0,0.0,0.0,-4.0414,-4.1926,-4.2949,-4.2814,-4.3848,-4.4078,-4.2899,-4.224,-4.1484,-4.0455,0.0,0.0,0.0,0.0,0.0,0.0,0.0,0.0,0.0,0.0,0.0,0.0,0.0,0.0,0.0,0.0,0.0,0.0,0.0,0.0,0.0,0.0,0.0,0.0,0.0,0.0,0.0,0.0,0.0,0.0,0.0,0.0,0.0,0.0,0.0,0.0,0.0,0.0,0.0,0.0,0.0,0.0,0.0,0.0,0.0,0.0,0.0,0.0,0.0,0.0,0.0,0.0,0.0,0.0,0.0,0.0,0.0,0.0,0.0,0.0,0.0,0.0,0.0,0.0,0.0,0.0,0.0,0.0,0.0,0.0,0.0,0.0,0.0,0.0,0.0,0.0,0.0,0.0,0.0,0.0,0.0,0.0,0.0,0.0,0.0,0.0,0.0,0.0,0.0,0.0,0.0,0.0,0.0,0.0,0.0,0.0,0.0,0.0,0.0,0.0,0.0,0.0,-4.0397,-4.1809,-4.2794,-4.2813,-4.4303,-4.4609,-4.2947,-4.2794,-4.2106,0.0,0.0,0.0,0.0,0.0,0.0,0.0,0.0,0.0,0.0,0.0,0.0,0.0,0.0,0.0,0.0,0.0,0.0,0.0,0.0,0.0,0.0,0.0,0.0,0.0,0.0,0.0,0.0,0.0,0.0,0.0,0.0,0.0,0.0,0.0,0.0,0.0,0.0,0.0,0.0,0.0,0.0,0.0,0.0,0.0,0.0,0.0,0.0,0.0,0.0,0.0,0.0,0.0,0.0,0.0,0.0,0.0,0.0,0.0,0.0,0.0,0.0,0.0,0.0,0.0,0.0,0.0,0.0,0.0,0.0,0.0,0.0,0.0,0.0,0.0,0.0,0.0,0.0,0.0,0.0,0.0,0.0,0.0,0.0,0.0,0.0,0.0,0.0,0.0,0.0,0.0,0.0,0.0,0.0,0.0,0.0,0.0,0.0,0.0,0.0,0.0,0.0,0.0,-4.1102,-4.2135,-4.3023,-4.3586,-4.4647,-4.4609,-4.2947,-4.2794,-4.2087,-4.0423,0.0,0.0,0.0,0.0,0.0,0.0,0.0,0.0,0.0,0.0,0.0,0.0,0.0,0.0,0.0,0.0,0.0,0.0,0.0,0.0,0.0,0.0,0.0,0.0,0.0,0.0,0.0,0.0,0.0,0.0,0.0,0.0,0.0,0.0,0.0,0.0,0.0,0.0,0.0,0.0,0.0,0.0,0.0,0.0,0.0,0.0,0.0,0.0,0.0,0.0,0.0,0.0,0.0,0.0,0.0,0.0,0.0,0.0,0.0,0.0,0.0,0.0,0.0,0.0,0.0,0.0,0.0,0.0,0.0,0.0,0.0,0.0,0.0,0.0,0.0,0.0,0.0,0.0,0.0,0.0,0.0,0.0,0.0,0.0,0.0,0.0,0.0,0.0,0.0,0.0,0.0,0.0,0.0,0.0,0.0,0.0,0.0,0.0,0.0,0.0,0.0,0.0,-4.1399,-4.2259,-4.3119,-4.3911,-4.4781,-4.4743,-4.3386,-4.2985,-4.2221,-4.0864,0.0,0.0,0.0,0.0,0.0,0.0,0.0,0.0,0.0,0.0,0.0,0.0,0.0,0.0,0.0,0.0,0.0,0.0,0.0,0.0,0.0,0.0,0.0,0.0,0.0,0.0,0.0,0.0,0.0,0.0,0.0,0.0,0.0,0.0,0.0,0.0,0.0,0.0,0.0,0.0,0.0,0.0,0.0,0.0,0.0,0.0,0.0,0.0,0.0,0.0,0.0,0.0,0.0,0.0,0.0,0.0,0.0,0.0,0.0,0.0,0.0,0.0,0.0,0.0,0.0,0.0,0.0,0.0,0.0,0.0,0.0,0.0,0.0,0.0,0.0,0.0,0.0,0.0,0.0,0.0,0.0,0.0,0.0,0.0,0.0,0.0,0.0,0.0,0.0,0.0,0.0,0.0,0.0,0.0,0.0,0.0,0.0,0.0,0.0,0.0,0.0,0.0,-4.1514,-4.2374,-4.3214,-4.4025,-4.4838,-4.4953,-4.4064,-4.3329,-4.2507,-4.1552,0.0,0.0,0.0,0.0,0.0,0.0,0.0,0.0,0.0,0.0,0.0,0.0,0.0,0.0,0.0,0.0,0.0,0.0,0.0,0.0,0.0,0.0,0.0,0.0,0.0,0.0,0.0,0.0,0.0,0.0,0.0,0.0,0.0,0.0,0.0,0.0,0.0,0.0,0.0,0.0,0.0,0.0,0.0,0.0,0.0,0.0,0.0,0.0,0.0,0.0,0.0,0.0,0.0,0.0,0.0,0.0,0.0,0.0,0.0,0.0,-4.1544,-4.0921,0.0,0.0,0.0,0.0,0.0,0.0,0.0,0.0,0.0,0.0,0.0,0.0,0.0,0.0,0.0,0.0,0.0,0.0,0.0,0.0,0.0,0.0,0.0,0.0,0.0,0.0,0.0,0.0,0.0,0.0,0.0,0.0,0.0,0.0,0.0,0.0,0.0,0.0,0.0,0.0,-4.2412,-4.3252,-4.4064,-4.4934,-4.5182,-4.4953,-4.4064,-4.3834,-4.31,-4.159,-4.1342,0.0,0.0,0.0,0.0,0.0,0.0,0.0,0.0,0.0,0.0,0.0,0.0,0.0,0.0,0.0,0.0,0.0,0.0,0.0,0.0,0.0,0.0,0.0,0.0,0.0,0.0,0.0,0.0,0.0,0.0,0.0,0.0,0.0,0.0,0.0,0.0,0.0,0.0,0.0,0.0,0.0,0.0,0.0,0.0,0.0,0.0,0.0,0.0,0.0,0.0,0.0,0.0,0.0,0.0,0.0,0.0,0.0,0.0,0.0,-4.2561,-4.2141,0.0,0.0,0.0,0.0,0.0,0.0,0.0,0.0,0.0,0.0,0.0,0.0,0.0,0.0,0.0,0.0,0.0,0.0,0.0,0.0,0.0,0.0,0.0,0.0,0.0,0.0,0.0,0.0,0.0,0.0,0.0,0.0,0.0,0.0,0.0,0.0,0.0,0.0,0.0,0.0,-4.3214,-4.3739,-4.4331,-4.5201,-4.5307,-4.5125,-4.4666,-4.4236,-4.3624,-4.2756,-4.1953,0.0,0.0,0.0,0.0,0.0,0.0,0.0,0.0,0.0,0.0,0.0,0.0,0.0,0.0,0.0,0.0,0.0,0.0,0.0,0.0,0.0,0.0,0.0,0.0,0.0,0.0,0.0,0.0,0.0,0.0,0.0,0.0,0.0,0.0,0.0,0.0,0.0,0.0,0.0,0.0,0.0,0.0,0.0,0.0,0.0,0.0,0.0,0.0,0.0,0.0,0.0,0.0,0.0,-4.4075,-4.4207,-4.4354,-4.4393,-4.4437,-4.4479,-4.4399,-4.4054,-4.3445,-4.2714,0.0,0.0,0.0,0.0,0.0,0.0,0.0,0.0,0.0,0.0,0.0,0.0,0.0,0.0,0.0,0.0,0.0,0.0,0.0,0.0,0.0,0.0,-4.1724,-4.1724,-4.2278,-4.2431,-4.1027,0.0,0.0,0.0,0.0,0.0,0.0,0.0,0.0,0.0,0.0,0.0,-4.3815,-4.4255,-4.4713,-4.543,-4.5507,-4.5507,-4.5507,-4.4723,-4.4159,-4.4006,-4.2698,-4.18,0.0,0.0,0.0,0.0,0.0,0.0,0.0,0.0,0.0,0.0,0.0,0.0,0.0,0.0,0.0,0.0,0.0,0.0,0.0,0.0,0.0,0.0,0.0,0.0,0.0,0.0,0.0,0.0,0.0,0.0,0.0,0.0,-4.1093,-4.1091,0.0,0.0,0.0,0.0,0.0,0.0,0.0,0.0,0.0,0.0,0.0,0.0,0.0,-4.3587,-4.3705,-4.3705,-4.4075,-4.4834,-4.5533,-4.6248,-4.6943,-4.7672,-4.7996,-4.7941,-4.7925,0.0,-4.3496,-4.3374,0.0,0.0,0.0,0.0,0.0,0.0,0.0,0.0,0.0,0.0,0.0,0.0,0.0,0.0,0.0,0.0,0.0,0.0,0.0,0.0,0.0,0.0,-4.2622,-4.2622,-4.2717,-4.2737,-4.2526,-4.2469,-4.2469,-4.2469,-4.2469,-4.2469,0.0,0.0,0.0,0.0,0.0,0.0,-4.3968,-4.5267,-4.6214,-4.6328,-4.6347,-4.6347,-4.6347,-4.5602,-4.4819,-4.4045,-4.3796,-4.3023,-4.1552,-4.1399,0.0,0.0,0.0,0.0,0.0,0.0,0.0,0.0,0.0,0.0,0.0,0.0,0.0,0.0,0.0,0.0,0.0,0.0,0.0,0.0,0.0,0.0,0.0,0.0,0.0,0.0,0.0,0.0,0.0,-4.1109,-4.1109,-4.1109,-4.1109,-4.1285,0.0,0.0,0.0,0.0,0.0,0.0,0.0,0.0,0.0,-4.4406,-4.4914,-4.5617,-4.6554,-4.7047,-4.7723,-4.854,-4.8896,-4.9239,-4.9594,-4.996,-5.0082,-5.0061,-5.0068,-4.9202,-4.7686,-4.5705,-4.4909,-4.4812,0.0,0.0,0.0,0.0,-4.3505,-4.3505,-4.3505,-4.3505,-4.3505,-4.3505,0.0,0.0,0.0,0.0,0.0,0.0,0.0,-4.2908,-4.3367,-4.3845,-4.4322,-4.4781,-4.5258,-4.5621,-4.5621,-4.5621,-4.5048,-4.3176,-4.2794,-4.2794,-4.2794,-4.2794,0.0,0.0,0.0,-4.4895,-4.5343,-4.647,-4.7234,-4.7234,-4.7234,-4.7035,-4.6538,-4.6175,-4.5621,-4.4781,-4.4274,-4.3663,-4.2947,-4.1991,-4.1323,0.0,0.0,0.0,0.0,0.0,0.0,0.0,0.0,0.0,0.0,0.0,0.0,0.0,0.0,0.0,0.0,0.0,0.0,0.0,0.0,0.0,0.0,0.0,0.0,0.0,0.0,0.0,0.0,-4.1288,-4.142,-4.142,-4.1636,-4.2025,0.0,0.0,0.0,0.0,0.0,0.0,-4.4348,-4.4367,-4.4953,-4.6259,-4.6924,-4.7975,-4.9432,-5.0076,-5.0703,-5.1294,-5.1507,-5.1603,-5.1618,-5.177,-5.1841,-5.1841,-5.1841,-5.1843,-5.1591,-4.8333,-4.6993,-4.6857,-4.5375,-4.4792,-4.4792,-4.4792,-4.4792,-4.4792,-4.4792,-4.4792,-4.4792,-4.4792,-4.4605,-4.431,-4.3968,0.0,0.0,0.0,0.0,-4.4227,-4.4809,-4.5449,-4.608,-4.6691,-4.733,-4.7788,-4.7788,-4.7788,-4.7062,-4.4571,-4.4074,-4.4074,-4.4074,-4.4074,0.0,-4.4885,-4.5526,-4.6156,-4.6768,-4.7589,-4.8143,-4.8143,-4.8143,-4.7876,-4.7226,-4.6768,-4.6233,-4.564,-4.4819,-4.4236,-4.4006,-4.2794,-4.1934,-4.1514,0.0,0.0,0.0,0.0,0.0,0.0,0.0,0.0,0.0,0.0,0.0,0.0,0.0,0.0,0.0,0.0,0.0,0.0,0.0,0.0,0.0,0.0,0.0,0.0,0.0,0.0,0.0,0.0,0.0,-4.2337,-4.3079,0.0,0.0,0.0,0.0,-4.3705,-4.3705,-4.4426,-4.6085,-4.6163,-4.7295,-4.9772,-4.9889,-5.0328,-5.1177,-5.1213,-5.1252,-5.1308,-5.2062,-5.2431,-5.247,-5.3233,-5.3559,-5.3559,-5.3578,-5.3578,-5.3364,-5.0781,-4.9693,-4.9615,-4.8696,-4.8347,-4.8347,-4.8347,-4.8347,-4.8347,-4.8347,-4.8347,-4.8347,-4.8347,-4.7604,-4.656,-4.5655,-4.5821,0.0,0.0,-4.692,-4.7559,-4.7597,-4.7635,-4.7674,-4.7731,-4.7769,-4.7788,-4.7788,-4.7788,-4.775,-4.7578,-4.754,-4.754,-4.754,0.0,-4.7559,-4.7597,-4.7654,-4.7693,-4.7731,-4.8506,-4.9033,-4.9033,-4.9033,-4.9033,-4.8976,-4.7455,-4.6481,-4.6443,-4.5679,-4.4857,-4.4025,-4.3911,-4.3138,-4.1533,-4.1457,0.0,0.0,0.0,0.0,0.0,0.0,0.0,0.0,0.0,0.0,0.0,0.0,0.0,0.0,0.0,0.0,0.0,0.0,0.0,0.0,0.0,0.0,0.0,0.0,0.0,0.0,0.0,0.0,-4.3177,-4.3509,0.0,-4.5265,-4.5363,-4.5812,-4.6905,-4.751,-4.8096,-4.872,-4.9286,-5.0008,-5.0906,-5.1435,-5.2125,-5.2971,-5.3494,-5.4004,-5.4519,-5.4815,-5.4944,-5.4962,-5.5236,-5.5359,-5.5359,-5.5359,-5.5359,-5.5262,-5.3786,-5.2523,-5.1435,-5.06,-5.027,-5.027,-5.027,-5.027,-5.027,-5.027,-4.9901,-4.9343,-4.8774,-4.8218,-4.7659,-4.7339,-4.728,-4.733,-4.733,-4.7559,-4.7922,-4.8487,-4.864,-4.8774,-4.9289,-4.9404,-4.9404,-4.9404,-4.9404,-4.9404,-4.9404,-4.8533,-4.7788,-4.7788,-4.7788,-4.7788,-4.7788,-4.8277,-4.864,-4.864,-4.9366,-4.9862,-4.9862,-4.9862,-4.9652,-4.9148,-4.8525,-4.7685,-4.6577,-4.6233,-4.5698,-4.4876,-4.4293,-4.372,-4.3119,-4.188,-4.1102,0.0,0.0,0.0,0.0,0.0,0.0,0.0,0.0,0.0,0.0,0.0,0.0,0.0,0.0,0.0,0.0,0.0,0.0,0.0,0.0,0.0,0.0,0.0,0.0,0.0,-4.2908,-4.3606,-4.4465,-4.507,-4.5987,-4.7432,-4.7842,-4.8486,-4.9599,-5.0204,-5.067,-5.0965,-5.1503,-5.2089,-5.2702,-5.3203,-5.3884,-5.4749,-5.4976,-5.5361,-5.5853,-5.5561,-5.5577,-5.5864,-5.5864,-5.6019,-5.6291,-5.6291,-5.6291,-5.6253,-5.5689,-5.4757,-5.3591,-5.2484,-5.2037,-5.2037,-5.2037,-5.2037,-5.2037,-5.2037,-5.1668,-5.1086,-5.0467,-5.0129,-4.9972,-4.9931,-4.9798,-4.9637,-4.9592,-4.9589,-4.9712,-5.021,-5.0352,-5.0486,-5.1028,-5.1142,-5.1142,-5.1142,-5.0932,-5.0741,-5.0741,-4.9614,-4.8629,-4.8629,-4.8629,-4.8629,-4.8629,-4.9137,-4.95,-4.95,-4.9977,-5.0302,-5.0302,-5.0302,-5.0073,-4.9538,-4.9263,-4.8602,-4.7455,-4.6825,-4.6271,-4.5736,-4.4783,-4.4138,-4.3871,-4.2223,-4.1243,-4.0953,0.0,0.0,0.0,0.0,0.0,0.0,0.0,0.0,0.0,0.0,0.0,0.0,0.0,0.0,0.0,0.0,0.0,0.0,0.0,0.0,0.0,0.0,0.0,-4.2517,-4.4009,-4.5402,-4.63,-4.7881,-4.9228,-5.0104,-5.0945,-5.1453,-5.1472,-5.1511,-5.1882,-5.2743,-5.2757,-5.3515,-5.5259,-5.5235,-5.5551,-5.6312,-5.5474,-5.5035,-5.4951,-5.4103,-5.4161,-5.5009,-5.5009,-5.5476,-5.6291,-5.6291,-5.6291,-5.6291,-5.6291,-5.6291,-5.6136,-5.4433,-5.3772,-5.3772,-5.3772,-5.3772,-5.3772,-5.3753,-5.3733,-5.3715,-5.3555,-5.3491,-5.3488,-5.3344,-5.3308,-5.3272,-5.3144,-5.311,-5.3048,-5.2846,-5.2805,-5.2805,-5.2805,-5.2805,-5.2805,-5.2805,-5.2193,-5.1627,-5.1627,-5.0971,-5.0359,-5.0302,-5.0302,-5.0302,-5.0302,-5.0302,0.0,-5.0302,-5.0302,-5.0302,-5.0302,-5.0302,-5.0302,-5.0302,-4.9595,-4.9129,-4.911,-4.7513,-4.6547,-4.6489,-4.5425,-4.4447,-4.3601,-4.2485,-4.1528,-4.0709,0.0,0.0,0.0,0.0,0.0,0.0,0.0,0.0,0.0,0.0,0.0,0.0,0.0,0.0,0.0,0.0,0.0,0.0,0.0,0.0,0.0,-4.3994,-4.5236,-4.5236,-4.6186,-4.743,-4.8874,-5.0028,-5.1023,-5.1902,-5.2195,-5.2605,-5.3249,-5.3873,-5.4322,-5.4578,-5.5174,-5.5448,-5.5298,-5.5235,-5.5005,-5.4593,-5.4359,-5.4174,-5.4064,-5.3852,-5.4202,-5.5009,-5.5009,-5.5476,-5.6291,-5.6291,-5.6291,-5.6291,-5.6291,-5.6291,-5.6253,-5.5767,-5.5592,-5.5592,-5.5592,-5.5592,-5.5495,-5.4854,-5.464,-5.4537,-5.3851,-5.3577,-5.3484,-5.3452,-5.3378,-5.3272,-5.3144,-5.311,-5.3048,-5.2846,-5.2805,-5.2805,-5.2805,-5.2805,-5.2805,-5.2805,-5.2633,-5.2461,-5.2461,-5.227,-5.1735,-5.0512,-5.0302,-5.0302,-5.0302,-5.0302,-5.0302,-5.0302,-5.0302,-5.0302,-5.0302,-5.0302,-5.0302,-5.0302,-5.0092,-4.971,-4.9148,-4.8651,-4.7732,-4.6281,-4.5911,-4.4864,-4.2983,-4.264,-4.1995,0.0,0.0,0.0,0.0,0.0,0.0,0.0,0.0,0.0,0.0,0.0,0.0,0.0,0.0,0.0,0.0,0.0,0.0,0.0,0.0,0.0,0.0,-4.5899,-4.7608,-4.833,-4.8564,-4.9284,-5.0984,-5.196,-5.2839,-5.37,-5.4127,-5.4537,-5.5044,-5.5552,-5.5689,-5.5318,-5.5758,-5.5638,-5.4771,-5.4694,-5.4403,-5.3911,-5.3505,-5.3259,-5.3151,-5.2855,-5.3316,-5.4465,-5.4465,-5.5126,-5.6291,-5.6291,-5.6291,-5.6291,-5.6291,-5.6291,-5.6291,0.0,0.0,0.0,0.0,-5.6291,-5.6233,-5.5728,-5.5534,-5.5456,-5.4951,-5.4737,-5.467,-5.467,-5.4626,-5.4512,-5.4285,-5.4234,-5.4182,-5.3948,-5.3894,-5.3894,-5.3894,-5.3894,-5.3894,-5.3894,-5.3607,-5.3339,-5.3339,-5.3053,0.0,-5.1525,-5.1353,-5.1353,-5.1353,-5.1353,-5.1238,-5.0894,-5.0837,-5.0703,-5.034,-5.0302,-5.0302,-5.0302,-5.0302,0.0,0.0,0.0,-4.8157,-4.6018,-4.5916,0.0,0.0,0.0,-4.2617,-4.1778,-4.1654,0.0,0.0,-4.0018,-3.9999,0.0,0.0,0.0,0.0,0.0,0.0,0.0,0.0,0.0,0.0,0.0,0.0,0.0,0.0,0.0,0.0,-4.7982,-4.9698,-5.1459,-5.1107,-5.1244,-5.2807,-5.3743,-5.4582,-5.5363,-5.6124,-5.6552,-5.6469,-5.645,-5.6079,-5.5201,-5.5101,0.0,0.0,0.0,-5.3697,-5.3591,-5.2777,-5.2377,-5.2387,-5.1688,-5.2212,-5.385,-5.385,-5.4737,-5.6291,-5.6291,-5.6291,-5.6291,-5.6291,-5.6291,-5.6291,-5.6291,-5.6291,-5.6291,-5.6291,-5.6291,-5.6291,-5.6291,0.0,0.0,-5.6291,-5.6291,-5.6291,-5.6291,-5.6291,-5.6232,-5.5919,-5.5808,-5.5739,-5.549,-5.5416,-5.5403,-5.5403,-5.5403,-5.5403,-5.5403,-5.4791,-5.4256,-5.4256,-5.3626,-5.3091,-5.3091,-5.2919,-5.2805,-5.2805,-5.2805,-5.2537,-5.183,-5.1754,-5.1448,-5.0665,-5.0493,0.0,-5.0455,-5.0359,-5.0302,-5.0302,-4.9515,-4.813,-4.6097,-4.5881,-4.5294,-4.4299,-4.385,-4.341,-4.2919,-4.2599,-4.2066,-4.1352,-4.0984,-4.0825,0.0,0.0,0.0,0.0,0.0,0.0,0.0,0.0,0.0,0.0,0.0,0.0,0.0,0.0,0.0,-4.8064,-4.9771,-5.1501,-5.3256,-5.3902,-5.4332,-5.4683,-5.5483,-5.6088,-5.6244,-5.642,-5.6259,-5.5593,-5.5552,-5.5162,-5.4303,-5.424,-5.3801,-5.2908,-5.2857,-5.2489,-5.1731,-5.1546,-5.1769,-5.2407,-5.2232,0.0,-5.4757,-5.4757,-5.532,-5.6291,-5.6291,-5.6291,-5.6291,-5.6291,-5.6291,-5.6291,-5.6291,-5.6291,-5.6291,-5.6291,-5.6291,-5.6291,-5.6291,-5.6291,-5.6291,-5.6291,-5.6291,-5.6291,-5.6291,-5.6291,0.0,-5.6028,-5.5882,-5.575,-5.5596,-5.549,-5.5403,-5.5403,-5.5403,-5.5403,-5.5403,-5.5269,-5.5154,-5.5154,-5.5021,-5.4906,-5.4906,-5.3722,-5.2805,-5.2805,-5.2805,-5.2728,-5.2594,-5.2575,-5.2499,-5.2327,-5.1735,-5.1353,-5.1353,-5.0703,-5.0302,-5.0302,-4.9283,-4.8491,-4.8045,-4.69,-4.6164,-4.5934,-4.4974,-4.4432,-4.4318,-4.3605,-4.3185,-4.3002,-4.1666,-4.1046,0.0,0.0,0.0,0.0,0.0,0.0,0.0,0.0,0.0,0.0,0.0,-4.4574,-4.5441,0.0,-4.9139,-4.998,-5.1892,-5.3608,-5.4472,-5.5312,-5.5858,-5.5858,-5.6228,-5.6502,-5.6502,-5.6145,-5.5725,-5.5339,-5.4908,-5.4264,-5.3405,-5.3346,-5.2925,-5.2021,-5.1964,-5.1928,-5.1853,-5.1822,-5.2222,-5.3048,-5.3048,-5.3747,-5.5009,-5.5009,-5.5476,-5.6291,-5.6291,-5.6291,-5.6291,-5.6291,-5.6291,-5.6291,-5.6291,-5.6291,-5.6291,-5.6291,-5.6291,-5.6291,-5.6291,-5.6291,-5.6291,-5.6291,-5.6291,-5.6291,-5.6291,-5.6291,-5.6252,-5.6052,-5.5952,-5.5855,-5.5643,-5.5547,-5.549,-5.5428,-5.5403,-5.5403,-5.5403,-5.5403,-5.5403,-5.5403,-5.5403,-5.5403,-5.5403,-5.4677,-5.4104,-5.4104,-5.4104,-5.3932,-5.3511,-5.3454,-5.3282,-5.2843,-5.2442,-5.2193,-5.2193,-5.1429,-5.076,-5.034,-4.9775,-4.9195,-4.863,-4.7732,-4.6983,-4.6415,-4.5675,-4.5296,-4.5296,-4.4892,-4.469,-4.4672,-4.383,-4.2972,0.0,0.0,0.0,0.0,0.0,0.0,0.0,-4.2672,-4.3052,-4.3929,-4.5353,-4.6608,-4.7114,-4.9507,-5.1562,-5.2058,-5.3865,-5.5253,-5.5437,-5.6053,-5.6503,-5.6503,-5.6503,-5.6424,-5.6267,-5.5652,-5.515,-5.4812,-5.4147,-5.3444,-5.2743,-5.2704,-5.2457,-5.1892,-5.1822,-5.2094,-5.2732,-5.2683,-5.3086,-5.3947,-5.3947,-5.4407,-5.5242,-5.5242,-5.5631,-5.6291,-5.6291,-5.6291,-5.6291,-5.6291,-5.6291,-5.6291,-5.6291,-5.6291,-5.6291,-5.6291,-5.6291,-5.6291,-5.6291,-5.6291,-5.6291,-5.6291,-5.6291,-5.6291,-5.6291,-5.6291,-5.6278,-5.6102,-5.6036,-5.5952,-5.5729,-5.5654,-5.5607,-5.5465,-5.5434,-5.5434,-5.5403,-5.5403,-5.5403,-5.5403,-5.5403,-5.5403,-5.5403,-5.5403,-5.5403,-5.5403,-5.5403,-5.5154,-5.4448,-5.4352,-5.4085,-5.3378,-5.3148,-5.2977,-5.2805,-5.2212,-5.1467,-5.0608,-5.055,-5.0066,-4.8992,-4.8546,-4.79,-4.6978,-4.6428,-4.614,-4.614,-4.5975,-4.5902,-4.5902,-4.5847,-4.5059,-4.1107,-4.1107,-4.1263,-4.1984,-4.2179,-4.2393,0.0,-4.4042,-4.4868,-4.5731,-4.6672,-4.8054,-5.0398,-5.1143,-5.2136,-5.4409,-5.5018,-5.5475,-5.6246,-5.6445,-5.6497,-5.6497,-5.6504,-5.6209,-5.5428,-5.5252,-5.4582,-5.3096,-5.2899,-5.2802,-5.2704,-5.2704,-5.2974,-5.3608,-5.3619,-5.3594,-5.3571,-5.3559,-5.398,-5.4854,-5.4854,-5.5301,-5.6155,-5.6155,-5.6214,-5.6291,-5.6291,-5.6291,-5.6291,-5.6291,-5.6291,-5.6291,-5.6291,-5.6291,-5.6291,-5.6291,-5.6291,-5.6291,-5.6291,-5.6291,-5.6291,-5.6291,-5.6291,-5.6291,-5.6291,-5.6291,-5.6291,-5.6278,-5.6144,-5.5993,-5.596,-5.5864,-5.5749,-5.5607,-5.5581,-5.5554,-5.5441,-5.5403,-5.5403,-5.5403,-5.5403,-5.5403,-5.5403,-5.5403,-5.5403,-5.5403,-5.5403,-5.5365,-5.5269,-5.525,-5.5231,-5.5116,-5.4428,-5.3645,-5.2862,-5.2709,-5.2327,-5.1513,-5.1436,-5.1054,-5.0152,-4.9495,-4.9114,-4.8974,-4.766,-4.6966,-4.6947,-4.625,-4.5902,-4.5902,-4.5902,-4.5737,-4.1672,-4.1809,-4.2003,-4.2841,-4.3448,-4.4033,-4.491,-4.5784,-4.6654,-4.7534,-4.8406,-4.9495,-5.1057,-5.2161,-5.3378,-5.4934,-5.5628,-5.6077,-5.645,-5.6499,-5.6495,-5.6495,-5.6055,-5.5603,-5.5233,-5.4329,-5.3653,-5.3465,-5.2995,-5.2893,-5.3364,-5.3401,-5.3527,-5.3828,-5.3847,-5.4046,-5.4446,-5.4465,-5.4893,-5.5767,-5.5767,-5.5942,-5.6291,-5.6291,-5.6291,-5.6291,-5.6291,-5.6291,-5.6291,-5.6291,-5.6291,-5.6291,-5.6291,-5.6291,-5.6291,-5.6291,-5.6291,-5.6291,-5.6291,-5.6291,-5.6291,-5.6291,-5.6291,-5.6291,-5.6291,-5.6291,-5.6291,-5.6291,-5.6239,-5.6151,-5.6036,-5.596,-5.5882,-5.5749,-5.5654,-5.5573,-5.5531,-5.546,-5.5403,-5.5403,-5.5403,-5.5403,-5.5403,-5.5403,-5.5403,-5.5403,-5.5403,-5.5403,-5.5403,-5.5403,-5.5403,-5.5403,-5.5078,-5.4505,-5.3626,-5.355,-5.3206,-5.2346,-5.1868,-5.1448,-5.1066,-5.0109,-4.9498,-4.9299,-4.8497,-4.7997,-4.7791,-4.7462,-4.7297,-4.7297,-4.7258,-4.7219,-4.2432,-4.2822,-4.3234,-4.4108,-4.4968,-4.5848,-4.6725,-4.7579,-4.8378,-4.9001,-4.9812,-5.0761,-5.1815,-5.3041,-5.4253,-5.5389,-5.6085,-5.6506,-5.6506,-5.6499,-5.6417,-5.6163,-5.537,-5.4843,-5.4844,-5.3762,-5.3219,-5.36,-5.3288,-5.3413,-5.4222,-5.4258,-5.4321,-5.4479,-5.4493,-5.4777,-5.5359,-5.5359,-5.5689,-5.6291,-5.6291,-5.6291,-5.6291,-5.6291,-5.6291,-5.6291,-5.6291,-5.6291,-5.6291,-5.6291,-5.6291,-5.6291,-5.6291,-5.6291,-5.6291,-5.6291,-5.6291,-5.6291,-5.6291,-5.6291,-5.6291,-5.6291,-5.6291,-5.6291,-5.6291,-5.6291,-5.6291,-5.6291,-5.6291,-5.6278,-5.6117,-5.6067,-5.6036,-5.5891,-5.5789,-5.5696,-5.5618,-5.5531,-5.5447,-5.5403,-5.5403,-5.5403,-5.5403,-5.5403,-5.5403,-5.5403,-5.5403,-5.5403,-5.5403,-5.5403,-5.5403,-5.5403,-5.5403,-5.5135,-5.4505,-5.4467,-5.4085,-5.3206,-5.2614,-5.2066,-5.162,-5.0665,-4.9934,-4.9453,-4.9034,-4.8694,-4.8439,-4.8344,-4.8306,-4.8306,-4.8247,-4.8226,-4.3328,-4.4189,-4.503,-4.5907,-4.678,-4.7657,-4.8514,-4.9352,-4.9937,-4.9956,-5.0657,-5.1787,-5.3502,-5.3853,-5.4461,-5.6176,-5.6478,-5.6506,-5.6506,-5.6499,-5.6183,-5.5344,-5.4465,-5.3938,-5.3938,-5.3945,-5.3626,-5.2804,-5.3502,-5.4311,-5.512,-5.5159,-5.5494,-5.6197,-5.6211,-5.6242,-5.6253,-5.6253,-5.6272,-5.6291,-5.6291,-5.6291,-5.6291,-5.6291,-5.6291,-5.6291,-5.6291,-5.6291,-5.6291,-5.6291,-5.6291,-5.6291,-5.6291,-5.6291,-5.6291,-5.6291,-5.6291,-5.6291,-5.6291,-5.6291,-5.6291,-5.6291,-5.6291,-5.6291,-5.6291,-5.6291,-5.6291,-5.6291,-5.6291,-5.6291,-5.6291,-5.6291,-5.6239,-5.6044,-5.5985,-5.5917,-5.5654,-5.5596,-5.5558,-5.5441,-5.5403,-5.5403,-5.5403,-5.5403,-5.5403,-5.5403,-5.5403,-5.5403,-5.5403,-5.5403,-5.5403,-5.5403,-5.5403,-5.5403,-5.5365,-5.5365,-5.5002,-5.4123,-5.4046,-5.3301,-5.1677,-5.1254,-5.0656,-4.979,-4.9129,-4.8799,-4.8781,-4.8458,-4.8306,-4.8306,-4.8287,-4.8267,-4.4929,-4.5534,-4.6118,-4.7561,-4.8545,-4.9235,-4.9527,-5.0248,-5.0852,-5.0852,-5.1106,-5.1826,-5.358,-5.3907,-5.4469,-5.6225,-5.6,-5.5643,-5.564,-5.513,-5.4676,-5.4363,-5.4071,-5.3895,-5.3893,-5.3408,-5.3437,-5.429,-5.4628,-5.5147,-5.595,-5.5994,-5.6098,-5.6296,-5.6309,-5.6297,-5.6291,-5.6291,-5.6291,-5.6291,-5.6291,-5.6291,-5.6291,-5.6291,-5.6291,-5.6291,-5.6291,-5.6291,-5.6291,-5.6291,-5.6291,-5.6291,-5.6291,-5.6291,-5.6291,-5.6291,-5.6291,-5.6291,-5.6291,-5.6291,-5.6291,-5.6291,-5.6291,-5.6291,-5.6291,-5.6291,-5.6291,-5.6291,-5.6291,-5.6291,-5.6291,-5.6291,-5.6285,-5.6225,-5.6102,-5.5952,-5.5779,-5.5665,-5.5558,-5.5422,-5.5403,-5.5403,-5.5403,-5.5403,-5.5403,-5.5403,-5.5403,-5.5403,-5.5403,-5.5403,-5.5403,-5.5403,-5.5403,-5.5403,-5.5403,-5.5403,-5.5269,-5.4982,-5.4428,-5.3855,-5.3282,-5.2616,-5.1731,-5.0689,-5.0225,-4.961,-4.8799,-4.8458,-4.8306,-4.8306,-4.8306,-4.8287,-4.6281,-4.7119,-4.786,-4.8941,-4.9847,-5.0463,-5.0463,-5.0891,-5.13,-5.13,-5.13,-5.1749,-5.3171,-5.3693,-5.4378,-5.5796,-5.5568,-5.5196,-5.5193,-5.4457,-5.3896,-5.3896,-5.3903,-5.4024,-5.4336,-5.3852,-5.3984,-5.5117,-5.5485,-5.5898,-5.6405,-5.64,-5.6379,-5.6311,-5.6297,-5.6291,-5.6291,-5.6291,-5.6291,-5.6291,-5.6291,-5.6291,-5.6291,-5.6291,-5.6291,-5.6291,-5.6291,-5.6291,-5.6291,-5.6291,-5.6291,-5.6291,-5.6291,-5.6291,-5.6291,-5.6291,-5.6291,-5.6291,-5.6291,-5.6291,-5.6291,-5.6291,-5.6291,-5.6291,-5.6291,-5.6291,-5.6298,-5.6303,-5.6291,-5.6298,-5.6303,-5.6291,-5.6298,-5.6303,-5.6201,-5.6085,-5.5974,-5.5845,-5.5688,-5.5531,-5.5463,-5.5428,-5.5428,-5.5415,-5.539,-5.539,-5.5396,-5.5403,-5.5403,-5.5403,-5.5403,-5.5403,-5.5403,-5.5403,-5.5403,-5.5403,-5.5403,-5.5403,-5.4868,-5.4428,-5.4104,-5.355,-5.2768,-5.1743,-5.1111,-5.0347,-4.9448,-4.8788,-4.842,-4.8306,-4.8306,-4.8306,-4.7375,-4.8834,-5.0095,-5.008,-5.0696,-5.13,-5.13,-5.13,-5.13,-5.13,-5.13,-5.1573,-5.245,-5.328,-5.4134,-5.5054,-5.5131,-5.5082,-5.5128,-5.4382,-5.3835,-5.3835,-5.3907,-5.4297,-5.5115,-5.5232,-5.5262,-5.5278,-5.6028,-5.6503,-5.6502,-5.643,-5.6381,-5.632,-5.6292,-5.6304,-5.6304,-5.6298,-5.6291,-5.6291,-5.6291,-5.6291,-5.6291,-5.6291,-5.6291,-5.6291,-5.6291,-5.6291,-5.6291,-5.6291,-5.6291,-5.6291,-5.6291,-5.6291,-5.6291,-5.6291,-5.6291,-5.6291,-5.6298,-5.6298,-5.6298,-5.6298,-5.6298,-5.6304,-5.6304,-5.6304,-5.6317,-5.6317,-5.6314,-5.6317,-5.6303,-5.6314,-5.6303,-5.6303,-5.6314,-5.6289,-5.6216,-5.6102,-5.5949,-5.575,-5.5596,-5.5504,-5.5504,-5.5456,-5.5408,-5.5408,-5.5415,-5.5403,-5.5403,-5.5403,-5.5403,-5.5403,-5.5403,-5.5403,-5.5403,-5.5403,-5.5403,-5.5403,-5.5403,-5.504,-5.4199,-5.418,-5.376,-5.2881,-5.1787,-5.1021,-5.0607,-4.9432,-4.8678,-4.8325,-4.8306,-4.8306,-4.9028,-4.976,-5.0235,-5.0819,-5.1136,-5.13,-5.13,-5.13,-5.13,-5.13,-5.13,-5.1573,-5.245,-5.2789,-5.3423,-5.495,-5.4111,-5.3496,-5.4131,-5.3475,-5.2921,-5.2921,-5.4075,-5.4959,-5.5173,-5.5782,-5.6168,-5.6179,-5.6361,-5.6508,-5.6503,-5.6445,-5.6381,-5.6372,-5.632,-5.6291,-5.6291,-5.6302,-5.6291,-5.6291,-5.6291,-5.6291,-5.6291,-5.6291,-5.6291,-5.6291,-5.6291,-5.6291,-5.6291,-5.6291,-5.6291,-5.6291,-5.6291,-5.6291,-5.6291,-5.6291,-5.6291,-5.6298,-5.6294,-5.6306,-5.6306,-5.6306,-5.6338,-5.6369,-5.6369,-5.6369,-5.6373,-5.6368,-5.6363,-5.6373,-5.6368,-5.6359,-5.6373,-5.6368,-5.6372,-5.6334,-5.6222,-5.6181,-5.6049,-5.5758,-5.5596,-5.5504,-5.5504,-5.5492,-5.548,-5.548,-5.5468,-5.5458,-5.5416,-5.5403,-5.5403,-5.5403,-5.5403,-5.5403,-5.5403,-5.5403,-5.5403,-5.5403,-5.5403,-5.5307,-5.5078,-5.5078,-5.4658,-5.3798,-5.3232,-5.231,-5.0974,-5.016,-4.9394,-4.8676,-4.842,-4.8306,-4.9739,-5.0374,-5.0771,-5.1186,-5.1308,-5.13,-5.13,-5.13,-5.1183,-5.0813,-5.0735,-5.0872,-5.1378,-5.1793,-5.262,-5.4359,-5.3506,-5.2932,-5.3774,-5.3155,-5.2742,-5.3132,-5.4375,-5.5353,-5.5723,-5.621,-5.6507,-5.6507,-5.6504,-5.6491,-5.6507,-5.6459,-5.6445,-5.6439,-5.6377,-5.6342,-5.6342,-5.6308,-5.6314,-5.6348,-5.6308,-5.6321,-5.6334,-5.63,-5.6314,-5.6342,-5.6342,-5.6342,-5.6342,-5.6342,-5.6342,-5.6342,-5.6342,-5.6342,-5.6342,-5.6342,-5.6342,-5.6342,-5.6334,-5.6359,-5.6372,-5.6354,-5.6368,-5.6409,-5.6409,-5.6409,-5.6414,-5.6449,-5.6422,-5.6414,-5.6449,-5.6422,-5.6414,-5.643,-5.6434,-5.643,-5.6394,-5.6315,-5.6141,-5.5849,-5.5721,-5.5667,-5.5607,-5.5562,-5.5539,-5.5539,-5.5516,-5.5499,-5.5446,-5.5428,-5.539,-5.5403,-5.5403,-5.5403,-5.5403,-5.5403,-5.5403,-5.5403,-5.5403,-5.5403,-5.5403,-5.5403,-5.5174,-5.4677,-5.4114,-5.3275,-5.22,-5.1092,-5.0223,-4.9575,-4.8842,-4.8532,-4.9995,-5.0829,-5.1362,-5.1308,-5.13,-5.13,-5.13,-5.1203,-5.0911,-5.0151,-4.9917,-4.9839,-4.9839,-5.0601,-5.1734,-5.3303,-5.2979,-5.2804,-5.3615,-5.3073,-5.2918,-5.379,-5.4667,-5.5548,-5.6429,-5.6507,-5.6507,-5.6511,-5.6503,-5.6494,-5.65,-5.6504,-5.6503,-5.6502,-5.6437,-5.6415,-5.6391,-5.6344,-5.6344,-5.6391,-5.6344,-5.633,-5.6397,-5.6331,-5.6338,-5.6395,-5.6395,-5.6395,-5.6395,-5.6406,-5.6402,-5.6402,-5.6394,-5.6409,-5.6409,-5.6409,-5.6409,-5.6409,-5.6414,-5.6457,-5.6498,-5.6426,-5.6422,-5.6426,-5.6426,-5.6426,-5.6434,-5.6501,-5.6468,-5.6434,-5.6501,-5.6468,-5.6434,-5.6501,-5.6511,-5.6536,-5.6582,-5.6443,-5.6237,-5.5998,-5.5921,-5.5863,-5.5748,-5.5662,-5.5607,-5.5607,-5.5562,-5.5527,-5.5516,-5.5456,-5.5415,-5.5409,-5.5416,-5.5396,-5.5396,-5.5403,-5.5403,-5.5403,-5.5403,-5.5403,-5.5403,-5.5403,-5.5403,-5.5403,-5.4658,-5.4078,-5.3675,-5.2158,-5.1225,-5.0789,-4.961,-4.9033,-5.0734,-5.1249,-5.131,-5.1304,-5.13,-5.13,-5.13,-5.0735,-5.019,-5.0034,-4.9469,-4.9001,-4.9001,-4.9736,-5.063,-5.1604,-5.1628,-5.184,-5.2692,-5.2703,-5.2918,-5.379,-5.4667,-5.5548,-5.6429,-5.6507,-5.6492,-5.6508,-5.6496,-5.6503,-5.6498,-5.6489,-5.6504,-5.6504,-5.6484,-5.6458,-5.6391,-5.6391,-5.6397,-5.6403,-5.6389,-5.6391,-5.6409,-5.6383,-5.6383,-5.6406,-5.6406,-5.6406,-5.6405,-5.6394,-5.6397,-5.6394,-5.641,-5.6409,-5.6409,-5.6409,-5.6409,-5.6414,-5.6464,-5.6498,-5.6501,-5.6494,-5.6514,-5.6572,-5.6572,-5.6572,-5.6575,-5.6577,-5.6577,-5.6575,-5.6577,-5.6577,-5.6575,-5.6577,-5.658,-5.658,-5.6604,-5.6443,-5.6279,-5.6247,-5.6044,-5.5898,-5.5872,-5.5759,-5.5673,-5.5673,-5.5662,-5.566,-5.5585,-5.5527,-5.548,-5.5488,-5.5439,-5.5402,-5.5402,-5.539,-5.5403,-5.5403,-5.5403,-5.5403,-5.5403,-5.5403,-5.5403,-5.5403,-5.525,-5.4785,-5.4021,-5.3432,-5.2779,-5.1987,-5.0823,-5.029,-5.0932,-5.1388,-5.1336,-5.1308,-5.13,-5.13,-5.13,-5.0638,-4.9878,-4.9469,-4.8709,-4.8125,-4.8125,-4.8833,-4.9842,-5.1094,-5.131,-5.1598,-5.2477,-5.2606,-5.2762,-5.3171,-5.4394,-5.5353,-5.5782,-5.6234,-5.6496,-5.6492,-5.6503,-5.6494,-5.6501,-5.65,-5.6526,-5.6553,-5.6522,-5.6504,-5.6504,-5.643,-5.6432,-5.6503,-5.6438,-5.6419,-5.6444,-5.6425,-5.6425,-5.6445,-5.6445,-5.6445,-5.6445,-5.6443,-5.6456,-5.6445,-5.6448,-5.6469,-5.6491,-5.6455,-5.647,-5.6508,-5.6542,-5.6548,-5.6548,-5.6548,-5.6575,-5.6606,-5.6606,-5.6606,-5.6606,-5.6606,-5.6606,-5.6606,-5.6606,-5.6606,-5.6606,-5.6606,-5.6606,-5.6606,-5.6606,-5.6528,-5.6439,-5.632,-5.6211,-5.6057,-5.5921,-5.5855,-5.5779,-5.5705,-5.5703,-5.5692,-5.5671,-5.5618,-5.5573,-5.5504,-5.5468,-5.5456,-5.5456,-5.5415,-5.5396,-5.5396,-5.5396,-5.5403,-5.5403,-5.5403,-5.5403,-5.5403,-5.5403,-5.5193,-5.4791,-5.4147,-5.3655,-5.3223,-5.2039,-5.1477,-5.07,-5.1258,-5.1385,-5.1328,-5.13,-5.1242,-5.1067,-5.0365,-4.9508,-4.869,-4.7832,-4.7209,-4.7209,-4.8083,-4.9226,-5.0548,-5.1067,-5.1547,-5.222,-5.2314,-5.2391,-5.2586,-5.3966,-5.4998,-5.5173,-5.5996,-5.6496,-5.65,-5.6501,-5.6514,-5.6514,-5.6525,-5.6555,-5.6604,-5.6554,-5.6555,-5.6606,-5.6504,-5.6484,-5.658,-5.6464,-5.6444,-5.6508,-5.6453,-5.6454,-5.6501,-5.6501,-5.6501,-5.6501,-5.6506,-5.6497,-5.6503,-5.6498,-5.6523,-5.6568,-5.6521,-5.6537,-5.6577,-5.6577,-5.6593,-5.6606,-5.6606,-5.6606,-5.6606,-5.6606,-5.6606,-5.6606,-5.6606,-5.6606,-5.6606,-5.6606,-5.6606,-5.6606,-5.6606,-5.6606,-5.6606,-5.6606,-5.6606,-5.6555,-5.6386,-5.6324,-5.6222,-5.6027,-5.5938,-5.5863,-5.5758,-5.5716,-5.5703,-5.5703,-5.5703,-5.5651,-5.5551,-5.5527,-5.5527,-5.5527,-5.5468,-5.542,-5.5408,-5.5396,-5.5396,-5.5403,-5.5403,-5.5403,-5.5403,-5.5403,-5.5403,-5.5403,-5.4715,-5.4371,-5.4352,-5.3215,-5.2702,-4.9959,-5.0809,-5.1385,-5.1328,-5.13,-5.1086,-5.0307,-4.9488,-4.8651,-4.7793,-4.6936,-4.6316,-4.6316,-4.7684,-4.8853,-4.9001,-5.0311,-5.1328,-5.1417,-5.1417,-5.171,-5.2508,-5.3444,-5.4336,-5.5115,-5.5996,-5.6504,-5.6498,-5.6567,-5.6582,-5.6582,-5.6584,-5.6584,-5.6606,-5.6591,-5.6591,-5.6606,-5.6595,-5.6565,-5.6508,-5.6497,-5.6485,-5.65,-5.6488,-5.6488,-5.6504,-5.6504,-5.6504,-5.6508,-5.6497,-5.6497,-5.6502,-5.6508,-5.6497,-5.6518,-5.6498,-5.6503,-5.65,-5.65,-5.6549,-5.6606,-5.6606,-5.6606,-5.6606,-5.6606,-5.6606,-5.6606,-5.6606,-5.6606,-5.6606,-5.6606,-5.6606,-5.6606,-5.6606,-5.6606,-5.6606,-5.6606,-5.6606,-5.6584,-5.658,-5.642,-5.6284,-5.6266,-5.6057,-5.5907,-5.5889,-5.5769,-5.5703,-5.5703,-5.5703,-5.5703,-5.5673,-5.5618,-5.5585,-5.5585,-5.5527,-5.5468,-5.5408,-5.5395,-5.5409,-5.5403,-5.5403,-5.5403,-5.5403,-5.5403,-5.5403,-5.5403,-5.5326,-5.5288,-5.5269,-5.4346,-5.3932,-4.9722,-5.0355,-5.0729,-5.1191,-5.0911,-5.0424,-5.0073,-4.8962,-4.791,-4.756,-4.6803,-4.6199,-4.6199,-4.7189,-4.8183,-4.8709,-4.9761,-5.0696,-5.1222,-5.13,-5.1437,-5.1787,-5.3054,-5.4043,-5.4375,-5.5677,-5.6496,-5.6501,-5.6523,-5.6536,-5.6536,-5.6582,-5.6606,-5.6606,-5.6606,-5.6606,-5.6606,-5.6558,-5.6531,-5.6497,-5.6498,-5.6496,-5.6504,-5.6492,-5.6507,-5.6507,-5.6507,-5.6507,-5.6507,-5.6492,-5.6501,-5.6506,-5.65,-5.6506,-5.6494,-5.6499,-5.6508,-5.6502,-5.6502,-5.6523,-5.6532,-5.6532,-5.6563,-5.6606,-5.6606,-5.6606,-5.6606,-5.6606,-5.6606,-5.6606,-5.6606,-5.6606,-5.6606,-5.6606,-5.6606,-5.6606,-5.6606,-5.6606,-5.6606,-5.6606,-5.6531,-5.6443,-5.632,-5.6141,-5.599,-5.5904,-5.5789,-5.5703,-5.5703,-5.5703,-5.5703,-5.5703,-5.5682,-5.5651,-5.5651,-5.5596,-5.5551,-5.5527,-5.548,-5.5432,-5.5409,-5.5396,-5.5403,-5.5403,-5.5403,-5.5403,-5.5403,-5.5403,-5.5403,-5.5403,-5.504,-5.4887,-4.8934,-4.9529,-4.9848,-5.0431,-5.0092,-4.9586,-4.9313,-4.8358,-4.7423,-4.717,-4.6628,-4.6199,-4.6199,-4.6917,-4.7793,-4.8651,-4.9488,-5.0385,-5.1534,-5.1456,-5.1398,-5.1651,-5.2995,-5.3907,-5.3907,-5.5486,-5.6503,-5.6501,-5.6497,-5.6509,-5.6533,-5.6558,-5.6582,-5.6606,-5.6606,-5.6606,-5.6606,-5.6558,-5.6528,-5.65,-5.6494,-5.6496,-5.6504,-5.6492,-5.6507,-5.6507,-5.6507,-5.6507,-5.6507,-5.6507,-5.6492,-5.6504,-5.6504,-5.6498,-5.6508,-5.65,-5.6497,-5.6506,-5.6506,-5.6498,-5.6504,-5.6504,-5.6521,-5.657,-5.6563,-5.6573,-5.6606,-5.6606,-5.6606,-5.6606,-5.6606,-5.6606,-5.6606,-5.6606,-5.6606,-5.6606,-5.6606,-5.6606,-5.6606,-5.6606,-5.6606,-5.6555,-5.6413,-5.6252,-5.611,-5.5975,-5.5855,-5.5738,-5.5714,-5.5703,-5.5703,-5.5703,-5.5703,-5.5703,-5.5703,-5.5671,-5.5618,-5.5596,-5.5551,-5.5504,-5.5432,-5.5432,-5.5415,-5.5409,-5.5409,-5.5396,-5.5403,-5.5403,-5.5403,-5.5403,-5.5403,-5.5403,-4.7304,-4.8164,-4.8811,-4.8817,-4.8826,-4.8592,-4.7715,-4.7501,-4.7267,-4.6394,-4.6219,-4.6199,-4.6199,-4.6917,-4.7793,-4.8651,-4.9488,-5.0618,-5.2333,-5.1846,-5.1612,-5.2489,-5.3366,-5.3907,-5.3907,-5.5486,-5.6503,-5.6501,-5.6497,-5.6533,-5.6604,-5.6533,-5.6533,-5.6604,-5.6606,-5.6606,-5.6606,-5.6606,-5.6572,-5.6501,-5.6501,-5.6503,-5.6507,-5.6507,-5.6507,-5.6507,-5.6507,-5.6507,-5.6507,-5.6507,-5.6507,-5.6507,-5.6507,-5.6507,-5.6507,-5.6507,-5.6507,-5.6509,-5.6509,-5.6493,-5.6495,-5.6495,-5.6495,-5.6498,-5.6503,-5.6549,-5.6606,-5.6606,-5.6606,-5.6606,-5.6606,-5.6606,-5.6606,-5.6606,-5.6606,-5.6606,-5.6606,-5.6606,-5.6606,-5.6606,-5.6606,-5.6606,-5.6604,-5.6439,-5.6257,-5.6116,-5.5982,-5.5844,-5.5716,-5.5703,-5.5703,-5.5703,-5.5703,-5.5703,-5.5703,-5.5703,-5.5662,-5.5596,-5.5596,-5.5562,-5.5504,-5.5504,-5.5468,-5.5408,-5.5395,-5.5409,-5.5403,-5.5403,-5.5403,-5.5403,-5.5403,-5.5403,-4.7275,-4.7701,-4.8041,-4.8654,-4.8358,-4.7832,-4.756,-4.7033,-4.653,-4.6258,-4.6199,-4.6199,-4.6199,-4.6433,-4.7092,-4.8553,-4.9001,-4.9976,-5.2275,-5.1846,-5.1612,-5.2508,-5.3366,-5.413,-5.473,-5.5837,-5.6508,-5.6501,-5.6508,-5.6517,-5.6533,-5.6558,-5.6558,-5.6533,-5.6523,-5.6523,-5.6533,-5.6533,-5.6521,-5.6501,-5.65,-5.65,-5.6507,-5.6507,-5.6507,-5.6507,-5.6507,-5.6507,-5.6507,-5.6507,-5.6507,-5.6507,-5.6507,-5.6507,-5.6507,-5.6507,-5.65,-5.6496,-5.6496,-5.6491,-5.6506,-5.6506,-5.6502,-5.6496,-5.65,-5.6503,-5.6532,-5.6593,-5.6606,-5.6606,-5.6606,-5.6606,-5.6606,-5.6606,-5.6606,-5.6606,-5.6606,-5.6606,-5.6606,-5.6606,-5.6606,-5.6606,-5.6606,-5.642,-5.6257,-5.6116,-5.5982,-5.5844,-5.5716,-5.5703,-5.5703,-5.5703,-5.5703,-5.5703,-5.5703,-5.5703,-5.5703,-5.5662,-5.5682,-5.5629,-5.5573,-5.5562,-5.5516,-5.5408,-5.5408,-5.5409,-5.5403,-5.5403,-5.5403,-5.5403,-5.5403,-5.5403,-4.6852,-4.7008,-4.7141,-4.768,-4.7404,-4.7014,-4.7014,-4.6589,-4.6199,-4.6199,-4.6199,-4.6199,-4.6199,-4.6199,-4.6764,-4.8514,-4.8806,-4.98,-5.2684,-5.206,-5.1612,-5.2508,-5.3366,-5.4247,-5.5116,-5.5993,-5.6508,-5.6491,-5.6192,-5.601,-5.6021,-5.5731,-5.5552,-5.5525,-5.6163,-5.6494,-5.6497,-5.6498,-5.6507,-5.6491,-5.6508,-5.6492,-5.6507,-5.6507,-5.6507,-5.6507,-5.6507,-5.6507,0.0,-5.6507,-5.6507,-5.6507,-5.6507,-5.6507,-5.6507,-5.6507,-5.6507,-5.6507,-5.6507,-5.6492,-5.6501,-5.6501,-5.6494,-5.6502,-5.6502,-5.6497,-5.6504,-5.655,-5.6564,-5.6561,-5.6589,-5.6606,-5.6606,-5.6606,-5.6606,-5.6606,-5.6606,-5.6606,-5.6606,-5.6606,-5.6606,-5.6606,-5.6606,-5.65,-5.6367,-5.6211,-5.6057,-5.593,-5.5798,-5.5737,-5.5703,-5.5703,-5.5703,-5.5703,-5.5703,-5.5703,-5.5703,-5.5703,-5.5703,-5.5673,-5.5629,-5.5629,-5.5573,-5.5444,-5.5444,-5.5434,-5.5403,-5.5403,-5.5403,-5.5403,-5.5403,-5.5403,0.0,-4.619,-4.62,-4.6203,-4.6199,-4.6199,-4.6199,-4.6199,0.0,-4.6199,-4.6199,-4.6199,-4.6199,-4.6258,-4.6842,-4.8534,-4.8849,-5.0034,-5.3346,-5.2411,-5.1671,-5.2411,-5.3288,-5.4126,-5.4944,-5.5802,-5.6317,-5.632,-5.5574,-5.5104,-5.5104,-5.4348,-5.3891,-5.3891,-5.5463,-5.6341,-5.6404,-5.6462,-5.6491,-5.6492,-5.6492,-5.6504,-5.6507,-5.6507,-5.6507,-5.6507,-5.6507,-5.6507,-5.6507,-5.6507,-5.6507,-5.6507,-5.6507,-5.6507,-5.6507,-5.6507,-5.6507,-5.6507,-5.6507,-5.6507,-5.6507,-5.6507,-5.6503,-5.6503,-5.6503,-5.6493,-5.6498,-5.6503,-5.6502,-5.6518,-5.6575,-5.6606,-5.6606,-5.6606,-5.6606,-5.6606,-5.6606,-5.6606,-5.6606,-5.6606,-5.6606,-5.6606,-5.6606,-5.6606,-5.6531,-5.6324,-5.6186,-5.6057,-5.5913,-5.5789,-5.5705,-5.5714,-5.5703,-5.5703,-5.5703,-5.5703,-5.5703,-5.5703,-5.5703,-5.5703,-5.5703,-5.5703,-5.5629,-5.5516,-5.5504,-5.5483,-5.5403,-5.5403,-5.5403,-5.5403,-5.5403,-5.5403,-4.6199,0.0,-4.6203,-4.6199,-4.6199,-4.6199,0.0,-4.6199,-4.6199,-4.6199,-4.6199,-4.6199,-4.6199,-4.6745,-4.754,-4.8631,-4.9363,-5.0516,-5.2606,-5.2547,-5.2123,-5.1654,-5.236,-5.2988,-5.3192,-5.4004,-5.4515,-5.4509,-5.4323,-5.4209,-5.4209,-5.4011,-5.3904,-5.3891,-5.4304,-5.483,-5.5505,-5.6176,-5.6504,-5.6492,-5.65,-5.6492,-5.6507,-5.6507,-5.6507,-5.6507,-5.6507,-5.6507,-5.6507,-5.6507,-5.6507,-5.6507,-5.6507,-5.6507,-5.6507,-5.6507,-5.6507,-5.6507,-5.6507,-5.6507,-5.6507,-5.6507,-5.6496,-5.6508,-5.6508,-5.6494,-5.6498,-5.6503,-5.6502,-5.6518,-5.6575,-5.6606,-5.6606,-5.6606,-5.6606,-5.6606,-5.6606,-5.6606,-5.6606,-5.6606,-5.6606,-5.6606,-5.6606,-5.6606,-5.6531,-5.6324,-5.627,-5.6164,-5.593,-5.5872,-5.5808,-5.5705,-5.5703,-5.5703,-5.5703,-5.5703,-5.5703,-5.5703,-5.5703,-5.5703,-5.5703,-5.5703,-5.5651,-5.5573,-5.5527,-5.5468,-5.5402,-5.5402,-5.5396,-5.5403,-5.5403,-5.5403,-4.6199,-4.6199,-4.6199,-4.6199,-4.6199,-4.6199,-4.6199,-4.6199,-4.6199,-4.6199,-4.6199,-4.6316,-4.6725,-4.717,-4.791,-4.9157,-4.9776,-5.0566,-5.1872,-5.2379,-5.2281,-5.1411,-5.2063,-5.2606,-5.2597,-5.3396,-5.3907,-5.3897,-5.3556,-5.3345,-5.3306,-5.2929,-5.2708,-5.2714,-5.3097,-5.3908,-5.5194,-5.5669,-5.6102,-5.65,-5.6492,-5.6507,-5.6507,-5.6507,-5.6507,-5.6507,-5.6507,-5.6507,-5.6507,-5.6507,-5.6507,-5.6507,-5.6507,-5.6507,-5.6507,-5.6507,-5.6507,-5.6507,-5.6507,-5.6507,-5.6507,-5.6507,-5.6507,-5.6507,-5.6507,-5.6494,-5.6504,-5.6492,-5.6497,-5.6501,-5.6535,-5.6548,-5.6564,-5.6589,-5.6606,-5.6606,-5.6606,-5.6606,-5.6606,-5.6606,-5.6606,-5.6606,-5.6606,-5.6606,-5.6558,-5.6449,-5.6356,-5.6252,-5.6097,-5.5975,-5.5872,-5.5808,-5.5747,-5.5703,-5.5703,-5.5703,-5.5703,-5.5703,-5.5703,-5.5703,-5.5703,-5.5703,-5.5682,-5.5596,-5.5539,-5.548,-5.5444,-5.5444,-5.5451,-5.5453,-5.5396,-5.5403,-4.6199,-4.6199,-4.6199,-4.6199,-4.6199,-4.6199,-4.6199,-4.6199,-4.6199,-4.6199,-4.6316,-4.6628,-4.7365,-4.7715,-4.8358,-4.9761,-5.0166,-5.0537,-5.1297,-5.1999,-5.2129,-5.1398,-5.196,-5.2421,-5.243,-5.3084,-5.352,-5.3517,-5.289,-5.2467,-5.2419,-5.1704,-5.1307,-5.1307,-5.201,-5.3171,-5.4784,-5.494,-5.545,-5.6292,-5.6292,-5.637,-5.6507,-5.6507,-5.6507,-5.6507,-5.6507,-5.6507,-5.6507,-5.6507,-5.6507,-5.6507,-5.6507,-5.6507,-5.6507,-5.6507,-5.6507,-5.6507,-5.6507,-5.6507,-5.6507,-5.6507,-5.6507,-5.6507,-5.6507,-5.6507,-5.65,-5.6504,-5.6503,-5.6504,-5.6503,-5.6503,-5.6518,-5.6561,-5.6589,-5.6606,-5.6606,-5.6606,-5.6606,-5.6606,-5.6606,-5.6606,-5.6606,-5.6606,-5.6606,-5.6606,-5.6449,-5.6324,-5.6292,-5.6078,-5.5921,-5.5896,-5.5779,-5.5703,-5.5703,-5.5703,-5.5703,-5.5703,-5.5703,-5.5703,-5.5703,-5.5703,-5.5662,-5.5607,-5.5562,-5.5527,-5.5516,-5.5516,-5.5516,-5.5504,-5.5444,-5.542,-4.6199,-4.6199,-4.6199,-4.6199,-4.6199,-4.6199,-4.6199,-4.6199,-4.6199,-4.6199,-4.6784,-4.7345,-4.7482,-4.8651,-4.9703,-4.9956,-5.0637,-5.1187,-5.1372,-5.15,-5.1534,-5.1391,-5.1497,-5.1576,-5.1577,-5.1708,-5.1776,-5.1781,-5.1667,-5.1577,-5.1507,-5.1367,-5.1304,-5.1304,-5.1437,-5.1982,-5.2995,-5.3732,-5.453,-5.5392,-5.5392,-5.5782,-5.6507,-5.6507,-5.6507,-5.6507,-5.6507,-5.6507,-5.6507,-5.6507,-5.6507,-5.6507,-5.6507,-5.6507,-5.6507,-5.6507,-5.6507,-5.6507,-5.6507,-5.6507,-5.6507,-5.6507,-5.6507,-5.6507,-5.6507,-5.6507,-5.6507,-5.65,-5.6498,-5.6499,-5.6494,-5.6504,-5.6501,-5.6519,-5.6566,-5.6606,-5.6606,-5.6606,-5.6606,-5.6606,-5.6606,-5.6606,-5.6606,-5.6606,-5.6606,-5.6606,-5.658,-5.65,-5.632,-5.6164,-5.6035,-5.5904,-5.5779,-5.5703,-5.5703,-5.5703,-5.5703,-5.5703,-5.5703,-5.5703,-5.5703,-5.5703,-5.5703,-5.5673,-5.5662,-5.564,-5.5585,-5.5585,-5.5551,-5.5504,-5.5492,-5.548,-4.6199,-4.6199,-4.6199,-4.6199,-4.6199,-4.6199,-4.6199,-4.6199,-4.6199,-4.6199,-4.6901,-4.7637,-4.8125,-4.9196,-5.0155,-5.0633,-5.106,-5.1352,-5.1396,-5.1399,-5.1399,-5.1399,-5.1391,-5.1408,-5.1394,-5.1408,-5.1405,-5.1408,-5.1372,-5.1359,-5.1353,-5.1312,-5.13,-5.13,-5.13,-5.1495,-5.1885,-5.2294,-5.3171,-5.4492,-5.4492,-5.4944,-5.5801,-5.5801,-5.6054,-5.6507,-5.6507,-5.6507,-5.6507,-5.6507,-5.6507,-5.6507,-5.6507,-5.6507,-5.6507,-5.6507,-5.6507,-5.6507,-5.6507,-5.6507,-5.6507,-5.6507,-5.6507,-5.6507,-5.6507,-5.6507,-5.6507,-5.6507,-5.6508,-5.6501,-5.6506,-5.6504,-5.6497,-5.6503,-5.6517,-5.6566,-5.6591,-5.6606,-5.6606,-5.6606,-5.6606,-5.6606,-5.6606,-5.6606,-5.6606,-5.6606,-5.6606,-5.6577,-5.6475,-5.6303,-5.6152,-5.6027,-5.5898,-5.5779,-5.5714,-5.5703,-5.5703,-5.5703,-5.5703,-5.5703,-5.5703,-5.5703,-5.5703,-5.5703,-5.5703,-5.5673,-5.5651,-5.5651,-5.5629,-5.5607,-5.5573,-5.5551,-4.6199,-4.6199,-4.6199,-4.6199,-4.6199,-4.6199,-4.6199,-4.6199,-4.6258,-4.6452,-4.7189,-4.8066,-4.8923,-4.9742,-5.0529,-5.1193,-5.1366,-5.14,-5.1396,-5.1408,-5.1392,-5.1403,-5.1401,-5.1399,-5.1405,-5.1405,-5.1405,-5.1394,-5.1352,-5.134,-5.1362,-5.1335,-5.13,-5.13,-5.13,-5.13,-5.13,-5.13,-5.208,-5.3599,-5.3599,-5.4043,-5.4901,-5.5115,-5.5567,-5.621,-5.6409,-5.6507,-5.6507,-5.6507,-5.6507,-5.6507,-5.6507,-5.6507,-5.6507,-5.6507,-5.6507,-5.6507,-5.6507,-5.6507,-5.6507,-5.6507,-5.6507,-5.6507,-5.6507,-5.6507,-5.6507,-5.6507,-5.6507,-5.65,-5.6501,-5.65,-5.6504,-5.6501,-5.6504,-5.6502,-5.6564,-5.6577,-5.6575,-5.6606,-5.6606,-5.6606,-5.6606,-5.6606,-5.6606,-5.6606,-5.6606,-5.6606,-5.6606,-5.6416,-5.6261,-5.6152,-5.5998,-5.5855,-5.5705,-5.5703,-5.5703,-5.5703,-5.5703,-5.5703,-5.5703,-5.5703,-5.5703,-5.5703,-5.5703,-5.5703,-5.5703,-5.5703,-5.5703,-5.5703,-5.564,-5.5618,-4.6199,-4.6199,-4.6199,-4.6199,-4.6199,-4.6199,-4.6199,-4.6199,-4.6433,-4.7248,-4.8105,-4.8943,-4.9761,-5.0618,-5.123,-5.1291,-5.1366,-5.14,-5.1396,-5.1408,-5.1394,-5.1392,-5.1392,-5.1392,-5.1392,-5.1392,-5.1403,-5.1397,-5.1394,-5.1379,-5.1304,-5.13,-5.13,-5.13,-5.13,-5.13,-5.13,-5.13,-5.1768,-5.2684,-5.2684,-5.3151,-5.4024,-5.4823,-5.5232,-5.5333,-5.6152,-5.6507,-5.6507,-5.6507,-5.6507,-5.6507,-5.6507,-5.6507,-5.6507,-5.6507,-5.6507,-5.6507,-5.6507,-5.6507,-5.6507,-5.6507,-5.6507,-5.6507,-5.6507,-5.6507,-5.6507,-5.6507,-5.6507,-5.6507,-5.6492,-5.6494,-5.6509,-5.6494,-5.6502,-5.65,-5.6503,-5.65,-5.6536,-5.6593,-5.6606,-5.6606,-5.6606,-5.6606,-5.6606,-5.6606,-5.6606,-5.6606,-5.6606,-5.6416,-5.6308,-5.6279,-5.6044,-5.5855,-5.5705,-5.5703,-5.5703,-5.5703,-5.5703,-5.5703,-5.5703,-5.5703,-5.5703,-5.5703,-5.5703,-5.5703,-5.5703,-5.5703,-5.5703,-5.5703,-5.5703,-5.5684,-4.6199,-4.6199,-4.6199,-4.6199,-4.6199,-4.6199,-4.6199,-4.6628,-4.7092,-4.7423,-4.8592,-4.98,-5.0657,-5.1086,-5.1304,-5.1292,-5.1356,-5.1397,-5.1403,-5.1403,-5.1394,-5.1394,-5.1394,-5.1394,-5.1394,-5.1394,-5.139,-5.1401,-5.1394,-5.138,-5.1356,-5.1326,-5.1296,-5.13,-5.13,-5.13,-5.13,-5.13,-5.1749,-5.2586,-5.206,-5.2528,-5.3907,-5.4238,-5.4983,-5.6035,-5.637,-5.6507,-5.6507,-5.6507,-5.6507,-5.6507,-5.6507,-5.6507,-5.6507,-5.6507,-5.6507,-5.6507,-5.6507,-5.6507,-5.6507,-5.6507,-5.6507,-5.6507,-5.6507,-5.6507,-5.6507,-5.6507,-5.6507,-5.6507,-5.6507,-5.6504,-5.651,-5.65,-5.6499,-5.6504,-5.6504,-5.6502,-5.6518,-5.658,-5.6591,-5.6608,-5.6595,-5.6596,-5.6595,-5.6606,-5.6591,-5.6593,-5.6606,-5.6531,-5.6443,-5.6316,-5.605,-5.588,-5.5827,-5.5748,-5.5703,-5.5703,-5.5703,-5.5703,-5.5703,-5.5703,-5.5703,-5.5703,-5.5703,-5.5703,-5.5703,-5.5703,-5.5703,-5.5703,-5.5703,-5.5607,-4.6141,-4.6199,-4.6199,-4.6199,-4.6199,-4.6277,-4.655,-4.7072,-4.7657,-4.8183,-4.9418,-5.0587,-5.1183,-5.1304,-5.1292,-5.1292,-5.1356,-5.1397,-5.14,-5.1401,-5.1394,-5.1394,-5.1394,-5.1394,-5.1394,-5.1394,-5.1392,-5.141,-5.1403,-5.1391,-5.1394,-5.134,-5.1307,-5.1292,-5.1304,-5.13,-5.13,-5.1573,-5.2002,-5.2606,-5.2275,-5.2742,-5.3907,-5.418,-5.4963,-5.6093,-5.639,-5.6351,-5.6113,-5.639,-5.6507,-5.6507,-5.6507,-5.6507,-5.6507,-5.6507,-5.6507,-5.6507,-5.6507,-5.6507,-5.6507,-5.6507,-5.6507,-5.6507,-5.6507,-5.6474,-5.6446,-5.6446,-5.6412,-5.6403,-5.6403,-5.6412,-5.6431,-5.6402,-5.641,-5.642,-5.6427,-5.644,-5.6484,-5.6521,-5.6568,-5.6598,-5.6605,-5.6605,-5.6603,-5.6596,-5.6602,-5.6603,-5.6596,-5.6596,-5.6521,-5.6356,-5.6158,-5.602,-5.5902,-5.5817,-5.5739,-5.5695,-5.5703,-5.5703,-5.5703,-5.5703,-5.5703,-5.5703,-5.5703,-5.5703,-5.5703,-5.5703,-5.5703,-5.5703,-5.5703,-5.5562,-4.5965,-4.6199,-4.6199,-4.6199,-4.6199,-4.6433,-4.7306,-4.7501,-4.7988,-4.9664,-5.0695,-5.1307,-5.1304,-5.13,-5.1294,-5.1294,-5.1366,-5.14,-5.1396,-5.1408,-5.1394,-5.1394,-5.1394,-5.1394,-5.1394,-5.1394,-5.139,-5.1399,-5.1399,-5.1391,-5.1394,-5.134,-5.1294,-5.1294,-5.1292,-5.13,-5.132,-5.2177,-5.2606,-5.2645,-5.3502,-5.3907,-5.3946,-5.4803,-5.5193,-5.5251,-5.6132,-5.6015,-5.5271,-5.6132,-5.6507,-5.6487,-5.6507,-5.6507,-5.6507,-5.6507,-5.6507,-5.6507,-5.6507,-5.6507,-5.6507,-5.6507,-5.6507,-5.6507,-5.6507,-5.6393,-5.6308,-5.6308,-5.6244,-5.6194,-5.6194,-5.6244,-5.6272,-5.6213,-5.6194,-5.6226,-5.6295,-5.6344,-5.6402,-5.6394,-5.6504,-5.6593,-5.6593,-5.6593,-5.6593,-5.6593,-5.6593,-5.6593,-5.6593,-5.6593,-5.6543,-5.6413,-5.6404,-5.627,-5.5936,-5.5904,-5.5842,-5.5705,-5.5714,-5.5703,-5.5703,-5.5703,-5.5703,-5.5703,-5.5703,-5.5703,-5.5703,-5.5703,-5.5703,-5.5703,-5.5703,-5.5562,-4.5965,-4.6199,-4.6199,-4.6199,-4.6199,-4.6589,-4.8086,-4.8417,-4.8884,-5.0579,-5.1109,-5.1308,-5.13,-5.1304,-5.1296,-5.1291,-5.1366,-5.14,-5.1396,-5.1408,-5.1394,-5.1394,-5.1394,-5.1394,-5.1394,-5.1394,-5.1392,-5.141,-5.141,-5.1406,-5.1391,-5.1378,-5.1343,-5.1294,-5.1292,-5.1593,-5.2216,-5.2469,-5.3229,-5.4433,-5.4686,-5.4803,-5.4823,-5.5076,-5.5528,-5.6132,-5.639,-5.6351,-5.6132,-5.639,-5.6132,-5.5645,-5.6253,-5.6507,-5.6507,-5.6507,-5.6507,-5.6507,-5.6507,-5.6507,-5.6507,-5.6507,-5.6446,-5.6354,-5.6354,-5.6297,-5.6226,-5.6226,-5.6213,-5.6181,-5.6134,-5.6134,-5.6181,-5.6188,-5.6194,-5.6226,-5.6295,-5.6344,-5.6399,-5.6406,-5.6504,-5.6594,-5.6597,-5.6597,-5.6597,-5.6593,-5.6596,-5.6597,-5.6593,-5.6593,-5.657,-5.6541,-5.645,-5.6367,-5.6266,-5.6084,-5.5959,-5.5913,-5.5875,-5.5806,-5.5695,-5.5703,-5.5703,-5.5703,-5.5703,-5.5703,-5.5703,-5.5703,-5.5703,-5.5703,-5.5703,-5.5562,-4.5868,-4.6199,-4.6199,-4.6199,-4.6199,-4.6667,-4.8397,-4.9313,-5.0073,-5.1086,-5.1312,-5.1339,-5.1304,-5.1312,-5.1346,-5.134,-5.1369,-5.1403,-5.1403,-5.139,-5.1394,-5.1394,-5.1394,-5.1394,-5.1394,-5.1394,-5.1394,-5.1394,-5.1394,-5.1392,-5.1406,-5.1405,-5.1372,-5.1343,-5.1316,-5.1729,-5.2586,-5.2937,-5.381,-5.5193,-5.5548,-5.5723,-5.5723,-5.5723,-5.5996,-5.6487,-5.6132,-5.6171,-5.6468,-5.6132,-5.5879,-5.5762,-5.6292,-5.6507,-5.6507,-5.6507,-5.6507,-5.6507,-5.6507,-5.6507,-5.6483,-5.6446,-5.6378,-5.6308,-5.6261,-5.6207,-5.6154,-5.6154,-5.6153,-5.6117,-5.6064,-5.6048,-5.6064,-5.6117,-5.6124,-5.6126,-5.6175,-5.6241,-5.6332,-5.6364,-5.6471,-5.6562,-5.6601,-5.6601,-5.66,-5.6599,-5.66,-5.66,-5.6599,-5.6598,-5.6598,-5.6598,-5.6528,-5.6438,-5.634,-5.6167,-5.6056,-5.5968,-5.5923,-5.5856,-5.5776,-5.5756,-5.5745,-5.5745,-5.5714,-5.5703,-5.5703,-5.5703,-5.553,-5.5222,-5.5222,-5.489,-4.5631,-4.6141,-4.6199,-4.6199,-4.6316,-4.6842,-4.8436,-5.0092,-5.13,-5.13,-5.1349,-5.1362,-5.1308,-5.1353,-5.1394,-5.1397,-5.1397,-5.1405,-5.139,-5.1394,-5.1394,-5.1394,-5.1394,-5.1394,-5.1394,-5.1394,-5.1394,-5.1394,-5.1394,-5.1394,-5.1394,-5.1391,-5.1394,-5.1394,-5.1417,-5.1846,-5.2703,-5.358,-5.4453,-5.5329,-5.6113,-5.6507,-5.6507,-5.6507,-5.6507,-5.6468,-5.5665,-5.5723,-5.6331,-5.5606,-5.5743,-5.639,-5.6468,-5.6507,-5.6507,-5.6507,-5.6507,-5.6507,-5.6483,-5.6479,-5.6455,-5.6324,-5.6297,-5.6267,-5.6207,-5.6134,-5.6087,-5.6087,-5.6051,-5.6012,-5.6012,-5.6012,-5.6012,-5.6012,-5.6012,-5.6012,-5.6012,-5.6109,-5.6212,-5.6281,-5.6407,-5.652,-5.6581,-5.6601,-5.6601,-5.6601,-5.6601,-5.6601,-5.6601,-5.6601,-5.6601,-5.6601,-5.6601,-5.6473,-5.6145,-5.6091,-5.5979,-5.5718,-5.5682,-5.5683,-5.5683,-5.5769,-5.5778,-5.5681,-5.563,-5.557,-5.5493,-5.5493,-5.5109,-5.4386,-5.4386,-5.3788,-4.489,-4.5673,-4.6199,-4.6199,-4.7228,-4.8339,-4.8709,-5.0092,-5.13,-5.13,-5.13,-5.1317,-5.1307,-5.1343,-5.1397,-5.1391,-5.1394,-5.1399,-5.1392,-5.1394,-5.1394,-5.1394,-5.1394,-5.1394,-5.1394,-5.1394,-5.1394,-5.1394,-5.1394,-5.1394,-5.1394,-5.1391,-5.1394,-5.1394,-5.2001,-5.2742,-5.3619,-5.4472,-5.5353,-5.6215,-5.6409,-5.6507,-5.6507,-5.6507,-5.6507,-5.6487,-5.6292,-5.5937,-5.5528,-5.6015,-5.5937,-5.5548,-5.6234,-5.6507,-5.6507,-5.6507,-5.6507,-5.6483,-5.6383,-5.6349,-5.6338,-5.6257,-5.6201,-5.6146,-5.6132,-5.6071,-5.6018,-5.6018,-5.6001,-5.6012,-5.6012,-5.6012,-5.6012,-5.6012,-5.6012,-5.6012,-5.6012,-5.6109,-5.6201,-5.6212,-5.6371,-5.6491,-5.652,-5.6578,-5.6601,-5.6601,-5.6601,-5.6601,-5.6601,-5.6601,-5.6601,-5.6601,-5.6601,-5.6308,-5.5559,-5.534,-5.4976,-5.4294,-5.4098,-5.4033,-5.4033,-5.5219,-5.5557,-5.4863,-5.4853,-5.4497,-5.3822,-5.3822,-5.3726,-5.3571,-5.3571,-5.3407,-4.454,-4.5225,-4.5673,-4.6102,-4.7189,-4.828,-4.869,-4.9761,-5.0798,-5.1214,-5.133,-5.134,-5.1314,-5.1352,-5.1408,-5.1396,-5.1399,-5.1401,-5.1392,-5.1394,-5.1394,-5.1394,-5.1394,-5.1394,-5.1394,-5.1394,-5.1394,-5.1394,-5.1394,-5.1394,-5.1394,-5.1391,-5.1589,-5.196,-5.2372,-5.3229,-5.4511,-5.4959,-5.5645,-5.6507,-5.6507,-5.6507,-5.6507,-5.6507,-5.6507,-5.6507,-5.6507,-5.6234,-5.586,-5.6312,-5.6234,-5.5879,-5.6312,-5.6507,-5.6483,-5.6422,-5.6393,-5.6383,-5.6286,-5.625,-5.6238,-5.6168,-5.6132,-5.6094,-5.6056,-5.6026,-5.6012,-5.6012,-5.6012,-5.6012,-5.6012,-5.6012,-5.6012,-5.6012,-5.6012,-5.6012,-5.6012,-5.604,-5.6132,-5.6181,-5.63,-5.6419,-5.6484,-5.6556,-5.6601,-5.6601,-5.6601,-5.6601,-5.6601,-5.6601,-5.6445,-5.6015,-5.5976,-5.5605,-5.4719,-5.4526,-5.4247,-5.3745,-5.3618,-5.3526,-5.3506,-5.4297,-5.4513,-5.4022,-5.3995,-5.3754,-5.3291,-5.3291,-5.3098,-5.2732,-5.2732,-5.2425,-4.4052,-4.4679,-4.5108,-4.5985,-4.6862,-4.7696,-4.8417,-4.9313,-5.0217,-5.0936,-5.1265,-5.1372,-5.1323,-5.1364,-5.1401,-5.1401,-5.1401,-5.1403,-5.1392,-5.1394,-5.1394,-5.1394,-5.1394,-5.1394,-5.1394,-5.1394,-5.1394,-5.1394,-5.1394,-5.1394,-5.1392,-5.1525,-5.1918,-5.2578,-5.2898,-5.3732,-5.5193,-5.5353,-5.5782,-5.6507,-5.6507,-5.6507,-5.6507,-5.6507,-5.6507,-5.6507,-5.6507,-5.6507,-5.6507,-5.6507,-5.6507,-5.6507,-5.6507,-5.6483,-5.645,-5.6349,-5.6283,-5.6267,-5.6201,-5.6175,-5.6161,-5.6109,-5.6079,-5.6064,-5.601,-5.6012,-5.6012,-5.6012,-5.6012,-5.6012,-5.6012,-5.6012,-5.6012,-5.6012,-5.6012,-5.6012,-5.6012,-5.6012,-5.6035,-5.6134,-5.6244,-5.6336,-5.648,-5.6556,-5.6601,-5.6601,-5.6601,-5.6543,-5.6387,-5.6387,-5.6035,-5.5176,-5.5078,-5.4705,-5.3766,-5.3678,-5.3537,-5.3213,-5.3182,-5.3145,-5.3081,-5.3069,-5.3036,-5.2975,-5.3066,-5.3048,-5.2894,-5.2894,-5.2547,-5.1891,-5.1891,-5.1395,-4.2588,-4.3741,-4.5108,-4.5985,-4.6862,-4.7521,-4.7657,-4.8884,-5.0057,-5.0212,-5.0875,-5.1397,-5.1391,-5.1384,-5.1392,-5.1392,-5.1392,-5.1392,-5.1394,-5.1394,-5.1394,-5.1394,-5.1394,-5.1394,-5.1394,-5.1394,-5.1394,-5.1394,-5.1394,-5.139,-5.1401,-5.2066,-5.2497,-5.26,-5.4079,-5.4959,-5.5193,-5.5957,-5.639,-5.6507,-5.6507,-5.6507,-5.6507,-5.6507,-5.6507,-5.6507,-5.6507,-5.6507,-5.6507,-5.6507,-5.6507,-5.6507,-5.6507,-5.6422,-5.6319,-5.6314,-5.6255,-5.6201,-5.6146,-5.6117,-5.6102,-5.6035,-5.601,-5.6001,-5.5993,-5.6012,-5.6012,-5.6012,-5.6012,-5.6012,-5.6012,-5.6012,-5.6012,-5.6012,-5.6012,-5.6012,-5.6012,-5.6012,-5.6012,-5.6018,-5.6167,-5.6336,-5.648,-5.6556,-5.6601,-5.6601,-5.6601,-5.6328,-5.5566,-5.5469,-5.5137,-5.4277,-5.418,-5.3828,-5.2949,-5.2818,-5.2444,-5.1667,-5.1502,-5.1423,-5.1424,-5.1303,-5.1246,-5.1238,-5.1973,-5.1973,-5.123,-5.123,-5.1172,-5.1056,-5.1056,-5.0985,-4.2763,-4.3936,-4.5108,-4.5985,-4.6491,-4.6897,-4.7384,-4.8066,-4.8755,-4.925,-5.0062,-5.0815,-5.1318,-5.1408,-5.1394,-5.1394,-5.1394,-5.1394,-5.1394,-5.1394,-5.1394,-5.1394,-5.1394,-5.1394,-5.1394,-5.1394,-5.1394,-5.1394,-5.1394,-5.1392,-5.1408,-5.2166,-5.2812,-5.3312,-5.4551,-5.5431,-5.5918,-5.6312,-5.6507,-5.6507,-5.6507,-5.6507,-5.6507,-5.6507,-5.6507,-5.6507,-5.6507,-5.6507,-5.6507,-5.6507,-5.6507,-5.6507,-5.6507,-5.6417,-5.6308,-5.6255,-5.6194,-5.6119,-5.6075,-5.6051,-5.6043,-5.6001,-5.6012,-5.6012,-5.6012,-5.6012,-5.6012,-5.6012,-5.6012,-5.6012,-5.6012,-5.6012,-5.6012,-5.6012,-5.6012,-5.6012,-5.6012,-5.6012,-5.6018,-5.6094,-5.6181,-5.6276,-5.637,-5.6469,-5.6376,-5.5888,-5.5857,-5.5566,-5.4687,-5.457,-5.4238,-5.3359,-5.3262,-5.293,-5.2051,-5.1931,-5.1747,-5.1338,-5.1232,-5.1174,-5.1105,-5.1043,-5.0976,-5.0898,-5.1273,-5.1273,-5.0898,-5.0898,-5.0898,-5.0898,-5.0898,-5.0803,-4.2861,-4.3741,-4.4501,-4.5595,-4.5868,-4.6102,-4.6975,-4.7345,-4.7687,-4.8343,-4.9151,-5.0034,-5.0911,-5.1252,-5.1394,-5.1394,-5.1394,-5.1394,-5.1394,-5.1394,-5.1394,-5.1394,-5.1394,-5.1394,-5.1394,-5.1394,-5.1394,-5.1394,-5.1394,-5.1392,-5.1406,-5.2166,-5.3007,-5.3875,-5.4742,-5.5626,-5.6487,-5.6507,-5.6507,-5.6507,-5.6507,-5.6507,-5.6507,-5.6507,-5.6507,-5.6507,-5.6507,-5.6507,-5.6507,-5.6507,-5.6507,-5.6507,-5.6455,-5.6378,-5.6261,-5.6194,-5.6139,-5.6083,-5.601,-5.6012,-5.6012,-5.6012,-5.6012,-5.6012,-5.6012,-5.6012,-5.6012,-5.6012,-5.6012,-5.6012,-5.6012,-5.6012,-5.6012,-5.6012,-5.6012,-5.6012,-5.6012,-5.6012,-5.6026,-5.6139,-5.6187,-5.6148,-5.5969,-5.6035,-5.5831,-5.5003,-5.4911,-5.4647,-5.3789,-5.3672,-5.334,-5.2461,-5.2363,-5.2109,-5.1465,-5.1406,-5.1385,-5.1331,-5.1302,-5.1261,-5.1157,-5.1114,-5.1056,-5.0947,-5.0921,-5.0898,-5.0898,-5.0898,-5.0898,-5.0898,-5.0898,-5.0775,-4.214,-4.2393,-4.2841,-4.4543,-4.4972,-4.5205,-4.6063,-4.692,-4.7512,-4.7566,-4.8251,-4.914,-5.0002,-5.0846,-5.1394,-5.1394,-5.1394,-5.1394,-5.1394,-5.1394,-5.1394,-5.1394,-5.1394,-5.1394,-5.1394,-5.1394,-5.1394,-5.1394,-5.1394,-5.1403,-5.1397,-5.2155,-5.2997,-5.3876,-5.4749,-5.5626,-5.6487,-5.6507,-5.6507,-5.6507,-5.6507,-5.6507,-5.6507,-5.6507,-5.6507,-5.6507,-5.6507,-5.6507,-5.6507,-5.6507,-5.6507,-5.6483,-5.6354,-5.6281,-5.6194,-5.6139,-5.6056,-5.5993,-5.6012,-5.6012,-5.6012,-5.6012,-5.6012,-5.6012,-5.6012,-5.6012,-5.6012,-5.6012,-5.6012,-5.6012,-5.6012,-5.6012,-5.6012,-5.6012,-5.6012,-5.6012,-5.6012,-5.6012,-5.5993,-5.6001,-5.6117,-5.5948,-5.5106,-5.5025,-5.4823,-5.4084,-5.3975,-5.3676,-5.2871,-5.2773,-5.2422,-5.1562,-5.1465,-5.1445,-5.1406,-5.1406,-5.1406,-5.1406,-5.1334,-5.1295,-5.1291,-5.1176,-5.1099,-5.1093,-5.0961,-5.0898,-5.0898,-5.0898,-5.0898,-5.0898,-5.0898,-5.0898,-4.2081,-4.2296,-4.2588,-4.378,-4.4079,-4.4283,-4.5163,-4.5618,-4.6,-4.6606,-4.7389,-4.8077,-4.8424,-4.9636,-5.0748,-5.1316,-5.1394,-5.1394,-5.1394,-5.1394,-5.1394,-5.1394,-5.1394,-5.1394,-5.1394,-5.1394,-5.1394,-5.1394,-5.1394,-5.1408,-5.1391,-5.2161,-5.2747,-5.3054,-5.4441,-5.5626,-5.6487,-5.6507,-5.6507,-5.6507,-5.6507,-5.6507,-5.6507,-5.6507,-5.6507,-5.6507,-5.6507,-5.6507,-5.6507,-5.6507,-5.645,-5.6378,-5.6319,-5.6226,-5.6119,-5.6109,-5.6067,-5.6012,-5.6012,-5.6012,-5.6012,-5.6012,-5.6012,-5.6012,-5.6012,-5.6012,-5.6012,-5.6012,-5.6012,-5.6012,-5.6012,-5.6012,-5.6012,-5.6012,-5.6012,-5.6012,-5.6012,-5.6012,-5.5857,-5.5335,-5.5269,-5.5025,-5.4153,-5.4071,-5.3818,-5.2995,-5.2971,-5.2766,-5.192,-5.1834,-5.1758,-5.1426,-5.1406,-5.1406,-5.1406,-5.1406,-5.1406,-5.1406,-5.1385,-5.1338,-5.1297,-5.1241,-5.0914,-5.0276,-5.0222,-5.0421,-5.0898,-5.0898,-5.0898,-5.0898,-5.0898,-5.0898,-4.175,-4.1906,-4.2101,-4.2958,-4.3163,-4.3386,-4.4253,-4.4691,-4.5072,-4.5735,-4.6518,-4.7203,-4.7545,-4.8504,-4.9636,-5.0789,-5.0965,-5.1063,-5.1355,-5.1394,-5.1394,-5.1394,-5.1394,-5.1394,-5.1394,-5.1394,-5.1394,-5.1394,-5.1394,-5.1408,-5.1391,-5.1907,-5.2318,-5.259,-5.4013,-5.5178,-5.6054,-5.6054,-5.621,-5.6507,-5.6507,-5.6507,-5.6507,-5.6507,-5.6507,-5.6507,-5.6507,-5.6507,-5.6507,-5.645,-5.6383,-5.6308,-5.6244,-5.6175,-5.6094,-5.6071,-5.6043,-5.6012,-5.6012,-5.5977,-5.5941,-5.5941,-5.5941,-5.5941,-5.5941,-5.5949,-5.6012,-5.6012,-5.6012,-5.6012,-5.6012,-5.6012,-5.6012,-5.6012,-5.6012,-5.5935,-5.5664,-5.5606,-5.5451,-5.4909,-5.4561,-5.4097,-5.3207,-5.3095,-5.2848,-5.2012,-5.2037,-5.1923,-5.1373,-5.1362,-5.1406,-5.1406,-5.1406,-5.1289,-5.1016,-5.0996,-5.0879,-5.0586,-5.0566,-5.0545,-5.0494,-5.0443,-5.0113,-4.9443,-4.9395,-4.9601,-5.0083,-5.0078,-5.0345,-5.0902,-5.0902,-5.0902,0.0,0.0,0.0,-4.2062,-4.2257,-4.2497,-4.337,-4.4214,-4.485,-4.4931,-4.566,-4.6522,-4.737,-4.7547,-4.8094,-4.9753,-5.0046,-5.0358,-5.1199,-5.1316,-5.1336,-5.1355,-5.1355,-5.1375,-5.1394,-5.1394,-5.1394,-5.1394,-5.1394,-5.1403,-5.1397,-5.1394,-5.1769,-5.2567,-5.3424,-5.4277,-5.5154,-5.5193,-5.5626,-5.6468,-5.6487,-5.6507,-5.6507,-5.6507,-5.6507,-5.6507,-5.6507,-5.6507,-5.6483,-5.6354,-5.6308,-5.6272,-5.616,-5.6094,-5.6079,-5.601,-5.5995,-5.5995,-5.5995,-5.5904,-5.5787,-5.5787,-5.5806,-5.5797,-5.5797,-5.5895,-5.6012,-5.6012,-5.6012,-5.6012,-5.6012,-5.6012,-5.5993,-5.5973,-5.5973,-5.5741,-5.4948,-5.4735,-5.4716,-5.4716,-5.4039,-5.3169,-5.2306,-5.2171,-5.1927,-5.1192,-5.1157,-5.1206,-5.1249,-5.1322,-5.1348,-5.1328,-5.1328,-5.1016,-5.0234,-5.0156,-4.9805,-4.8945,-4.8906,-4.8906,-4.8906,-4.8776,-4.8699,-4.8677,-4.8548,-4.8458,-4.8433,-4.8424,-4.9257,-5.0816,-5.0777,-5.0758,-4.1965,0.0,0.0,0.0,0.0,0.0,-4.2535,-4.2924,-4.3273,-4.3921,-4.4749,-4.5437,-4.5673,-4.6222,-4.7022,-4.8113,-4.8779,-4.9247,-4.9481,-4.952,-4.9755,-5.0377,-5.0455,-5.0709,-5.1336,-5.1394,-5.1394,-5.1394,-5.1394,-5.1408,-5.1394,-5.1352,-5.1716,-5.2567,-5.284,-5.3385,-5.4258,-5.4881,-5.531,-5.5567,-5.6191,-5.6507,-5.6507,-5.6507,-5.6507,-5.6507,-5.6507,-5.6446,-5.6354,-5.6319,-5.6238,-5.6134,-5.6004,-5.5921,-5.5866,-5.5696,-5.5632,-5.5632,-5.5632,-5.5599,-5.5585,-5.5585,-5.5673,-5.5797,-5.5797,-5.5895,-5.6012,-5.6012,-5.6012,-5.6012,-5.6012,-5.6012,-5.5857,-5.5277,-5.5122,-5.4909,-5.4039,-5.3362,-5.2917,-5.2917,-5.2724,-5.2279,-5.1409,-5.1254,-5.1192,-5.0978,-5.1056,-5.0919,-5.0364,-5.0349,-5.0186,-4.9648,-4.959,-4.9492,-4.9277,-4.9258,-4.916,-4.8926,-4.8906,-4.8906,-4.8906,-4.8866,-4.8528,-4.7844,-4.7796,-4.742,-4.6696,-4.8237,-4.9025,-4.9064,-4.7796,-4.7209,-4.2841,-4.2237,-4.1594,-4.1594,0.0,0.0,-4.1738,-4.2147,-4.2533,-4.3045,-4.3855,-4.4563,-4.4932,-4.5421,-4.6046,-4.6924,-4.7451,-4.7998,-4.8701,-4.8798,-4.8993,-4.9501,-4.9558,-4.9755,-5.0262,-5.0321,-5.0321,-5.0321,-5.0653,-5.1015,-5.1369,-5.1346,-5.1537,-5.2041,-5.206,-5.2489,-5.3346,-5.3849,-5.4472,-5.5212,-5.5704,-5.6152,-5.6507,-5.6507,-5.6507,-5.6507,-5.6446,-5.6368,-5.625,-5.6162,-5.6126,-5.6087,-5.5982,-5.5885,-5.5776,-5.5682,-5.5573,-5.5504,-5.5504,-5.5456,-5.5364,-5.5364,-5.5449,-5.5573,-5.564,-5.5778,-5.5932,-5.5975,-5.6012,-5.6012,-5.6012,-5.576,-5.5374,-5.4909,-5.4523,-5.402,-5.3149,-5.2558,-5.221,-5.221,-5.1912,-5.1505,-5.0995,-5.0898,-5.0782,-5.0453,-5.0494,-5.0254,-4.9425,-4.9416,-4.9334,-4.89,-4.8886,-4.875,-4.8398,-4.8359,-4.8203,-4.7832,-4.7812,-4.7812,-4.7812,-4.7812,-4.7557,-4.7003,-4.6933,-4.6585,-4.5919,-4.7229,-4.7688,-4.7289,-4.6262,-4.5791,-4.3737,-4.3114,-4.2432,-4.2432,-4.1828,0.0,-4.1226,-4.1769,-4.2269,-4.2262,-4.2955,-4.3782,-4.4561,-4.4795,-4.5109,-4.589,-4.6007,-4.6593,-4.8291,-4.8525,-4.8564,-4.8662,-4.8662,-4.8701,-4.8798,-4.8798,-4.8798,-4.8798,-4.952,-5.0349,-5.1199,-5.1206,-5.1209,-5.13,-5.13,-5.1671,-5.245,-5.2547,-5.3385,-5.4901,-5.5115,-5.5606,-5.637,-5.6435,-5.647,-5.6446,-5.6308,-5.62,-5.6114,-5.5935,-5.5945,-5.6056,-5.5947,-5.5837,-5.5735,-5.5714,-5.5585,-5.5444,-5.5444,-5.532,-5.5176,-5.5176,-5.517,-5.5236,-5.5444,-5.5629,-5.5808,-5.5852,-5.5877,-5.5838,-5.576,-5.52,-5.4639,-5.4523,-5.3923,-5.3111,-5.224,-5.2066,-5.2028,-5.1923,-5.1362,-5.0859,-5.0782,-5.0763,-5.0492,-4.9687,-4.9608,-4.9326,-4.8469,-4.8513,-4.8601,-4.8527,-4.857,-4.8301,-4.7519,-4.7461,-4.7129,-4.6347,-4.6308,-4.6308,-4.6308,-4.6308,-4.6308,-4.6308,-4.6181,-4.6028,-4.5867,-4.5934,-4.5922,-4.5807,-4.5807,-4.5807,-4.463,-4.4014,-4.3348,-4.3348,-4.2705,0.0,-4.2068,-4.1694,-4.1356,-4.1349,-4.2046,-4.2701,-4.2882,-4.3489,-4.4016,-4.4172,-4.4211,-4.4816,-4.6534,-4.6788,-4.7042,-4.7742,-4.782,-4.8096,-4.874,-4.8798,-4.8798,-4.8798,-4.8954,-4.9432,-5.0305,-5.0338,-5.0635,-5.1281,-5.13,-5.1378,-5.1554,-5.2255,-5.2781,-5.3112,-5.453,-5.529,-5.5466,-5.6006,-5.6239,-5.6168,-5.5975,-5.5833,-5.5711,-5.5661,-5.5739,-5.5817,-5.5477,-5.5351,-5.5288,-5.5135,-5.5057,-5.5014,-5.5014,-5.4985,-5.4975,-5.4975,-5.5066,-5.5236,-5.5444,-5.5629,-5.5692,-5.5176,-5.5026,-5.4871,-5.4175,-5.3865,-5.3575,-5.2859,-5.2577,-5.2213,-5.1349,-5.1148,-5.0927,-5.0179,-5.0491,-5.0685,-5.0055,-4.9939,-4.9649,-4.8778,-4.8653,-4.8386,-4.7559,-4.754,-4.7362,-4.6774,-4.6771,-4.6738,-4.6578,-4.6541,-4.6482,-4.6305,-4.6304,-4.6304,-4.6304,-4.6304,-4.6304,-4.6304,-4.6268,-4.6235,-4.6204,-4.5959,-4.5819,-4.5807,-4.5807,-4.5807,-4.5526,-4.491,-4.4247,-4.4247,-4.3582,0.0,0.0,-4.2006,-4.1635,-4.1191,-4.1441,-4.1883,-4.2316,-4.2767,-4.3196,-4.3626,-4.3705,-4.4018,-4.4875,-4.5382,-4.5987,-4.6846,-4.6944,-4.712,-4.751,-4.7549,-4.7725,-4.8174,-4.8193,-4.8574,-4.9405,-4.9444,-4.9819,-5.0638,-5.0657,-5.0852,-5.13,-5.1729,-5.2177,-5.2606,-5.3483,-5.4121,-5.4589,-5.5311,-5.5585,-5.5467,-5.5739,-5.5741,-5.5596,-5.547,-5.5442,-5.5485,-5.5389,-5.5275,-5.5203,-5.508,-5.4985,-5.4901,-5.4901,-5.4901,-5.4901,-5.4901,-5.5042,-5.5147,-5.4927,-5.4771,-5.459,-5.4254,-5.4155,-5.4039,-5.3614,-5.3169,-5.2724,-5.2255,-5.1841,-5.1427,-5.096,-5.0499,-5.0055,-4.9586,-4.9561,-4.947,-4.9064,-4.8987,-4.8697,-4.7836,-4.7701,-4.7395,-4.6564,-4.6513,-4.6439,-4.6125,-4.6152,-4.6237,-4.6282,-4.6304,-4.6304,-4.6301,-4.6301,-4.6301,-4.6301,-4.6301,-4.6301,-4.6301,-4.6308,-4.6308,-4.6301,-4.6121,-4.5963,-4.5794,-4.5801,-4.5796,-4.6119,-4.5686,-4.5147,-4.5147,-4.4501,-4.3659,0.0,0.0,0.0,-4.1498,-4.1226,-4.1319,-4.2022,-4.2141,-4.2376,-4.3079,-4.3198,-4.3256,-4.343,-4.4055,-4.4816,-4.5695,-4.5792,-4.587,-4.6027,-4.6202,-4.6593,-4.7295,-4.7352,-4.7693,-4.8508,-4.8541,-4.8919,-4.9742,-4.9917,-5.0346,-5.1047,-5.1222,-5.1651,-5.2353,-5.2528,-5.2952,-5.3661,-5.444,-5.4673,-5.4502,-5.5063,-5.5187,-5.4971,-5.4925,-5.492,-5.4934,-5.5256,-5.5294,-5.5149,-5.5149,-5.5042,-5.4901,-5.4901,-5.4806,-5.4674,-5.4674,-5.4728,-5.4683,-5.4123,-5.3744,-5.3459,-5.3279,-5.323,-5.3207,-5.3033,-5.2472,-5.1942,-5.1874,-5.1363,-5.0844,-5.06,-4.9993,-4.9395,-4.9059,-4.848,-4.8037,-4.8062,-4.8042,-4.7753,-4.6885,-4.675,-4.6499,-4.5785,-4.5763,-4.585,-4.5954,-4.6043,-4.6143,-4.6251,-4.6297,-4.63,-4.6299,-4.6299,-4.6299,-4.6299,-4.6299,-4.6299,-4.6299,-4.5967,-4.5954,-4.6307,-4.5955,-4.5826,-4.5891,-4.5828,-4.5456,-4.5879,-4.6072,-4.6043,-4.6043,-4.54,-4.4738,-4.464,0.0,-4.2308,-4.2265,0.0,-4.1122,-4.123,0.0,0.0,-4.1382,-4.1402,-4.1675,-4.2435,-4.263,-4.3021,-4.3879,-4.3998,-4.4309,-4.507,-4.5851,-4.6339,-4.6436,-4.6448,-4.6806,-4.7591,-4.7655,-4.8048,-4.8904,-4.9625,-5.0053,-5.0151,-5.0911,-5.1359,-5.1456,-5.2236,-5.2624,-5.2675,-5.3372,-5.3541,-5.3282,-5.3192,-5.2997,-5.2821,-5.3556,-5.3865,-5.394,-5.469,-5.4941,-5.4927,-5.4927,-5.4916,-5.4901,-5.4901,-5.4427,-5.384,-5.384,-5.3568,-5.3238,-5.3154,-5.3311,-5.3299,-5.2423,-5.2264,-5.2163,-5.1409,-5.1111,-5.1045,-5.1043,-5.0977,-5.0662,-4.9823,-4.9574,-4.9035,-4.7489,-4.7114,-4.7073,-4.7138,-4.7155,-4.6846,-4.5978,-4.5843,-4.5804,-4.5708,-4.5763,-4.5808,-4.5809,-4.5978,-4.61,-4.6118,-4.6234,-4.6291,-4.6303,-4.6303,-4.6303,-4.6303,-4.6303,-4.6305,-4.6306,-4.4782,-4.4764,-4.6291,-4.4755,-4.4777,-4.6249,-4.5939,-4.4203,-4.5842,-4.6111,-4.615,-4.6192,-4.5926,-4.5517,-4.503,-4.4332,-4.3539,-4.2593,0.0,0.0,0.0,0.0,0.0,0.0,-4.1109,-4.1226,-4.1596,-4.1654,-4.2162,-4.3549,-4.3705,-4.384,-4.4211,-4.5031,-4.5556,-4.5549,-4.6013,-4.6433,-4.6721,-4.6755,-4.7151,-4.8031,-4.8378,-4.9021,-4.9995,-5.0365,-5.0794,-5.13,-5.1622,-5.1775,-5.177,-5.2486,-5.263,-5.2365,-5.2751,-5.2717,-5.2423,-5.2798,-5.2949,-5.2987,-5.3328,-5.3764,-5.42,-5.42,-5.3878,-5.3461,-5.3461,-5.3233,-5.2964,-5.3085,-5.271,-5.2264,-5.2245,-5.2068,-5.1785,-5.1355,-5.134,-5.1319,-5.0766,-5.0752,-5.0844,-5.0596,-5.0317,-4.9975,-4.9537,-4.8672,-4.7758,-4.7048,-4.649,-4.6161,-4.6185,-4.6194,-4.6059,-4.5712,-4.5627,-4.5453,-4.4952,-4.4901,-4.4764,-4.4331,-4.4375,-4.448,-4.4634,-4.4691,-4.4758,-4.4797,-4.5111,-4.5306,-4.5306,-4.595,-4.5814,-4.4818,-4.3079,-4.2552,-4.3274,-4.3552,-4.3554,-4.3304,-4.41,-4.3173,-4.5391,-4.5734,-4.5814,-4.6111,-4.6199,-4.6024,-4.54,-4.5076,-4.4556,-4.3331,-4.2719,0.0,0.0,0.0,-4.1092,-4.1103,0.0,-4.1106,-4.1109,-4.1109,-4.1578,-4.2846,-4.3196,-4.3333,-4.3333,-4.4133,-4.4733,-4.4977,-4.5577,-4.5997,-4.6186,-4.62,-4.6485,-4.7115,-4.7384,-4.8202,-4.9664,-4.9898,-5.0443,-5.13,-5.1234,-5.1181,-5.1185,-5.1716,-5.1788,-5.1539,-5.2111,-5.2146,-5.182,-5.2028,-5.2101,-5.2082,-5.231,-5.2651,-5.3044,-5.3271,-5.2949,-5.2385,-5.2385,-5.2267,-5.2049,-5.2044,-5.1677,-5.1285,-5.1296,-5.0975,-5.0616,-5.0616,-5.0653,-5.0671,-5.0451,-5.0577,-5.0615,-5.0076,-4.972,-4.9354,-4.8826,-4.7759,-4.6827,-4.6586,-4.6028,-4.5594,-4.5594,-4.5594,-4.5594,-4.5594,-4.5402,-4.5017,-4.4374,-4.4105,-4.3769,-4.3243,-4.3195,-4.3276,-4.3473,-4.3526,-4.3572,-4.3667,-4.411,-4.4271,-4.4115,-4.5052,-4.4759,-4.3022,-4.1732,-4.1106,-4.1106,-4.2376,-4.2334,-4.1133,-4.2259,-4.211,-4.4277,-4.4793,-4.5055,-4.5974,-4.6199,-4.6199,-4.616,-4.5517,-4.4874,-4.4835,-4.3523,-4.2382,-4.2362,-4.1671,-4.1098,-4.1092,-4.1094,0.0,0.0,-4.1109,-4.1129,-4.1187,-4.1927,-4.2435,-4.2435,-4.3235,-4.4091,-4.4938,-4.4963,-4.5301,-4.6167,-4.6209,-4.6219,-4.6238,-4.7053,-4.793,-4.8826,-4.9605,-5.0443,-5.13,-5.1234,-5.1161,-5.1105,-5.105,-5.0933,-5.073,-5.075,-5.0572,-5.034,-5.111,-5.1357,-5.1305,-5.2115,-5.1945,-5.1362,-5.2139,-5.2423,-5.2385,-5.2385,-5.1893,-5.112,-5.0488,-5.0276,-5.0238,-5.0238,-5.031,-5.0415,-5.0415,-5.0309,-5.0245,-5.038,-5.0418,-5.0193,-4.9256,-4.9278,-4.9046,-4.7345,-4.6942,-4.6644,-4.5806,-4.5614,-4.5594,-4.5594,-4.5594,-4.5594,-4.5594,-4.4874,-4.4335,-4.4297,-4.3624,-4.3124,-4.3113,-4.3163,-4.3202,-4.3208,-4.3333,-4.3454,-4.3588,-4.3682,-4.3469,-4.2884,-4.345,-4.2964,-4.1226,-4.1129,-4.1109,-4.1109,-4.1168,-4.1142,-4.1094,-4.1019,-4.095,-4.3519,-4.4284,-4.4826,-4.5183,-4.571,-4.6146,-4.6192,-4.5965,-4.5595,-4.503,-4.4449,-4.3715,-4.2593,-4.215,-4.1769,-4.1196,-4.1107,-4.1095,0.0,-4.1104,-4.1109,-4.1109,-4.1363,-4.1537,-4.1537,-4.2332,-4.3203,-4.4068,-4.4601,-4.5289,-4.6151,-4.6203,-4.6199,-4.6199,-4.6491,-4.7053,-4.793,-4.8787,-4.959,-5.0378,-5.0888,-5.1099,-5.103,-5.0961,-5.0858,-5.0701,-5.0701,-5.0567,-5.0355,-5.0623,-5.0711,-5.0679,-5.0862,-5.0774,-5.0628,-5.1342,-5.1244,-5.0751,-5.0751,-5.0656,-5.0475,-5.0107,-5.0089,-5.0194,-5.0038,-5.0186,-5.0404,-5.0404,-5.0366,-5.0172,-4.9457,-4.9365,-4.9193,-4.8134,-4.7829,-4.7624,-4.7028,-4.6451,-4.5951,-4.5671,-4.5594,-4.5594,-4.5594,-4.5133,-4.4739,-4.4739,-4.4047,-4.3297,-4.272,-4.2412,-4.2027,-4.1439,-4.1397,-4.1451,-4.1545,-4.1668,-4.1788,-4.1867,-4.193,-4.1898,-4.1674,-4.187,-4.1695,-4.1109,-4.1109,-4.1109,-4.1109,-4.1109,-4.1094,-4.1103,-4.1054,-4.1039,-4.316,-4.3579,-4.3937,-4.4608,-4.5196,-4.5695,-4.6072,-4.6158,-4.6006,-4.5475,-4.5127,-4.4566,-4.3484,-4.2782,-4.2181,-4.1652,-4.1293,-4.1109,0.0,-4.1104,-4.1109,-4.1109,-4.1109,-4.1108,-4.1104,-4.1607,-4.2297,-4.3178,-4.3713,-4.452,-4.5673,-4.5732,-4.5887,-4.6199,-4.6199,-4.6628,-4.7482,-4.8035,-4.8693,-4.9479,-5.0256,-5.0617,-5.057,-5.0801,-5.0833,-5.0701,-5.0756,-5.0596,-5.0336,-5.0383,-5.0328,-5.0202,-5.0139,-5.0089,-5.0152,-5.0578,-5.0372,-4.9912,-4.9912,-4.9973,-5.0063,-4.9933,-5.0038,-5.0175,-5.0038,-5.0156,-5.0336,-5.0339,-4.9981,-4.9439,-4.8713,-4.8384,-4.8003,-4.7062,-4.6797,-4.6695,-4.6472,-4.5916,-4.5495,-4.5577,-4.5522,-4.5399,-4.5173,-4.4432,-4.397,-4.4259,-4.3355,-4.2431,-4.1865,-4.1527,-4.1123,-4.0554,-4.0496,-4.0534,-4.0615,-4.0748,-4.0859,-4.0929,-4.0997,-4.1039,-4.1108,-4.1109,-4.1246,-4.1557,-4.1265,-4.1246,-4.1557,-4.1246,-4.1109,-4.1109,-4.1106,-4.1093]},{"header":{"parameterUnit":"m.s-1","parameterCategory":1,"la1":30.6,"la2":29.2853,"lo1":-89.7004,"lo2":-87.6739,"dy":0.0162,"dx":0.0183,"nx":112,"ny":82,"refTime":"2023-04-11T18:00:00:Z","depth":0,"parameterNumber":3,"parameterNumberName":"V-component_of_WINDS"},"data":[0.0,0.0,0.0,0.0,0.0,0.0,0.0,0.0,0.0,0.0,0.0,0.0,0.0,0.0,0.0,0.0,0.0,0.0,0.0,0.0,0.0,0.0,0.0,0.0,0.0,0.0,0.0,0.0,0.0,0.0,0.0,0.0,0.0,0.0,0.0,0.0,0.0,0.0,0.0,0.0,0.0,0.0,0.0,0.0,0.0,0.0,0.0,0.0,0.0,0.0,0.0,0.0,0.0,0.0,0.0,0.0,0.0,0.0,0.0,0.0,0.0,0.0,0.0,0.0,0.0,0.0,0.0,0.0,0.0,0.0,0.0,0.0,0.0,0.0,0.0,0.0,0.0,0.0,0.0,0.0,0.0,0.0,0.0,0.0,0.0,0.0,0.0,0.0,0.0,0.0,-0.4304,-0.4318,-0.4308,-0.4336,-0.4382,-0.4441,-0.4433,-0.43,0.0,0.0,0.0,0.0,0.0,0.0,0.0,0.0,0.0,0.0,0.0,0.0,0.0,0.0,0.0,0.0,0.0,0.0,0.0,0.0,0.0,0.0,0.0,0.0,0.0,0.0,0.0,0.0,0.0,0.0,0.0,0.0,0.0,0.0,0.0,0.0,0.0,0.0,0.0,0.0,0.0,0.0,0.0,0.0,0.0,0.0,0.0,0.0,0.0,0.0,0.0,0.0,0.0,0.0,0.0,0.0,0.0,0.0,0.0,0.0,0.0,0.0,0.0,0.0,0.0,0.0,0.0,0.0,0.0,0.0,0.0,0.0,0.0,0.0,0.0,0.0,0.0,0.0,0.0,0.0,0.0,0.0,0.0,0.0,0.0,0.0,0.0,0.0,0.0,0.0,0.0,0.0,0.0,0.0,0.0,0.0,0.0,0.0,0.0,0.0,0.0,0.0,0.0,0.0,-0.4328,-0.436,-0.4344,-0.4336,-0.4382,-0.4894,-0.4968,-0.4344,0.0,0.0,0.0,0.0,0.0,0.0,0.0,0.0,0.0,0.0,0.0,0.0,0.0,0.0,0.0,0.0,0.0,0.0,0.0,0.0,0.0,0.0,0.0,0.0,0.0,0.0,0.0,0.0,0.0,0.0,0.0,0.0,0.0,0.0,0.0,0.0,0.0,0.0,0.0,0.0,0.0,0.0,0.0,0.0,0.0,0.0,0.0,0.0,0.0,0.0,0.0,0.0,0.0,0.0,0.0,0.0,0.0,0.0,0.0,0.0,0.0,0.0,0.0,0.0,0.0,0.0,0.0,0.0,0.0,0.0,0.0,0.0,0.0,0.0,0.0,0.0,0.0,0.0,0.0,0.0,0.0,0.0,0.0,0.0,0.0,0.0,0.0,0.0,0.0,0.0,0.0,0.0,0.0,0.0,0.0,0.0,0.0,0.0,0.0,0.0,0.0,0.0,0.0,-0.4568,-0.468,-0.5609,-0.5247,-0.5134,-0.5658,-0.5828,-0.5636,-0.4924,-0.5193,0.0,0.0,0.0,0.0,0.0,0.0,0.0,0.0,0.0,0.0,0.0,0.0,0.0,0.0,0.0,0.0,0.0,0.0,0.0,0.0,0.0,0.0,0.0,0.0,0.0,0.0,0.0,0.0,0.0,0.0,0.0,0.0,0.0,0.0,0.0,0.0,0.0,0.0,0.0,0.0,0.0,0.0,0.0,0.0,0.0,0.0,0.0,0.0,0.0,0.0,0.0,0.0,0.0,0.0,0.0,0.0,0.0,0.0,0.0,0.0,0.0,0.0,0.0,0.0,0.0,0.0,0.0,0.0,0.0,0.0,0.0,0.0,0.0,0.0,0.0,0.0,0.0,0.0,0.0,0.0,0.0,0.0,0.0,0.0,0.0,0.0,0.0,0.0,0.0,0.0,0.0,0.0,0.0,0.0,0.0,0.0,0.0,0.0,0.0,0.0,0.0,0.0,-0.5151,-0.5439,-0.667,-0.6223,-0.6114,-0.6723,-0.6748,-0.6332,-0.5463,-0.5725,0.0,0.0,0.0,0.0,0.0,0.0,0.0,0.0,0.0,0.0,0.0,0.0,0.0,0.0,0.0,0.0,0.0,0.0,0.0,0.0,0.0,0.0,0.0,0.0,0.0,0.0,0.0,0.0,0.0,0.0,0.0,0.0,0.0,0.0,0.0,0.0,0.0,0.0,0.0,0.0,0.0,0.0,0.0,0.0,0.0,0.0,0.0,0.0,0.0,0.0,0.0,0.0,0.0,0.0,0.0,0.0,0.0,0.0,0.0,0.0,0.0,0.0,0.0,0.0,0.0,0.0,0.0,0.0,0.0,0.0,0.0,0.0,0.0,0.0,0.0,0.0,0.0,0.0,0.0,0.0,0.0,0.0,0.0,0.0,0.0,0.0,0.0,0.0,0.0,0.0,0.0,0.0,0.0,0.0,0.0,0.0,0.0,0.0,0.0,0.0,0.0,0.0,-0.6057,-0.6593,-0.6767,-0.6867,-0.6867,-0.6826,-0.7346,-0.7066,-0.551,-0.6609,0.0,0.0,0.0,0.0,0.0,0.0,0.0,0.0,0.0,0.0,0.0,0.0,0.0,0.0,0.0,0.0,0.0,0.0,0.0,0.0,0.0,0.0,0.0,0.0,0.0,0.0,0.0,0.0,0.0,0.0,0.0,0.0,0.0,0.0,0.0,0.0,0.0,0.0,0.0,0.0,0.0,0.0,0.0,0.0,0.0,0.0,0.0,0.0,0.0,0.0,0.0,0.0,0.0,0.0,0.0,0.0,0.0,0.0,0.0,0.0,0.0,0.0,0.0,0.0,0.0,0.0,0.0,0.0,0.0,0.0,0.0,0.0,0.0,0.0,0.0,0.0,0.0,0.0,0.0,0.0,0.0,0.0,0.0,0.0,0.0,0.0,0.0,0.0,0.0,0.0,0.0,0.0,0.0,0.0,0.0,0.0,0.0,0.0,0.0,0.0,0.0,0.0,-0.6758,-0.715,-0.8142,-0.7953,-0.7875,-0.8204,-0.8371,-0.793,-0.6792,0.0,0.0,0.0,0.0,0.0,0.0,0.0,0.0,0.0,0.0,0.0,0.0,0.0,0.0,0.0,0.0,0.0,0.0,0.0,0.0,0.0,0.0,0.0,0.0,0.0,0.0,0.0,0.0,0.0,0.0,0.0,0.0,0.0,0.0,0.0,0.0,0.0,0.0,0.0,0.0,0.0,0.0,0.0,0.0,0.0,0.0,0.0,0.0,0.0,0.0,0.0,0.0,0.0,0.0,0.0,0.0,0.0,0.0,0.0,0.0,0.0,0.0,0.0,0.0,0.0,0.0,0.0,0.0,0.0,0.0,0.0,0.0,0.0,0.0,0.0,0.0,0.0,0.0,0.0,0.0,0.0,0.0,0.0,0.0,0.0,0.0,0.0,0.0,0.0,0.0,0.0,0.0,0.0,0.0,0.0,0.0,0.0,0.0,0.0,0.0,0.0,0.0,-0.7445,-0.7534,-0.7912,-0.9003,-0.8821,-0.8768,-0.907,-0.8978,-0.8487,-0.7544,0.0,0.0,0.0,0.0,0.0,0.0,0.0,0.0,0.0,0.0,0.0,0.0,0.0,0.0,0.0,0.0,0.0,0.0,0.0,0.0,0.0,0.0,0.0,0.0,0.0,0.0,0.0,0.0,0.0,0.0,0.0,0.0,0.0,0.0,0.0,0.0,0.0,0.0,0.0,0.0,0.0,0.0,0.0,0.0,0.0,0.0,0.0,0.0,0.0,0.0,0.0,0.0,0.0,0.0,0.0,0.0,0.0,0.0,0.0,0.0,0.0,0.0,0.0,0.0,0.0,0.0,0.0,0.0,0.0,0.0,0.0,0.0,0.0,0.0,0.0,0.0,0.0,0.0,0.0,0.0,0.0,0.0,0.0,0.0,0.0,0.0,0.0,0.0,0.0,0.0,0.0,0.0,0.0,0.0,0.0,0.0,0.0,0.0,0.0,0.0,0.0,0.0,-0.7533,-0.8459,-0.9096,-0.91,-0.9417,-0.9482,-0.9129,-0.9096,-0.8662,0.0,0.0,0.0,0.0,0.0,0.0,0.0,0.0,0.0,0.0,0.0,0.0,0.0,0.0,0.0,0.0,0.0,0.0,0.0,0.0,0.0,0.0,0.0,0.0,0.0,0.0,0.0,0.0,0.0,0.0,0.0,0.0,0.0,0.0,0.0,0.0,0.0,0.0,0.0,0.0,0.0,0.0,0.0,0.0,0.0,0.0,0.0,0.0,0.0,0.0,0.0,0.0,0.0,0.0,0.0,0.0,0.0,0.0,0.0,0.0,0.0,0.0,0.0,0.0,0.0,0.0,0.0,0.0,0.0,0.0,0.0,0.0,0.0,0.0,0.0,0.0,0.0,0.0,0.0,0.0,0.0,0.0,0.0,0.0,0.0,0.0,0.0,0.0,0.0,0.0,0.0,0.0,0.0,0.0,0.0,0.0,0.0,0.0,0.0,0.0,0.0,0.0,0.0,-0.8409,-0.8812,-0.9145,-0.9314,-0.949,-0.9482,-0.9129,-0.9096,-0.885,-0.8316,0.0,0.0,0.0,0.0,0.0,0.0,0.0,0.0,0.0,0.0,0.0,0.0,0.0,0.0,0.0,0.0,0.0,0.0,0.0,0.0,0.0,0.0,0.0,0.0,0.0,0.0,0.0,0.0,0.0,0.0,0.0,0.0,0.0,0.0,0.0,0.0,0.0,0.0,0.0,0.0,0.0,0.0,0.0,0.0,0.0,0.0,0.0,0.0,0.0,0.0,0.0,0.0,0.0,0.0,0.0,0.0,0.0,0.0,0.0,0.0,0.0,0.0,0.0,0.0,0.0,0.0,0.0,0.0,0.0,0.0,0.0,0.0,0.0,0.0,0.0,0.0,0.0,0.0,0.0,0.0,0.0,0.0,0.0,0.0,0.0,0.0,0.0,0.0,0.0,0.0,0.0,0.0,0.0,0.0,0.0,0.0,0.0,0.0,0.0,0.0,0.0,0.0,-0.88,-0.8982,-0.9165,-0.9384,-0.9518,-0.951,-0.9222,-0.9137,-0.8974,-0.8686,0.0,0.0,0.0,0.0,0.0,0.0,0.0,0.0,0.0,0.0,0.0,0.0,0.0,0.0,0.0,0.0,0.0,0.0,0.0,0.0,0.0,0.0,0.0,0.0,0.0,0.0,0.0,0.0,0.0,0.0,0.0,0.0,0.0,0.0,0.0,0.0,0.0,0.0,0.0,0.0,0.0,0.0,0.0,0.0,0.0,0.0,0.0,0.0,0.0,0.0,0.0,0.0,0.0,0.0,0.0,0.0,0.0,0.0,0.0,0.0,0.0,0.0,0.0,0.0,0.0,0.0,0.0,0.0,0.0,0.0,0.0,0.0,0.0,0.0,0.0,0.0,0.0,0.0,0.0,0.0,0.0,0.0,0.0,0.0,0.0,0.0,0.0,0.0,0.0,0.0,0.0,0.0,0.0,0.0,0.0,0.0,0.0,0.0,0.0,0.0,0.0,0.0,-0.8824,-0.9007,-0.9185,-0.9408,-0.9531,-0.9555,-0.9416,-0.921,-0.9035,-0.8832,0.0,0.0,0.0,0.0,0.0,0.0,0.0,0.0,0.0,0.0,0.0,0.0,0.0,0.0,0.0,0.0,0.0,0.0,0.0,0.0,0.0,0.0,0.0,0.0,0.0,0.0,0.0,0.0,0.0,0.0,0.0,0.0,0.0,0.0,0.0,0.0,0.0,0.0,0.0,0.0,0.0,0.0,0.0,0.0,0.0,0.0,0.0,0.0,0.0,0.0,0.0,0.0,0.0,0.0,0.0,0.0,0.0,0.0,0.0,0.0,-0.3817,-0.4166,0.0,0.0,0.0,0.0,0.0,0.0,0.0,0.0,0.0,0.0,0.0,0.0,0.0,0.0,0.0,0.0,0.0,0.0,0.0,0.0,0.0,0.0,0.0,0.0,0.0,0.0,0.0,0.0,0.0,0.0,0.0,0.0,0.0,0.0,0.0,0.0,0.0,0.0,0.0,0.0,-0.9015,-0.9194,-0.9416,-0.9551,-0.9604,-0.9555,-0.9416,-0.9367,-0.9161,-0.884,-0.8787,0.0,0.0,0.0,0.0,0.0,0.0,0.0,0.0,0.0,0.0,0.0,0.0,0.0,0.0,0.0,0.0,0.0,0.0,0.0,0.0,0.0,0.0,0.0,0.0,0.0,0.0,0.0,0.0,0.0,0.0,0.0,0.0,0.0,0.0,0.0,0.0,0.0,0.0,0.0,0.0,0.0,0.0,0.0,0.0,0.0,0.0,0.0,0.0,0.0,0.0,0.0,0.0,0.0,0.0,0.0,0.0,0.0,0.0,0.0,-0.4051,-0.4336,0.0,0.0,0.0,0.0,0.0,0.0,0.0,0.0,0.0,0.0,0.0,0.0,0.0,0.0,0.0,0.0,0.0,0.0,0.0,0.0,0.0,0.0,0.0,0.0,0.0,0.0,0.0,0.0,0.0,0.0,0.0,0.0,0.0,0.0,0.0,0.0,0.0,0.0,0.0,0.0,-0.9185,-0.9347,-0.9473,-0.9608,-0.9579,-0.9592,-0.9494,-0.9453,-0.9322,-0.9088,-0.8917,0.0,0.0,0.0,0.0,0.0,0.0,0.0,0.0,0.0,0.0,0.0,0.0,0.0,0.0,0.0,0.0,0.0,0.0,0.0,0.0,0.0,0.0,0.0,0.0,0.0,0.0,0.0,0.0,0.0,0.0,0.0,0.0,0.0,0.0,0.0,0.0,0.0,0.0,0.0,0.0,0.0,0.0,0.0,0.0,0.0,0.0,0.0,0.0,0.0,0.0,0.0,0.0,0.0,-0.2021,-0.2123,-0.1888,-0.325,-0.3692,-0.3403,-0.4324,-0.4436,-0.404,-0.4301,0.0,0.0,0.0,0.0,0.0,0.0,0.0,0.0,0.0,0.0,0.0,0.0,0.0,0.0,0.0,0.0,0.0,0.0,0.0,0.0,0.0,0.0,-0.8869,-0.8869,-0.8986,-0.9019,-0.8767,0.0,0.0,0.0,0.0,0.0,0.0,0.0,0.0,0.0,0.0,0.0,-0.9363,-0.9457,-0.9555,-0.9657,-0.9673,-0.9673,-0.9673,-0.9506,-0.9437,-0.9404,-0.9076,-0.8885,0.0,0.0,0.0,0.0,0.0,0.0,0.0,0.0,0.0,0.0,0.0,0.0,0.0,0.0,0.0,0.0,0.0,0.0,0.0,0.0,0.0,0.0,0.0,0.0,0.0,0.0,0.0,0.0,0.0,0.0,0.0,0.0,-0.13,-0.1345,0.0,0.0,0.0,0.0,0.0,0.0,0.0,0.0,0.0,0.0,0.0,0.0,0.0,-0.1522,-0.1478,-0.1478,-0.1539,-0.1615,-0.2187,-0.2727,-0.318,-0.3909,-0.4463,-0.4827,-0.4984,0.0,-0.4524,-0.4559,0.0,0.0,0.0,0.0,0.0,0.0,0.0,0.0,0.0,0.0,0.0,0.0,0.0,0.0,0.0,0.0,0.0,0.0,0.0,0.0,0.0,0.0,-0.906,-0.906,-0.908,-0.9084,-0.9039,-0.9027,-0.9027,-0.9027,-0.9027,-0.9027,0.0,0.0,0.0,0.0,0.0,0.0,-0.9396,-0.9673,-0.9823,-0.9847,-0.9851,-0.9851,-0.9851,-0.9693,-0.9527,-0.9412,-0.9359,-0.9145,-0.8832,-0.88,0.0,0.0,0.0,0.0,0.0,0.0,0.0,0.0,0.0,0.0,0.0,0.0,0.0,0.0,0.0,0.0,0.0,0.0,0.0,0.0,0.0,0.0,0.0,0.0,0.0,0.0,0.0,0.0,0.0,-0.1391,-0.1391,-0.1391,-0.1391,-0.1397,0.0,0.0,0.0,0.0,0.0,0.0,0.0,0.0,0.0,-0.1551,-0.1568,-0.1593,-0.1626,-0.2003,-0.2188,-0.2278,-0.2937,-0.3389,-0.3631,-0.4206,-0.4602,-0.482,-0.5152,-0.5171,-0.5012,-0.4804,-0.472,-0.471,0.0,0.0,0.0,0.0,-0.4621,-0.4621,-0.4621,-0.4621,-0.4621,-0.4621,0.0,0.0,0.0,0.0,0.0,0.0,0.0,-0.912,-0.9218,-0.9319,-0.9421,-0.9518,-0.962,-0.9697,-0.9697,-0.9697,-0.9575,-0.9177,-0.9096,-0.9096,-0.9096,-0.9096,0.0,0.0,0.0,-0.9543,-0.969,-0.9931,-1.0094,-1.0094,-1.0094,-0.9998,-0.9892,-0.9815,-0.9697,-0.9518,-0.9461,-0.9331,-0.9129,-0.8926,-0.8783,0.0,0.0,0.0,0.0,0.0,0.0,0.0,0.0,0.0,0.0,0.0,0.0,0.0,0.0,0.0,0.0,0.0,0.0,0.0,0.0,0.0,0.0,0.0,0.0,0.0,0.0,0.0,0.0,-0.1307,-0.1446,-0.1446,-0.1408,-0.1468,0.0,0.0,0.0,0.0,0.0,0.0,-0.1549,-0.1549,-0.157,-0.1666,-0.1639,-0.178,-0.1996,-0.246,-0.2824,-0.3081,-0.3715,-0.4005,-0.4062,-0.4586,-0.4878,-0.4878,-0.5277,-0.5449,-0.5422,-0.5027,-0.4887,-0.4873,-0.4769,-0.4708,-0.4708,-0.4708,-0.4708,-0.4708,-0.4708,-0.4708,-0.4708,-0.4708,-0.4984,-0.549,-0.6277,0.0,0.0,0.0,0.0,-0.9401,-0.9575,-0.9661,-0.9795,-0.9925,-1.0114,-1.0212,-1.0212,-1.0212,-1.0057,-0.9474,-0.9368,-0.9368,-0.9368,-0.9368,0.0,-0.9592,-0.9677,-0.9811,-0.9941,-1.0115,-1.0233,-1.0233,-1.0233,-1.0176,-1.0038,-0.9941,-0.9827,-0.9701,-0.9527,-0.9453,-0.9404,-0.9096,-0.8913,-0.8824,0.0,0.0,0.0,0.0,0.0,0.0,0.0,0.0,0.0,0.0,0.0,0.0,0.0,0.0,0.0,0.0,0.0,0.0,0.0,0.0,0.0,0.0,0.0,0.0,0.0,0.0,0.0,0.0,0.0,-0.1478,-0.1504,0.0,0.0,0.0,0.0,-0.1478,-0.1478,-0.1551,-0.1609,-0.1612,-0.1652,-0.1792,-0.1797,-0.2087,-0.2738,-0.2796,-0.3135,-0.3757,-0.4383,-0.4645,-0.4648,-0.5302,-0.557,-0.557,-0.5572,-0.5572,-0.555,-0.5281,-0.5168,-0.516,-0.5118,-0.5081,-0.5081,-0.5081,-0.5081,-0.5081,-0.5081,-0.5081,-0.5081,-0.5081,-0.6056,-0.7426,-0.8204,-0.9114,0.0,0.0,-0.9973,-1.0163,-1.0171,-1.018,-1.0188,-1.02,-1.0208,-1.0212,-1.0212,-1.0212,-1.0204,-1.0167,-1.0159,-1.0159,-1.0159,0.0,-1.0163,-1.0171,-1.0184,-1.0192,-1.02,-1.031,-1.0366,-1.0366,-1.0366,-1.0366,-1.0354,-1.0087,-0.988,-0.9872,-0.9709,-0.9535,-0.9408,-0.9384,-0.9169,-0.8828,-0.8812,0.0,0.0,0.0,0.0,0.0,0.0,0.0,0.0,0.0,0.0,0.0,0.0,0.0,0.0,0.0,0.0,0.0,0.0,0.0,0.0,0.0,0.0,0.0,0.0,0.0,0.0,0.0,0.0,-0.1508,-0.1519,0.0,-0.1581,-0.1584,-0.16,-0.1638,-0.1659,-0.168,-0.1701,-0.1721,-0.1746,-0.1778,-0.2246,-0.2561,-0.2834,-0.3272,-0.3836,-0.453,-0.4735,-0.5049,-0.5474,-0.5684,-0.5818,-0.5818,-0.5818,-0.5818,-0.5808,-0.5653,-0.552,-0.5406,-0.5318,-0.5284,-0.5284,-0.5284,-0.5284,-0.5284,-0.5284,-0.5245,-0.5132,-0.5126,-0.6188,-0.7602,-0.7869,-0.8976,-1.0114,-1.0114,-1.0163,-1.0241,-1.0306,-1.0339,-1.0367,-1.0477,-1.0501,-1.0501,-1.0501,-1.0501,-1.0501,-1.0501,-1.0371,-1.0212,-1.0212,-1.0212,-1.0212,-1.0212,-1.0262,-1.0339,-1.0339,-1.0493,-1.0599,-1.0599,-1.0599,-1.0554,-1.0391,-1.0314,-1.0136,-0.99,-0.9827,-0.9713,-0.9539,-0.9465,-0.9343,-0.9165,-0.9524,-0.9678,0.0,0.0,0.0,0.0,0.0,0.0,0.0,0.0,0.0,0.0,0.0,0.0,0.0,0.0,0.0,0.0,0.0,0.0,0.0,0.0,0.0,0.0,0.0,0.0,0.0,-0.1358,-0.1523,-0.1553,-0.1574,-0.1606,-0.1656,-0.1671,-0.1693,-0.1732,-0.1753,-0.1825,-0.178,-0.2024,-0.2047,-0.184,-0.2497,-0.2942,-0.3229,-0.3664,-0.4296,-0.5194,-0.5166,-0.5413,-0.5872,-0.5872,-0.5888,-0.5916,-0.5916,-0.5916,-0.5912,-0.5853,-0.5755,-0.5633,-0.5516,-0.5469,-0.5469,-0.5469,-0.5469,-0.5469,-0.5469,-0.5431,-0.5369,-0.5638,-0.6488,-0.7468,-0.7741,-0.8669,-0.9649,-0.9977,-1.0089,-1.0171,-1.0558,-1.0645,-1.0673,-1.0846,-1.0871,-1.0871,-1.0871,-1.0826,-1.0785,-1.0785,-1.0546,-1.0392,-1.0392,-1.0392,-1.0392,-1.0392,-1.0444,-1.0521,-1.0521,-1.0623,-1.0692,-1.0692,-1.0692,-1.0643,-1.053,-1.0415,-1.0331,-1.0087,-0.9953,-0.9835,-0.9721,-0.9877,-0.9987,-0.9927,-1.0527,-1.081,-1.0686,0.0,0.0,0.0,0.0,0.0,0.0,0.0,0.0,0.0,0.0,0.0,0.0,0.0,0.0,0.0,0.0,0.0,0.0,0.0,0.0,0.0,0.0,0.0,-0.0417,-0.1104,-0.1585,-0.1617,-0.1672,-0.1719,-0.1804,-0.1779,-0.1797,-0.1797,-0.1799,-0.1812,-0.1784,-0.2419,-0.2512,-0.193,-0.2532,-0.3215,-0.3876,-0.3818,-0.4452,-0.5776,-0.5627,-0.5633,-0.5782,-0.5782,-0.5831,-0.5916,-0.5916,-0.5916,-0.5916,-0.5916,-0.5916,-0.59,-0.5661,-0.5592,-0.5592,-0.5592,-0.5592,-0.5592,-0.559,-0.5588,-0.5764,-0.6635,-0.6983,-0.7161,-0.8032,-0.8264,-0.8497,-0.949,-0.9783,-1.0012,-1.0932,-1.1224,-1.1224,-1.1224,-1.1224,-1.1224,-1.1224,-1.1094,-1.1033,-1.1033,-1.0834,-1.0704,-1.0692,-1.0692,-1.0692,-1.0692,-1.0692,0.0,-1.0692,-1.0692,-1.0692,-1.0692,-1.0692,-1.0692,-1.0692,-1.0542,-1.0387,-1.0383,-1.0099,-0.9947,-0.9935,-1.0749,-1.1133,-1.0972,-1.1832,-1.2055,-1.1721,0.0,0.0,0.0,0.0,0.0,0.0,0.0,0.0,0.0,0.0,0.0,0.0,0.0,0.0,0.0,0.0,0.0,0.0,0.0,0.0,0.0,-0.0912,-0.1283,-0.1283,-0.1512,-0.1708,-0.176,-0.1747,-0.1782,-0.1812,-0.1823,-0.1837,-0.1859,-0.1881,-0.1897,-0.1846,-0.2108,-0.2118,-0.1931,-0.2532,-0.3184,-0.3818,-0.3801,-0.4442,-0.5623,-0.5185,-0.5219,-0.5782,-0.5782,-0.5831,-0.5916,-0.5916,-0.5916,-0.5916,-0.5916,-0.5916,-0.5912,-0.5861,-0.5843,-0.5843,-0.5843,-0.5843,-0.5833,-0.5765,-0.5743,-0.5792,-0.5957,-0.646,-0.7041,-0.7275,-0.7799,-0.8497,-0.949,-0.9783,-1.0012,-1.0932,-1.1224,-1.1224,-1.1224,-1.1224,-1.1224,-1.1224,-1.1187,-1.1151,-1.1151,-1.111,-1.0997,-1.0737,-1.0692,-1.0692,-1.0692,-1.0692,-1.0692,-1.0692,-1.0692,-1.0692,-1.0692,-1.0692,-1.0692,-1.0692,-1.0647,-1.0566,-1.0391,-1.0286,-1.0473,-1.0951,-1.1234,-1.1864,-1.2988,-1.324,-1.3594,0.0,0.0,0.0,0.0,0.0,0.0,0.0,0.0,0.0,0.0,0.0,0.0,0.0,0.0,0.0,0.0,0.0,0.0,0.0,0.0,0.0,0.0,-0.1302,-0.1662,-0.1688,-0.1696,-0.1775,-0.178,-0.1814,-0.1845,-0.1817,-0.189,-0.1904,-0.1922,-0.194,-0.1945,-0.1932,-0.2191,-0.2247,-0.1913,-0.2807,-0.3447,-0.377,-0.3976,-0.4601,-0.5528,-0.5148,-0.5251,-0.5725,-0.5725,-0.5794,-0.5916,-0.5916,-0.5916,-0.5916,-0.5916,-0.5916,-0.5916,0.0,0.0,0.0,0.0,-0.5916,-0.591,-0.5857,-0.5837,-0.5829,-0.5776,-0.6116,-0.6531,-0.6531,-0.6889,-0.76,-0.8962,-0.938,-0.9676,-1.1099,-1.1455,-1.1455,-1.1455,-1.1455,-1.1455,-1.1455,-1.1395,-1.1338,-1.1338,-1.1277,0.0,-1.0952,-1.0915,-1.0915,-1.0915,-1.0915,-1.0891,-1.0818,-1.0806,-1.0777,-1.07,-1.0692,-1.0692,-1.0692,-1.0692,0.0,0.0,0.0,-1.0897,-1.2008,-1.2089,0.0,0.0,0.0,-1.457,-1.4487,-1.4955,0.0,0.0,-1.3293,-1.3287,0.0,0.0,0.0,0.0,0.0,0.0,0.0,0.0,0.0,0.0,0.0,0.0,0.0,0.0,0.0,0.0,-0.1571,-0.1681,-0.1628,-0.1617,-0.1622,-0.1613,-0.1701,-0.1727,-0.1752,-0.1776,-0.1851,-0.1972,-0.1971,-0.1958,-0.1928,-0.2466,0.0,0.0,0.0,-0.3755,-0.3865,-0.4269,-0.4813,-0.5506,-0.5433,-0.5488,-0.56,-0.56,-0.5753,-0.5916,-0.5916,-0.5916,-0.5916,-0.5916,-0.5916,-0.5916,-0.5916,-0.5916,-0.5916,-0.5916,-0.5916,-0.5916,-0.5916,0.0,0.0,-0.5916,-0.5916,-0.5916,-0.5916,-0.5916,-0.6283,-0.8108,-0.8714,-0.9265,-1.1163,-1.1716,-1.1776,-1.1776,-1.1776,-1.1776,-1.1776,-1.1646,-1.1533,-1.1533,-1.1399,-1.1285,-1.1285,-1.1248,-1.1224,-1.1224,-1.1224,-1.1167,-1.1017,-1.1001,-1.0936,-1.0769,-1.0733,0.0,-1.0724,-1.0704,-1.0692,-1.0692,-1.0638,-1.1278,-1.2838,-1.3102,-1.3578,-1.434,-1.5367,-1.5266,-1.4101,-1.4981,-1.5311,-1.5102,-1.5476,-1.562,0.0,0.0,0.0,0.0,0.0,0.0,0.0,0.0,0.0,0.0,0.0,0.0,0.0,0.0,0.0,-0.0472,-0.1195,-0.1517,-0.0755,-0.0647,-0.0652,-0.0656,-0.0726,-0.0795,-0.0798,-0.08,-0.1105,-0.1881,-0.194,-0.1926,-0.1896,-0.2013,-0.2231,-0.2541,-0.277,-0.3383,-0.4355,-0.4453,-0.4814,-0.5508,-0.549,0.0,-0.5755,-0.5755,-0.5814,-0.5916,-0.5916,-0.5916,-0.5916,-0.5916,-0.5916,-0.5916,-0.5916,-0.5916,-0.5916,-0.5916,-0.5916,-0.5916,-0.5916,-0.5916,-0.5916,-0.5916,-0.5916,-0.5916,-0.5916,-0.5916,0.0,-0.7314,-0.8227,-0.9079,-1.0304,-1.1163,-1.1776,-1.1776,-1.1776,-1.1776,-1.1776,-1.1748,-1.1723,-1.1723,-1.1695,-1.1671,-1.1671,-1.1419,-1.1224,-1.1224,-1.1224,-1.1208,-1.1179,-1.1175,-1.1159,-1.1122,-1.0997,-1.0915,-1.0915,-1.0777,-1.0692,-1.0692,-1.1321,-1.1866,-1.2202,-1.3726,-1.4666,-1.487,-1.5761,-1.6062,-1.5803,-1.5763,-1.5718,-1.5651,-1.5268,-1.5143,0.0,0.0,0.0,0.0,0.0,0.0,0.0,0.0,0.0,0.0,0.0,0.1167,0.0843,0.0,-0.0322,0.0273,-0.0453,-0.076,0.0178,-0.0121,-0.0427,-0.0427,-0.0491,-0.0493,-0.0493,-0.0919,-0.1398,-0.1872,-0.1917,-0.1895,-0.1865,-0.1863,-0.2137,-0.2669,-0.3008,-0.3574,-0.4537,-0.4876,-0.5201,-0.5576,-0.5576,-0.5649,-0.5782,-0.5782,-0.5831,-0.5916,-0.5916,-0.5916,-0.5916,-0.5916,-0.5916,-0.5916,-0.5916,-0.5916,-0.5916,-0.5916,-0.5916,-0.5916,-0.5916,-0.5916,-0.5916,-0.5916,-0.5916,-0.5916,-0.5916,-0.5916,-0.6099,-0.7131,-0.7739,-0.841,-0.9937,-1.0671,-1.1163,-1.1655,-1.1776,-1.1776,-1.1776,-1.1776,-1.1776,-1.1776,-1.1776,-1.1776,-1.1776,-1.1622,-1.15,-1.15,-1.15,-1.1464,-1.1374,-1.1362,-1.1325,-1.1232,-1.1147,-1.1094,-1.1094,-1.0932,-1.0789,-1.07,-1.1092,-1.1527,-1.1956,-1.3518,-1.4533,-1.4969,-1.6006,-1.6486,-1.6486,-1.6339,-1.6266,-1.6259,-1.6116,-1.596,0.0,0.0,0.0,0.0,0.0,0.0,0.0,0.2937,0.2822,0.2879,0.2278,0.1729,0.18,0.0648,0.0056,0.1136,0.047,0.0181,0.1149,0.0428,-0.0185,-0.0185,-0.037,-0.0492,-0.0491,-0.1154,-0.1685,-0.1854,-0.1891,-0.1866,-0.1784,-0.1783,-0.2118,-0.289,-0.3397,-0.3986,-0.4787,-0.5305,-0.558,-0.5611,-0.5611,-0.5718,-0.5806,-0.5806,-0.5847,-0.5916,-0.5916,-0.5916,-0.5916,-0.5916,-0.5916,-0.5916,-0.5916,-0.5916,-0.5916,-0.5916,-0.5916,-0.5916,-0.5916,-0.5916,-0.5916,-0.5916,-0.5916,-0.5916,-0.5916,-0.5916,-0.6039,-0.6888,-0.7253,-0.7739,-0.9326,-0.9876,-1.0243,-1.1285,-1.153,-1.153,-1.1776,-1.1776,-1.1776,-1.1776,-1.1776,-1.1776,-1.1776,-1.1776,-1.1776,-1.1776,-1.1776,-1.1723,-1.1573,-1.1553,-1.1496,-1.1346,-1.1297,-1.1261,-1.1224,-1.1098,-1.094,-1.0757,-1.0745,-1.1042,-1.1705,-1.3065,-1.4132,-1.4812,-1.61,-1.6794,-1.6794,-1.6734,-1.6707,-1.6707,-1.6914,-1.6903,0.292,0.292,0.2931,0.2982,0.2996,0.3011,0.0,0.2645,0.2204,0.2147,0.1579,0.1101,0.11,0.0949,0.1138,0.2197,0.1501,0.121,0.221,0.1478,0.0863,0.0863,0.0062,-0.0491,-0.0423,-0.0482,-0.0893,-0.1738,-0.179,-0.1786,-0.1783,-0.1783,-0.2371,-0.3631,-0.3749,-0.4336,-0.5453,-0.557,-0.5674,-0.5765,-0.5765,-0.5812,-0.5902,-0.5902,-0.5908,-0.5916,-0.5916,-0.5916,-0.5916,-0.5916,-0.5916,-0.5916,-0.5916,-0.5916,-0.5916,-0.5916,-0.5916,-0.5916,-0.5916,-0.5916,-0.5916,-0.5916,-0.5916,-0.5916,-0.5916,-0.5916,-0.5916,-0.6039,-0.6707,-0.7434,-0.7678,-0.8349,-0.9204,-1.0243,-1.049,-1.0736,-1.1595,-1.1776,-1.1776,-1.1776,-1.1776,-1.1776,-1.1776,-1.1776,-1.1776,-1.1776,-1.1776,-1.1768,-1.1748,-1.1744,-1.174,-1.1715,-1.1569,-1.1403,-1.1236,-1.1204,-1.1122,-1.1008,-1.0992,-1.091,-1.0832,-1.2916,-1.4083,-1.4217,-1.612,-1.7152,-1.7146,-1.6834,-1.6707,-1.6707,-1.6707,-1.6873,0.296,0.2969,0.2983,0.3043,0.3038,0.3079,0.314,0.2951,0.2802,0.2803,0.2219,0.1891,0.2397,0.1651,0.1456,0.3059,0.249,0.2019,0.2465,0.1665,0.0986,0.0986,0.0061,-0.0546,-0.0422,-0.0889,-0.1405,-0.1809,-0.1851,-0.1963,-0.2388,-0.2448,-0.3039,-0.4355,-0.4356,-0.4788,-0.5723,-0.5725,-0.5769,-0.5861,-0.5861,-0.588,-0.5916,-0.5916,-0.5916,-0.5916,-0.5916,-0.5916,-0.5916,-0.5916,-0.5916,-0.5916,-0.5916,-0.5916,-0.5916,-0.5916,-0.5916,-0.5916,-0.5916,-0.5916,-0.5916,-0.5916,-0.5916,-0.5916,-0.5916,-0.5916,-0.5916,-0.5916,-0.6221,-0.6646,-0.7253,-0.7678,-0.8227,-0.9204,-0.9876,-1.0425,-1.0857,-1.1409,-1.1776,-1.1776,-1.1776,-1.1776,-1.1776,-1.1776,-1.1776,-1.1776,-1.1776,-1.1776,-1.1776,-1.1776,-1.1776,-1.1776,-1.1707,-1.1585,-1.1399,-1.1382,-1.1309,-1.1126,-1.1025,-1.0936,-1.0854,-1.232,-1.3437,-1.4078,-1.5641,-1.6761,-1.7454,-1.7275,-1.7215,-1.7215,-1.7376,-1.7537,0.3014,0.3041,0.3023,0.3133,0.3144,0.3156,0.3216,0.3327,0.3383,0.3427,0.2992,0.2827,0.351,0.2606,0.2191,0.363,0.3123,0.2529,0.2529,0.1665,0.0985,0.098,0.0302,-0.012,-0.006,-0.088,-0.1568,-0.1872,-0.1861,-0.2157,-0.2842,-0.2903,-0.3501,-0.4766,-0.4827,-0.5154,-0.5818,-0.5818,-0.5853,-0.5916,-0.5916,-0.5916,-0.5916,-0.5916,-0.5916,-0.5916,-0.5916,-0.5916,-0.5916,-0.5916,-0.5916,-0.5916,-0.5916,-0.5916,-0.5916,-0.5916,-0.5916,-0.5916,-0.5916,-0.5916,-0.5916,-0.5916,-0.5916,-0.5916,-0.5916,-0.5916,-0.5916,-0.5916,-0.5916,-0.6039,-0.6766,-0.7008,-0.7253,-0.8166,-0.8961,-0.9633,-1.0183,-1.0857,-1.147,-1.1776,-1.1776,-1.1776,-1.1776,-1.1776,-1.1776,-1.1776,-1.1776,-1.1776,-1.1776,-1.1776,-1.1776,-1.1776,-1.1776,-1.1719,-1.1585,-1.1577,-1.1496,-1.1309,-1.1183,-1.1126,-1.0972,-1.193,-1.2856,-1.3599,-1.5108,-1.6293,-1.7153,-1.7477,-1.7582,-1.7582,-1.7799,-1.7911,0.3077,0.309,0.3099,0.316,0.3271,0.3332,0.3392,0.3451,0.3492,0.3493,0.3542,0.3621,0.3741,0.3766,0.3749,0.3867,0.3083,0.2529,0.2529,0.1665,0.0981,0.0906,0.0891,0.0883,0.0883,0.0,-0.0878,-0.1729,-0.1868,-0.2193,-0.2889,-0.2891,-0.3516,-0.4855,-0.4918,-0.523,-0.5912,-0.5912,-0.5914,-0.5916,-0.5916,-0.5916,-0.5916,-0.5916,-0.5916,-0.5916,-0.5916,-0.5916,-0.5916,-0.5916,-0.5916,-0.5916,-0.5916,-0.5916,-0.5916,-0.5916,-0.5916,-0.5916,-0.5916,-0.5916,-0.5916,-0.5916,-0.5916,-0.5916,-0.5916,-0.5916,-0.5916,-0.5916,-0.5916,-0.5916,-0.5916,-0.5916,-0.6221,-0.7192,-0.7495,-0.7983,-0.9876,-1.0304,-1.0611,-1.1595,-1.1776,-1.1776,-1.1776,-1.1776,-1.1776,-1.1776,-1.1776,-1.1776,-1.1776,-1.1776,-1.1776,-1.1776,-1.1776,-1.1776,-1.1768,-1.1768,-1.1691,-1.1504,-1.1488,-1.133,-1.0984,-1.2069,-1.263,-1.2472,-1.4728,-1.5914,-1.5968,-1.7041,-1.7582,-1.7582,-1.7635,-1.7747,0.2846,0.2885,0.2922,0.3013,0.3235,0.3443,0.3463,0.3514,0.3556,0.3556,0.3574,0.3624,0.3747,0.3829,0.363,0.307,0.3241,0.2977,0.1639,0.1684,0.185,0.1839,0.1829,0.1823,0.1882,0.1049,0.0117,-0.0829,-0.0298,-0.1023,-0.3422,-0.2996,-0.3554,-0.5483,-0.5546,-0.5669,-0.5916,-0.5916,-0.5916,-0.5916,-0.5916,-0.5916,-0.5916,-0.5916,-0.5916,-0.5916,-0.5916,-0.5916,-0.5916,-0.5916,-0.5916,-0.5916,-0.5916,-0.5916,-0.5916,-0.5916,-0.5916,-0.5916,-0.5916,-0.5916,-0.5916,-0.5916,-0.5916,-0.5916,-0.5916,-0.5916,-0.5916,-0.5916,-0.5916,-0.5916,-0.5916,-0.5916,-0.5978,-0.6344,-0.6888,-0.7739,-0.9022,-0.9815,-1.0611,-1.1591,-1.1776,-1.1776,-1.1776,-1.1776,-1.1776,-1.1776,-1.1776,-1.1776,-1.1776,-1.1776,-1.1776,-1.1776,-1.1776,-1.1776,-1.1776,-1.1776,-1.1748,-1.1687,-1.1569,-1.1447,-1.1325,-1.1544,-1.2003,-1.2579,-1.4106,-1.5227,-1.5914,-1.7041,-1.7582,-1.7582,-1.7582,-1.7635,0.2831,0.2882,0.2927,0.3154,0.3376,0.3529,0.3529,0.3559,0.3587,0.3587,0.3587,0.3619,0.3718,0.3519,0.3207,0.3046,0.2912,0.2531,0.1566,0.1961,0.2294,0.2294,0.2589,0.289,0.2907,0.241,0.1473,0.018,0.0545,-0.0183,-0.2586,-0.2709,-0.3448,-0.5112,-0.5669,-0.5916,-0.5916,-0.5916,-0.5916,-0.5916,-0.5916,-0.5916,-0.5916,-0.5916,-0.5916,-0.5916,-0.5916,-0.5916,-0.5916,-0.5916,-0.5916,-0.5916,-0.5916,-0.5916,-0.5916,-0.5916,-0.5916,-0.5916,-0.5916,-0.5916,-0.5916,-0.5916,-0.5916,-0.5916,-0.5916,-0.5916,-0.5855,-0.5607,-0.573,-0.5855,-0.5607,-0.573,-0.5855,-0.5607,-0.6031,-0.67,-0.7431,-0.8471,-0.9569,-1.0543,-1.1095,-1.1466,-1.1466,-1.1526,-1.1647,-1.1647,-1.1712,-1.1776,-1.1776,-1.1776,-1.1776,-1.1776,-1.1776,-1.1776,-1.1776,-1.1776,-1.1776,-1.1776,-1.1663,-1.1569,-1.15,-1.1382,-1.1578,-1.2124,-1.3218,-1.4318,-1.5354,-1.6443,-1.7206,-1.7582,-1.7582,-1.7582,0.2846,0.2987,0.3174,0.3392,0.3545,0.3587,0.3587,0.3587,0.3587,0.3587,0.3587,0.3606,0.3668,0.2909,0.2659,0.3669,0.2226,0.1322,0.2286,0.2374,0.2351,0.2351,0.3238,0.3856,0.3914,0.3923,0.3138,0.1267,0.0856,0.0308,-0.0431,-0.1971,-0.3078,-0.3753,-0.5111,-0.5794,-0.5794,-0.5855,-0.5916,-0.5916,-0.5916,-0.5916,-0.5916,-0.5916,-0.5916,-0.5916,-0.5916,-0.5916,-0.5916,-0.5916,-0.5916,-0.5916,-0.5916,-0.5916,-0.5916,-0.5916,-0.5916,-0.5916,-0.5855,-0.5855,-0.5855,-0.5855,-0.5855,-0.5794,-0.5794,-0.5794,-0.5671,-0.5051,-0.5298,-0.5671,-0.4988,-0.5298,-0.5607,-0.4988,-0.4865,-0.4925,-0.5289,-0.6392,-0.7614,-0.8581,-0.9866,-1.0789,-1.0789,-1.1031,-1.1273,-1.1273,-1.1526,-1.1776,-1.1776,-1.1776,-1.1776,-1.1776,-1.1776,-1.1776,-1.1776,-1.1776,-1.1776,-1.1776,-1.1776,-1.1699,-1.152,-1.1516,-1.1427,-1.124,-1.2194,-1.3254,-1.4332,-1.5408,-1.6465,-1.7529,-1.7582,-1.7582,0.2677,0.288,0.3127,0.3164,0.3408,0.3587,0.3587,0.3587,0.3587,0.3587,0.3587,0.3606,0.3668,0.294,0.2391,0.276,0.2303,0.2043,0.2304,0.292,0.3353,0.3353,0.3663,0.3903,0.3919,0.3901,0.3681,0.319,0.3077,0.1973,-0.037,-0.0185,-0.08,-0.2461,-0.3753,-0.443,-0.443,-0.5421,-0.5916,-0.5916,-0.5916,-0.5916,-0.5916,-0.5916,-0.5916,-0.5916,-0.5916,-0.5916,-0.5916,-0.5916,-0.5916,-0.5916,-0.5916,-0.5916,-0.5916,-0.5916,-0.5916,-0.5855,-0.5297,-0.5174,-0.5174,-0.5174,-0.4805,-0.4436,-0.4436,-0.4436,-0.4375,-0.4189,-0.425,-0.4375,-0.4189,-0.4312,-0.4375,-0.4189,-0.4127,-0.4372,-0.5228,-0.5657,-0.651,-0.8395,-0.9866,-1.0789,-1.0789,-1.0849,-1.091,-1.091,-1.097,-1.122,-1.1716,-1.1776,-1.1776,-1.1776,-1.1776,-1.1776,-1.1776,-1.1776,-1.1776,-1.1776,-1.1776,-1.1756,-1.1707,-1.1707,-1.1618,-1.1435,-1.2534,-1.3103,-1.3124,-1.5096,-1.6168,-1.6346,-1.7206,-1.7582,0.2552,0.275,0.2994,0.3243,0.3475,0.3587,0.3587,0.3587,0.3579,0.3553,0.3548,0.3557,0.3593,0.2544,0.1952,0.2849,0.2278,0.1964,0.2818,0.3368,0.3688,0.3715,0.3862,0.3871,0.3897,0.3931,0.3889,0.3889,0.3642,0.2837,0.1356,0.0801,0.0123,-0.0862,-0.2338,-0.3076,-0.3076,-0.4926,-0.5298,-0.4187,-0.536,-0.5423,-0.4619,-0.5235,-0.5298,-0.4991,-0.4991,-0.4991,-0.4991,-0.4991,-0.4991,-0.4991,-0.4991,-0.4991,-0.4991,-0.4991,-0.4991,-0.4991,-0.4619,-0.4312,-0.4127,-0.4373,-0.4189,-0.3883,-0.3883,-0.3883,-0.3821,-0.3576,-0.3698,-0.3821,-0.3576,-0.3698,-0.3821,-0.3575,-0.3513,-0.3575,-0.382,-0.437,-0.5468,-0.7911,-0.9012,-0.969,-1.0243,-1.0486,-1.0607,-1.0607,-1.0728,-1.0914,-1.1281,-1.1466,-1.1647,-1.1776,-1.1776,-1.1776,-1.1776,-1.1776,-1.1776,-1.1776,-1.1776,-1.1776,-1.1776,-1.1776,-1.1727,-1.1622,-1.2183,-1.2606,-1.2894,-1.4049,-1.4817,-1.5275,-1.6342,-1.6829,0.2511,0.2664,0.2917,0.3475,0.3587,0.3587,0.3587,0.358,0.356,0.3507,0.3491,0.3485,0.3485,0.2099,0.1581,0.3494,0.2255,0.1729,0.3514,0.3711,0.37,0.382,0.3883,0.3884,0.3884,0.3889,0.3889,0.3828,0.3332,0.3146,0.3394,0.148,0.037,0.0431,-0.0985,-0.1847,-0.1969,-0.4249,-0.4249,-0.1969,-0.4249,-0.4433,-0.2771,-0.3877,-0.4063,-0.3511,-0.3511,-0.3511,-0.3511,-0.3635,-0.3697,-0.3697,-0.382,-0.3883,-0.3883,-0.3883,-0.3883,-0.3883,-0.3821,-0.3453,-0.3085,-0.3637,-0.3698,-0.3637,-0.3637,-0.3637,-0.3513,-0.3023,-0.3268,-0.3513,-0.3023,-0.3268,-0.3513,-0.3023,-0.2838,-0.2716,-0.2099,-0.302,-0.4611,-0.6938,-0.7673,-0.8224,-0.9329,-0.994,-1.0243,-1.0243,-1.0486,-1.0668,-1.0728,-1.1031,-1.1337,-1.1651,-1.1716,-1.1712,-1.1712,-1.1776,-1.1776,-1.1776,-1.1776,-1.1776,-1.1776,-1.1776,-1.1776,-1.1776,-1.1618,-1.1989,-1.2948,-1.2823,-1.3248,-1.4264,-1.5227,-1.5696,0.2603,0.2854,0.3138,0.3531,0.3587,0.3587,0.3587,0.3548,0.351,0.3499,0.3459,0.3427,0.3427,0.2607,0.2321,0.3439,0.2706,0.2377,0.3569,0.3685,0.37,0.382,0.3883,0.3884,0.3884,0.3889,0.3826,0.358,0.3455,0.3332,0.3085,0.2466,0.148,0.0123,-0.0185,-0.0862,-0.1969,-0.2462,-0.2339,-0.16,-0.2031,-0.1969,-0.1354,-0.16,-0.16,-0.1477,-0.1477,-0.1477,-0.1539,-0.2401,-0.2771,-0.2832,-0.3574,-0.3883,-0.3883,-0.3883,-0.3883,-0.3821,-0.333,-0.3085,-0.3023,-0.3146,-0.2776,-0.2346,-0.2346,-0.2346,-0.2285,-0.2223,-0.2223,-0.2285,-0.2223,-0.2223,-0.2285,-0.2223,-0.2161,-0.2161,-0.2038,-0.302,-0.4059,-0.4488,-0.6385,-0.798,-0.8163,-0.9143,-0.9879,-0.9879,-0.994,-1.0065,-1.0365,-1.0668,-1.091,-1.0974,-1.1216,-1.1398,-1.1398,-1.1647,-1.1776,-1.1776,-1.1776,-1.1776,-1.1776,-1.1776,-1.1776,-1.1776,-1.1744,-1.177,-1.1791,-1.2705,-1.3159,-1.3263,-1.4214,-1.4658,0.2558,0.2806,0.3027,0.3475,0.3587,0.3587,0.3587,0.3541,0.3488,0.3459,0.3406,0.3365,0.3365,0.2666,0.2449,0.3461,0.2801,0.2535,0.3555,0.3679,0.3689,0.3718,0.3863,0.3871,0.3901,0.3871,0.3765,0.3517,0.3332,0.3146,0.3023,0.2652,0.2036,0.1049,0.037,0.0,0.0062,-0.1293,-0.1231,0.0308,-0.0924,-0.0862,0.0308,-0.0246,-0.0308,0.0062,0.0062,0.0062,0.0,-0.0493,-0.0985,-0.1478,-0.1355,-0.1972,-0.2837,-0.2341,-0.2466,-0.29,-0.2592,-0.2469,-0.2469,-0.2469,-0.2285,-0.1977,-0.1977,-0.1977,-0.1977,-0.1977,-0.1977,-0.1977,-0.1977,-0.1977,-0.1977,-0.1977,-0.1977,-0.1977,-0.1977,-0.2468,-0.3081,-0.3753,-0.4918,-0.6263,-0.7673,-0.841,-0.9022,-0.9697,-0.9822,-0.9883,-1.0004,-1.0183,-1.0425,-1.0789,-1.097,-1.1031,-1.1031,-1.1337,-1.1522,-1.1522,-1.1712,-1.1776,-1.1776,-1.1776,-1.1776,-1.1776,-1.1776,-1.1732,-1.1646,-1.2128,-1.2264,-1.2226,-1.3216,-1.3673,0.2491,0.2686,0.2862,0.3477,0.3587,0.3583,0.3571,0.3522,0.3462,0.3405,0.3345,0.3301,0.3301,0.2783,0.2634,0.3424,0.2956,0.2758,0.3594,0.3658,0.3664,0.3677,0.3833,0.3906,0.3919,0.3916,0.3765,0.3394,0.3023,0.2776,0.2776,0.253,0.2284,0.2038,0.0987,0.0925,0.1977,-0.0062,0.0,0.2161,0.037,0.0369,0.1973,0.117,0.1109,0.1603,0.1603,0.1603,0.1603,0.1418,0.0863,0.0185,0.0801,0.0062,-0.1234,-0.0493,-0.0802,-0.1667,-0.1667,-0.1791,-0.1977,-0.1977,-0.1977,-0.1977,-0.1977,-0.1977,-0.1977,-0.1977,-0.1977,-0.1977,-0.1977,-0.1977,-0.1977,-0.1977,-0.1977,-0.1977,-0.1977,-0.1977,-0.2284,-0.3325,-0.3692,-0.4548,-0.6693,-0.7551,-0.8224,-0.9268,-0.9636,-0.9822,-0.9822,-0.9822,-1.0001,-1.0547,-1.0668,-1.0668,-1.0668,-1.097,-1.1212,-1.1273,-1.1522,-1.1712,-1.1776,-1.1776,-1.1776,-1.1776,-1.1776,-1.1776,-1.1776,-1.163,-1.1557,-1.1553,-1.2347,-1.2653,0.2454,0.2663,0.2862,0.3477,0.3587,0.3572,0.3518,0.3461,0.3402,0.3342,0.3282,0.3188,0.3188,0.323,0.3309,0.3427,0.3463,0.3477,0.3595,0.3595,0.3616,0.3672,0.3737,0.3859,0.3914,0.3916,0.3642,0.3085,0.247,0.2099,0.2099,0.2038,0.2038,0.1977,0.1853,0.1853,0.1977,0.1729,0.2037,0.29,0.2714,0.296,0.3703,0.3579,0.3579,0.3642,0.3642,0.3642,0.358,0.2714,0.2281,0.2158,0.1295,0.0863,0.074,0.0801,0.0247,-0.0616,-0.0616,-0.1234,-0.1977,-0.1977,-0.1977,-0.1977,-0.1977,-0.1977,-0.1977,-0.1977,-0.1977,-0.1977,-0.1977,-0.1977,-0.1977,-0.1977,-0.1977,-0.1977,-0.1977,-0.1977,-0.2038,-0.2161,-0.308,-0.3997,-0.4243,-0.6263,-0.7919,-0.8041,-0.9083,-0.9822,-0.9822,-0.9822,-0.9822,-0.9879,-1.0183,-1.0365,-1.0365,-1.0668,-1.097,-1.1273,-1.1333,-1.1462,-1.1776,-1.1776,-1.1776,-1.1776,-1.1776,-1.1776,-1.1776,-1.176,-1.1752,-1.1748,-1.1676,-1.1648,0.2497,0.2749,0.3047,0.3467,0.356,0.3526,0.3501,0.3424,0.335,0.3326,0.3221,0.318,0.318,0.33,0.3369,0.3406,0.348,0.3545,0.3582,0.3587,0.3597,0.3621,0.371,0.3838,0.3862,0.371,0.3455,0.3023,0.2591,0.2283,0.2283,0.2099,0.1977,0.1977,0.1977,0.1977,0.1977,0.2222,0.2406,0.2714,0.3085,0.3455,0.3642,0.3826,0.3889,0.3889,0.3889,0.3889,0.3889,0.3517,0.3023,0.2529,0.2652,0.2035,0.1048,0.1665,0.1295,0.0431,0.0431,-0.0247,-0.111,-0.111,-0.1481,-0.1977,-0.1977,-0.1977,-0.1977,-0.1977,-0.1977,-0.1977,-0.1977,-0.1977,-0.1977,-0.1977,-0.1977,-0.1977,-0.1977,-0.1977,-0.1977,-0.1977,-0.2406,-0.302,-0.3753,-0.5468,-0.6999,-0.7795,-0.8961,-0.9822,-0.9822,-0.9822,-0.9822,-0.9822,-0.9943,-1.0001,-1.0001,-1.0304,-1.0547,-1.0668,-1.091,-1.1152,-1.1462,-1.1522,-1.1587,-1.1776,-1.1776,-1.1776,-1.1776,-1.1776,-1.1776,-1.1776,-1.1699,-1.1667,0.2618,0.2812,0.3049,0.3416,0.3503,0.3467,0.3448,0.3382,0.3316,0.3298,0.3209,0.318,0.318,0.3281,0.3342,0.3402,0.3461,0.3523,0.3604,0.3598,0.3594,0.3612,0.3706,0.3829,0.3829,0.3637,0.3332,0.3023,0.2714,0.2467,0.2345,0.2222,0.2099,0.1977,0.1977,0.1977,0.1977,0.2222,0.2468,0.2652,0.3146,0.3455,0.3642,0.3826,0.3889,0.3889,0.3889,0.3889,0.3889,0.3889,0.3517,0.2961,0.3642,0.3085,0.1973,0.2652,0.2281,0.1418,0.1418,0.0801,-0.0062,-0.0062,-0.0555,-0.1173,-0.1481,-0.179,-0.1977,-0.1977,-0.1977,-0.1977,-0.1977,-0.1977,-0.1977,-0.1977,-0.1977,-0.1977,-0.1977,-0.1977,-0.1977,-0.1977,-0.1977,-0.2284,-0.3203,-0.4427,-0.5774,-0.7121,-0.841,-0.939,-0.9761,-0.9822,-0.9822,-0.9822,-0.9822,-0.9822,-0.9822,-1.0004,-1.0183,-1.0304,-1.0547,-1.0789,-1.1152,-1.1152,-1.1337,-1.1651,-1.1651,-1.1712,-1.1776,-1.1776,-1.1776,-1.1776,-1.1776,-1.1776,0.2738,0.2735,0.2718,0.3253,0.3414,0.3398,0.3337,0.3322,0.3305,0.3193,0.3181,0.318,0.318,0.3281,0.3342,0.3402,0.3461,0.354,0.3659,0.3625,0.3609,0.367,0.3732,0.3829,0.3829,0.3637,0.3332,0.3023,0.2714,0.2345,0.2038,0.2345,0.2345,0.2038,0.1977,0.1977,0.1977,0.1977,0.2346,0.3023,0.3023,0.3332,0.3889,0.3889,0.3889,0.3889,0.3889,0.3889,0.3889,0.3889,0.3889,0.3889,0.3889,0.3889,0.3889,0.3889,0.3271,0.2467,0.2467,0.1849,0.0986,0.0986,0.0986,0.0801,-0.0185,-0.1234,-0.1977,-0.1977,-0.1977,-0.1977,-0.1977,-0.1977,-0.1977,-0.1977,-0.1977,-0.1977,-0.1977,-0.1977,-0.1977,-0.1977,-0.1977,-0.1977,-0.2038,-0.3081,-0.4366,-0.5712,-0.706,-0.8346,-0.9636,-0.9822,-0.9822,-0.9822,-0.9822,-0.9822,-0.9822,-0.9822,-0.994,-1.0304,-1.0304,-1.0486,-1.0789,-1.0789,-1.097,-1.1273,-1.1333,-1.1462,-1.1776,-1.1776,-1.1776,-1.1776,-1.1776,-1.1776,0.2891,0.297,0.3149,0.3349,0.3382,0.3345,0.3326,0.3289,0.3203,0.3184,0.318,0.318,0.318,0.3196,0.3293,0.3395,0.3427,0.3495,0.3655,0.3625,0.3609,0.3672,0.3732,0.3726,0.3527,0.366,0.358,0.3023,0.29,0.2715,0.2345,0.2222,0.2222,0.2345,0.2591,0.2591,0.2345,0.2777,0.3024,0.3023,0.3394,0.3703,0.3889,0.3889,0.3889,0.3889,0.3889,0.3889,0.3889,0.3889,0.3889,0.3889,0.3889,0.3889,0.3889,0.3889,0.3703,0.3455,0.3455,0.2837,0.2035,0.2035,0.1541,0.0924,0.0616,-0.0185,-0.111,-0.1791,-0.1977,-0.1977,-0.1977,-0.1977,-0.1977,-0.1977,-0.1977,-0.1977,-0.1977,-0.1977,-0.1977,-0.1977,-0.1977,-0.1977,-0.1977,-0.308,-0.4366,-0.5712,-0.706,-0.8346,-0.9636,-0.9822,-0.9822,-0.9822,-0.9822,-0.9822,-0.9822,-0.9822,-0.9822,-0.994,-0.9943,-1.0122,-1.0425,-1.0486,-1.0728,-1.1273,-1.1273,-1.1462,-1.1776,-1.1776,-1.1776,-1.1776,-1.1776,-1.1776,0.3071,0.3081,0.3141,0.3282,0.3315,0.3288,0.3288,0.3207,0.318,0.318,0.318,0.318,0.318,0.318,0.3219,0.3392,0.3413,0.3482,0.3684,0.364,0.3609,0.3672,0.3732,0.3734,0.3612,0.367,0.358,0.3208,0.2945,0.269,0.2446,0.2372,0.2425,0.2606,0.2759,0.2775,0.2714,0.3085,0.3271,0.3208,0.358,0.3826,0.3889,0.3889,0.3889,0.3889,0.3889,0.3889,0.0,0.3889,0.3889,0.3889,0.3889,0.3889,0.3889,0.3889,0.3889,0.3889,0.3889,0.3517,0.3023,0.3023,0.2343,0.1541,0.1541,0.0863,-0.0123,-0.1172,-0.1419,-0.1543,-0.1914,-0.1977,-0.1977,-0.1977,-0.1977,-0.1977,-0.1977,-0.1977,-0.1977,-0.1977,-0.1977,-0.1977,-0.1977,-0.2652,-0.3633,-0.4918,-0.6263,-0.7612,-0.89,-0.9515,-0.9822,-0.9822,-0.9822,-0.9822,-0.9822,-0.9822,-0.9822,-0.9822,-0.9822,-0.9879,-1.0122,-1.0122,-1.0425,-1.1091,-1.1091,-1.1341,-1.1776,-1.1776,-1.1776,-1.1776,-1.1776,-1.1776,0.0,0.3027,0.2876,0.313,0.318,0.318,0.318,0.318,0.0,0.318,0.318,0.318,0.318,0.3184,0.3224,0.3394,0.3362,0.3499,0.373,0.3665,0.3613,0.3665,0.3726,0.3785,0.3842,0.3596,0.3506,0.3445,0.2791,0.2406,0.2406,0.267,0.2824,0.2824,0.2664,0.2706,0.3018,0.3021,0.3208,0.3517,0.3517,0.3642,0.3889,0.3889,0.3889,0.3889,0.3889,0.3889,0.3889,0.3889,0.3889,0.3889,0.3889,0.3889,0.3889,0.3889,0.3889,0.3889,0.3889,0.3889,0.3889,0.3889,0.3332,0.259,0.259,0.1849,0.0801,-0.0247,-0.0493,-0.074,-0.1729,-0.1977,-0.1977,-0.1977,-0.1977,-0.1977,-0.1977,-0.1977,-0.1977,-0.1977,-0.1977,-0.1977,-0.1977,-0.1977,-0.2406,-0.3692,-0.4977,-0.6263,-0.7734,-0.8961,-0.9697,-0.9761,-0.9822,-0.9822,-0.9822,-0.9822,-0.9822,-0.9822,-0.9822,-0.9822,-0.9822,-0.9822,-1.0122,-1.0728,-1.0789,-1.1099,-1.1776,-1.1776,-1.1776,-1.1776,-1.1776,-1.1776,0.318,0.0,0.313,0.318,0.318,0.318,0.0,0.318,0.318,0.318,0.318,0.318,0.318,0.3217,0.3324,0.3401,0.329,0.3311,0.3679,0.3674,0.3588,0.3272,0.3547,0.3531,0.3079,0.3244,0.3215,0.2976,0.2788,0.2722,0.2722,0.2772,0.2943,0.3178,0.3143,0.3173,0.3334,0.3559,0.3642,0.3517,0.3703,0.3826,0.3889,0.3889,0.3889,0.3889,0.3889,0.3889,0.3889,0.3889,0.3889,0.3889,0.3889,0.3889,0.3889,0.3889,0.3889,0.3889,0.3889,0.3889,0.3889,0.3889,0.3765,0.358,0.358,0.2343,0.0801,-0.0247,-0.0493,-0.074,-0.1729,-0.1977,-0.1977,-0.1977,-0.1977,-0.1977,-0.1977,-0.1977,-0.1977,-0.1977,-0.1977,-0.1977,-0.1977,-0.1977,-0.2406,-0.3692,-0.4182,-0.5223,-0.7612,-0.8163,-0.8714,-0.9697,-0.9822,-0.9822,-0.9822,-0.9822,-0.9822,-0.9822,-0.9822,-0.9822,-0.9822,-0.9822,-1.0001,-1.0425,-1.0668,-1.097,-1.1398,-1.1398,-1.1522,-1.1776,-1.1776,-1.1776,0.318,0.318,0.318,0.318,0.318,0.318,0.318,0.318,0.318,0.318,0.318,0.3188,0.3216,0.3298,0.335,0.3437,0.3262,0.3148,0.3229,0.3261,0.3255,0.3088,0.3298,0.339,0.3217,0.3266,0.3238,0.3061,0.2865,0.2796,0.2794,0.289,0.2993,0.3224,0.3364,0.3533,0.3618,0.3832,0.38,0.3703,0.3826,0.3889,0.3889,0.3889,0.3889,0.3889,0.3889,0.3889,0.3889,0.3889,0.3889,0.3889,0.3889,0.3889,0.3889,0.3889,0.3889,0.3889,0.3889,0.3889,0.3889,0.3889,0.3889,0.3889,0.3889,0.3146,0.2097,0.1171,0.0863,0.0555,-0.0925,-0.1296,-0.1419,-0.1914,-0.1977,-0.1977,-0.1977,-0.1977,-0.1977,-0.1977,-0.1977,-0.1977,-0.1977,-0.1977,-0.2222,-0.2897,-0.3509,-0.4427,-0.5896,-0.7121,-0.8163,-0.8839,-0.9454,-0.9822,-0.9822,-0.9822,-0.9822,-0.9822,-0.9822,-0.9822,-0.9822,-0.9822,-0.9943,-1.0304,-1.0607,-1.091,-1.1091,-1.1091,-1.1156,-1.1345,-1.1522,-1.1587,0.318,0.318,0.318,0.318,0.318,0.318,0.318,0.318,0.318,0.318,0.3188,0.3209,0.3312,0.3337,0.3382,0.348,0.3288,0.298,0.2688,0.2725,0.2846,0.2975,0.3064,0.3206,0.3379,0.3247,0.3156,0.3215,0.2888,0.275,0.2919,0.3106,0.3194,0.3194,0.3523,0.3718,0.3891,0.3902,0.3877,0.3875,0.3875,0.388,0.3889,0.3889,0.3889,0.3889,0.3889,0.3889,0.3889,0.3889,0.3889,0.3889,0.3889,0.3889,0.3889,0.3889,0.3889,0.3889,0.3889,0.3889,0.3889,0.3889,0.3889,0.3889,0.3889,0.3889,0.3703,0.2961,0.259,0.2097,0.0185,-0.037,-0.074,-0.1543,-0.1914,-0.1977,-0.1977,-0.1977,-0.1977,-0.1977,-0.1977,-0.1977,-0.1977,-0.1977,-0.1977,-0.1977,-0.2897,-0.3692,-0.3875,-0.608,-0.7673,-0.7856,-0.9022,-0.9822,-0.9822,-0.9822,-0.9822,-0.9822,-0.9822,-0.9822,-0.9822,-0.9822,-0.994,-1.0243,-1.0486,-1.0668,-1.0728,-1.0728,-1.0728,-1.0789,-1.1091,-1.1212,0.318,0.318,0.318,0.318,0.318,0.318,0.318,0.318,0.318,0.318,0.322,0.3311,0.332,0.3402,0.3476,0.3493,0.3263,0.2907,0.2355,0.253,0.2644,0.2356,0.2586,0.259,0.2139,0.2258,0.2487,0.277,0.2708,0.2929,0.3432,0.3479,0.3531,0.3531,0.3597,0.3635,0.3706,0.3816,0.3873,0.3873,0.3873,0.3901,0.3889,0.3889,0.3889,0.3889,0.3889,0.3889,0.3889,0.3889,0.3889,0.3889,0.3889,0.3889,0.3889,0.3889,0.3889,0.3889,0.3889,0.3889,0.3889,0.3889,0.3889,0.3889,0.3889,0.3889,0.3889,0.3703,0.3085,0.222,0.1048,0.0123,-0.0555,-0.0678,-0.1358,-0.1977,-0.1977,-0.1977,-0.1977,-0.1977,-0.1977,-0.1977,-0.1977,-0.1977,-0.1977,-0.1977,-0.2161,-0.2652,-0.3753,-0.5223,-0.6632,-0.7795,-0.9022,-0.9822,-0.9822,-0.9822,-0.9822,-0.9822,-0.9822,-0.9822,-0.9822,-0.9822,-0.9822,-0.9879,-0.994,-1.0061,-1.0365,-1.0365,-1.0547,-1.0789,-1.0849,-1.091,0.318,0.318,0.318,0.318,0.318,0.318,0.318,0.318,0.318,0.318,0.3228,0.3331,0.3365,0.344,0.3452,0.3319,0.3067,0.2747,0.2244,0.2188,0.2188,0.2188,0.2356,0.2413,0.23,0.2413,0.2469,0.2413,0.2748,0.2973,0.3085,0.3419,0.3587,0.3587,0.3587,0.3601,0.3628,0.3657,0.3718,0.387,0.387,0.3842,0.3902,0.3902,0.392,0.3889,0.3889,0.3889,0.3889,0.3889,0.3889,0.3889,0.3889,0.3889,0.3889,0.3889,0.3889,0.3889,0.3889,0.3889,0.3889,0.3889,0.3889,0.3889,0.3889,0.3889,0.3889,0.3889,0.358,0.3023,0.2035,0.148,0.0863,-0.0247,-0.0863,-0.1358,-0.1853,-0.1977,-0.1977,-0.1977,-0.1977,-0.1977,-0.1977,-0.1977,-0.1977,-0.1977,-0.1977,-0.2223,-0.2774,-0.3999,-0.5345,-0.6693,-0.798,-0.9022,-0.9761,-0.9822,-0.9822,-0.9822,-0.9822,-0.9822,-0.9822,-0.9822,-0.9822,-0.9822,-0.9822,-0.9879,-1.0001,-1.0001,-1.0122,-1.0243,-1.0425,-1.0547,0.318,0.318,0.318,0.318,0.318,0.318,0.318,0.318,0.3184,0.3197,0.33,0.3361,0.3421,0.3478,0.3423,0.3131,0.2861,0.2581,0.2244,0.1964,0.1851,0.2076,0.2132,0.2188,0.2469,0.2469,0.2469,0.23,0.2747,0.2971,0.2917,0.3365,0.3587,0.3587,0.3587,0.3587,0.3587,0.3587,0.3642,0.3748,0.3748,0.3838,0.3899,0.3914,0.3886,0.3931,0.3883,0.3889,0.3889,0.3889,0.3889,0.3889,0.3889,0.3889,0.3889,0.3889,0.3889,0.3889,0.3889,0.3889,0.3889,0.3889,0.3889,0.3889,0.3889,0.3889,0.3889,0.3889,0.3889,0.3703,0.3023,0.2652,0.2097,0.0555,0.0,-0.0431,-0.1419,-0.1667,-0.1729,-0.1977,-0.1977,-0.1977,-0.1977,-0.1977,-0.1977,-0.1977,-0.1977,-0.1977,-0.1977,-0.3142,-0.4304,-0.5345,-0.6938,-0.841,-0.9697,-0.9822,-0.9822,-0.9822,-0.9822,-0.9822,-0.9822,-0.9822,-0.9822,-0.9822,-0.9822,-0.9822,-0.9822,-0.9822,-0.9822,-0.9822,-1.0061,-1.0183,0.318,0.318,0.318,0.318,0.318,0.318,0.318,0.318,0.3196,0.3304,0.3364,0.3422,0.348,0.354,0.347,0.3137,0.2861,0.2581,0.2244,0.1964,0.1795,0.1851,0.1851,0.1851,0.1851,0.1851,0.2076,0.2637,0.2693,0.2974,0.3531,0.3587,0.3587,0.3587,0.3587,0.3587,0.3587,0.3587,0.362,0.3684,0.3684,0.3717,0.3837,0.3894,0.3923,0.3869,0.3927,0.3889,0.3889,0.3889,0.3889,0.3889,0.3889,0.3889,0.3889,0.3889,0.3889,0.3889,0.3889,0.3889,0.3889,0.3889,0.3889,0.3889,0.3889,0.3889,0.3889,0.3889,0.3889,0.3889,0.3826,0.3146,0.2467,0.2343,0.1541,0.0616,-0.037,-0.0616,-0.0863,-0.1791,-0.1977,-0.1977,-0.1977,-0.1977,-0.1977,-0.1977,-0.1977,-0.1977,-0.1977,-0.3142,-0.3937,-0.4059,-0.6385,-0.841,-0.9697,-0.9822,-0.9822,-0.9822,-0.9822,-0.9822,-0.9822,-0.9822,-0.9822,-0.9822,-0.9822,-0.9822,-0.9822,-0.9822,-0.9822,-0.9822,-0.9822,-0.9819,0.318,0.318,0.318,0.318,0.318,0.318,0.318,0.3209,0.3293,0.3316,0.3398,0.3482,0.3542,0.3572,0.3531,0.3418,0.3029,0.2637,0.2525,0.2076,0.1795,0.1795,0.1795,0.1795,0.1795,0.1795,0.1907,0.2132,0.23,0.258,0.3029,0.3195,0.3362,0.3587,0.3587,0.3587,0.3587,0.3587,0.3619,0.3677,0.364,0.3673,0.3829,0.3852,0.3845,0.3918,0.388,0.3889,0.3889,0.3889,0.3889,0.3889,0.3889,0.3889,0.3889,0.3889,0.3889,0.3889,0.3889,0.3889,0.3889,0.3889,0.3889,0.3889,0.3889,0.3889,0.3889,0.3889,0.3889,0.3889,0.3889,0.3642,0.3209,0.2652,0.222,0.148,-0.0123,-0.0493,-0.074,-0.1543,-0.1853,-0.1915,-0.1729,-0.1667,-0.1729,-0.1977,-0.1853,-0.1791,-0.1977,-0.2406,-0.302,-0.3815,-0.6324,-0.8102,-0.8593,-0.9329,-0.9822,-0.9822,-0.9822,-0.9822,-0.9822,-0.9822,-0.9822,-0.9822,-0.9822,-0.9822,-0.9822,-0.9822,-0.9822,-0.9822,-0.9822,-1.0243,0.3176,0.318,0.318,0.318,0.318,0.3185,0.3204,0.3292,0.3332,0.3369,0.3347,0.3427,0.3579,0.3531,0.3418,0.3418,0.3029,0.2637,0.2581,0.2132,0.1795,0.1795,0.1795,0.1795,0.1795,0.1795,0.1851,0.1908,0.2076,0.2356,0.2693,0.2971,0.3194,0.3418,0.3531,0.3587,0.3587,0.3606,0.3636,0.3679,0.3655,0.3688,0.3829,0.3848,0.3843,0.3922,0.3881,0.3879,0.3924,0.3881,0.3889,0.3889,0.3889,0.3889,0.3889,0.3889,0.3889,0.3889,0.3889,0.3889,0.3889,0.3889,0.3889,0.3889,0.3889,0.4073,0.4195,0.4195,0.4378,0.4501,0.4501,0.4378,0.4132,0.3697,0.3574,0.308,0.1416,0.0739,0.0246,-0.0555,-0.1234,-0.1606,-0.1359,-0.1359,-0.142,-0.1667,-0.1482,-0.142,-0.1667,-0.1667,-0.2159,-0.3509,-0.5284,-0.6754,-0.767,-0.8529,-0.9265,-0.9758,-0.9822,-0.9822,-0.9822,-0.9822,-0.9822,-0.9822,-0.9822,-0.9822,-0.9822,-0.9822,-0.9822,-0.9822,-0.9822,-1.0486,0.3164,0.318,0.318,0.318,0.318,0.3196,0.3308,0.3322,0.3356,0.3473,0.3267,0.3194,0.3531,0.3306,0.3081,0.3081,0.2861,0.2581,0.2244,0.1964,0.1795,0.1795,0.1795,0.1795,0.1795,0.1795,0.1907,0.2188,0.2188,0.2356,0.2693,0.2971,0.3081,0.3081,0.3418,0.3587,0.3589,0.3649,0.3679,0.3681,0.3741,0.3829,0.3831,0.3892,0.392,0.3924,0.3925,0.3917,0.3926,0.3925,0.3889,0.3888,0.3889,0.3889,0.3889,0.3889,0.3889,0.3889,0.3889,0.3889,0.3889,0.3889,0.3889,0.3889,0.3889,0.4376,0.4926,0.4926,0.5416,0.5906,0.5906,0.5416,0.5109,0.5722,0.5906,0.56,0.4616,0.3384,0.2216,0.1169,-0.0062,-0.0988,-0.0988,-0.0988,-0.0988,-0.0988,-0.0988,-0.0988,-0.0988,-0.0988,-0.1481,-0.2833,-0.3018,-0.4182,-0.7116,-0.736,-0.8097,-0.9697,-0.9761,-0.9822,-0.9822,-0.9822,-0.9822,-0.9822,-0.9822,-0.9822,-0.9822,-0.9822,-0.9822,-0.9822,-0.9822,-1.0486,0.3164,0.318,0.318,0.318,0.318,0.3207,0.3362,0.3386,0.3418,0.3537,0.3518,0.3475,0.3587,0.3531,0.3362,0.3137,0.2861,0.2581,0.2244,0.1964,0.1795,0.1795,0.1795,0.1795,0.1795,0.1795,0.1851,0.1908,0.1908,0.202,0.2356,0.2636,0.2915,0.3081,0.3418,0.3608,0.3651,0.3669,0.3722,0.3866,0.3884,0.3892,0.3894,0.3912,0.3883,0.3925,0.3881,0.3879,0.3925,0.3881,0.3925,0.3891,0.3872,0.3889,0.3889,0.3889,0.3889,0.3889,0.3889,0.3889,0.3889,0.3889,0.4195,0.4621,0.4621,0.5049,0.56,0.56,0.5722,0.6029,0.6458,0.6458,0.6215,0.5968,0.5906,0.56,0.4616,0.3384,0.2278,0.1477,0.0062,-0.0926,-0.0679,-0.0679,-0.0741,-0.0988,-0.0803,-0.0741,-0.0988,-0.0988,-0.1173,-0.1542,-0.2465,-0.3324,-0.4243,-0.6018,-0.7243,-0.7734,-0.8662,-0.9339,-0.9758,-0.9822,-0.9822,-0.9822,-0.9822,-0.9822,-0.9822,-0.9822,-0.9822,-0.9822,-0.9822,-1.0486,0.3157,0.318,0.318,0.318,0.318,0.3212,0.3384,0.3448,0.3501,0.3572,0.3419,0.3309,0.3531,0.3419,0.3197,0.2971,0.2805,0.2525,0.2076,0.1907,0.1795,0.1795,0.1795,0.1795,0.1795,0.1795,0.1795,0.1795,0.1795,0.1851,0.202,0.2469,0.2748,0.2915,0.3363,0.3617,0.3677,0.3702,0.3822,0.392,0.3884,0.3897,0.3897,0.3897,0.3916,0.3888,0.3925,0.3928,0.3887,0.3925,0.3907,0.3899,0.3875,0.3889,0.3889,0.3889,0.3889,0.3889,0.3889,0.3889,0.395,0.4195,0.4561,0.4926,0.5232,0.5784,0.6274,0.6274,0.646,0.6766,0.7194,0.7317,0.7194,0.6766,0.6705,0.6519,0.5904,0.4797,0.3569,0.2646,0.1232,0.0062,-0.0247,-0.0309,-0.037,-0.0556,-0.0432,-0.037,-0.0556,-0.0617,-0.0617,-0.0617,-0.1295,-0.2279,-0.3446,-0.4976,-0.6449,-0.7617,-0.8482,-0.9034,-0.9396,-0.9518,-0.9579,-0.9579,-0.9761,-0.9822,-0.9822,-0.9822,-0.9791,-0.9737,-0.9737,-1.0359,0.3191,0.3176,0.318,0.318,0.3188,0.3224,0.3387,0.3503,0.3587,0.3587,0.3141,0.2917,0.3475,0.3085,0.2693,0.2637,0.2637,0.2469,0.1907,0.1795,0.1795,0.1795,0.1795,0.1795,0.1795,0.1795,0.1795,0.1795,0.1795,0.1795,0.1795,0.2356,0.2693,0.2693,0.3314,0.3625,0.3685,0.3747,0.3867,0.393,0.3924,0.3889,0.3889,0.3889,0.3889,0.3887,0.3892,0.3897,0.3877,0.3888,0.3898,0.3881,0.3887,0.3889,0.3889,0.3889,0.3889,0.3889,0.395,0.4011,0.4071,0.4742,0.5049,0.517,0.5784,0.6458,0.7011,0.7011,0.7441,0.7872,0.7872,0.7872,0.7872,0.7872,0.7872,0.7872,0.7872,0.6827,0.5536,0.4306,0.2956,0.1603,0.037,0.0062,0.0,0.0,0.0,0.0,0.0,0.0,0.0,0.0,0.0,-0.1109,-0.3741,-0.423,-0.5513,-0.8265,-0.8633,-0.8757,-0.8757,-0.9083,-0.9271,-0.9255,-0.9559,-0.9674,-0.966,-0.966,-0.9593,-0.9529,-0.9529,-1.009,0.3139,0.3144,0.318,0.318,0.3303,0.338,0.3406,0.3503,0.3587,0.3587,0.3306,0.3026,0.3194,0.2915,0.2637,0.2356,0.23,0.2188,0.1851,0.1795,0.1795,0.1795,0.1795,0.1795,0.1795,0.1795,0.1795,0.1795,0.1795,0.1795,0.1795,0.2356,0.2693,0.2693,0.3351,0.3688,0.3749,0.3869,0.3871,0.3869,0.3883,0.3889,0.3889,0.3889,0.3889,0.3888,0.3875,0.3912,0.3883,0.3917,0.3912,0.3884,0.3871,0.3889,0.3889,0.3889,0.3889,0.395,0.4499,0.4682,0.4805,0.5479,0.6031,0.6521,0.6644,0.7133,0.7686,0.7686,0.7808,0.7872,0.7872,0.7872,0.7872,0.7872,0.7872,0.7872,0.7872,0.6827,0.5845,0.5536,0.3571,0.1911,0.1603,0.0679,0.0,0.0,0.0,0.0,0.0,0.0,0.0,0.0,0.0,-0.0246,-0.0909,-0.2779,-0.4206,-0.4869,-0.6702,-0.7774,-0.7774,-0.8561,-0.8924,-0.8812,-0.8872,-0.8875,-0.8765,-0.8765,-0.875,-0.8725,-0.8725,-0.8997,0.3115,0.3113,0.3144,0.3173,0.33,0.3376,0.3405,0.348,0.3496,0.3413,0.3139,0.2971,0.3082,0.2747,0.2413,0.2244,0.2188,0.2132,0.1851,0.1795,0.1795,0.1795,0.1795,0.1795,0.1795,0.1795,0.1795,0.1795,0.1795,0.1795,0.1795,0.2356,0.2704,0.2723,0.3375,0.3722,0.3872,0.3903,0.3891,0.3889,0.3889,0.3889,0.3889,0.3889,0.3889,0.3889,0.3889,0.3871,0.3906,0.3876,0.3871,0.3907,0.3876,0.3889,0.395,0.4255,0.4376,0.4499,0.5172,0.5354,0.5477,0.6151,0.6644,0.695,0.7255,0.7625,0.7872,0.7872,0.7872,0.7872,0.7872,0.7872,0.7872,0.7872,0.7872,0.7872,0.7872,0.7378,0.6644,0.6029,0.4307,0.271,0.2096,0.0864,0.0,0.0,0.0,0.0,0.0,0.0,0.0,0.0,0.0,-0.0243,-0.0895,-0.2202,-0.3437,-0.4643,-0.5931,-0.6869,-0.746,-0.7994,-0.8269,-0.8375,-0.8552,-0.8574,-0.85,-0.85,-0.8469,-0.8411,-0.8411,-0.8714,0.308,0.3075,0.3105,0.3165,0.3226,0.3335,0.3386,0.3448,0.3401,0.3171,0.2911,0.2748,0.2914,0.2523,0.2132,0.2132,0.2132,0.2076,0.1851,0.1795,0.1795,0.1795,0.1795,0.1795,0.1795,0.1795,0.1795,0.1795,0.1795,0.1795,0.1851,0.2419,0.2778,0.2871,0.3409,0.3816,0.392,0.3871,0.3901,0.3889,0.3889,0.3889,0.3889,0.3889,0.3889,0.3889,0.3889,0.3889,0.3889,0.3889,0.3889,0.3889,0.3889,0.395,0.4133,0.4682,0.4986,0.517,0.5845,0.609,0.6213,0.6827,0.7072,0.7194,0.7747,0.7872,0.7872,0.7872,0.7872,0.7872,0.7872,0.7872,0.7872,0.7872,0.7872,0.7872,0.7872,0.7872,0.7564,0.6458,0.4983,0.3507,0.2219,0.0864,0.0,0.0,0.0,0.0,0.0,0.0,0.0,0.0,0.0,-0.0477,-0.1584,-0.1874,-0.2864,-0.489,-0.5414,-0.6114,-0.7106,-0.734,-0.7572,-0.7858,-0.8168,-0.8283,-0.8259,-0.8259,-0.8205,-0.8103,-0.8103,-0.8601,0.3025,0.3059,0.3105,0.3165,0.3226,0.3323,0.3332,0.3418,0.3445,0.3181,0.2889,0.2637,0.2356,0.2075,0.1851,0.1851,0.1851,0.1851,0.1795,0.1795,0.1795,0.1795,0.1795,0.1795,0.1795,0.1795,0.1795,0.1795,0.1795,0.1907,0.2132,0.2558,0.2924,0.316,0.3604,0.3903,0.392,0.3913,0.3881,0.3889,0.3889,0.3889,0.3889,0.3889,0.3889,0.3889,0.3889,0.3889,0.3889,0.3889,0.3889,0.3889,0.3889,0.4255,0.4803,0.4865,0.5293,0.5845,0.6521,0.6766,0.6888,0.7564,0.7747,0.7808,0.7869,0.7872,0.7872,0.7872,0.7872,0.7872,0.7872,0.7872,0.7872,0.7872,0.7872,0.7872,0.7872,0.7872,0.7872,0.7686,0.5594,0.3507,0.2219,0.0864,0.0,0.0,0.0,0.0,0.0,0.0,0.0,0.0,0.0,-0.0059,-0.0231,-0.121,-0.1946,-0.2312,-0.4279,-0.5518,-0.5689,-0.6697,-0.7259,-0.7315,-0.742,-0.742,-0.7371,-0.7371,-0.7363,-0.7346,-0.7346,-0.7563,0.3037,0.3072,0.3105,0.3165,0.32,0.3279,0.3313,0.3361,0.3302,0.2904,0.2733,0.2552,0.2241,0.1964,0.1795,0.1795,0.1795,0.1795,0.1795,0.1795,0.1795,0.1795,0.1795,0.1795,0.1795,0.1795,0.1795,0.1795,0.1795,0.1851,0.1964,0.2506,0.2883,0.3027,0.3575,0.3876,0.391,0.3876,0.3889,0.3889,0.3889,0.3889,0.3889,0.3889,0.3889,0.3889,0.3889,0.3889,0.3889,0.3889,0.3889,0.3889,0.3889,0.4316,0.4926,0.5293,0.5906,0.658,0.7258,0.7441,0.7503,0.7808,0.7872,0.7872,0.7872,0.7872,0.7872,0.7872,0.7872,0.7872,0.7872,0.7872,0.7872,0.7872,0.7872,0.7872,0.7872,0.7872,0.7686,0.695,0.5843,0.4614,0.3263,0.1972,0.1107,0.1097,0.0487,0.0,0.0,0.0,0.0,0.0,0.0,0.0,0.0,-0.051,-0.1073,-0.1737,-0.2797,-0.3971,-0.5371,-0.5929,-0.6485,-0.721,-0.7206,-0.7206,-0.721,-0.721,-0.721,-0.721,-0.721,-0.7593,0.3044,0.3059,0.3112,0.3138,0.3157,0.3173,0.3285,0.3311,0.3178,0.2692,0.2576,0.2513,0.2167,0.1958,0.1795,0.1795,0.1795,0.1795,0.1795,0.1795,0.1795,0.1795,0.1795,0.1795,0.1795,0.1795,0.1795,0.1795,0.1795,0.1851,0.202,0.2506,0.2894,0.3118,0.3648,0.389,0.3888,0.3889,0.3889,0.3889,0.3889,0.3889,0.3889,0.3889,0.3889,0.3889,0.3889,0.3889,0.3889,0.3889,0.3889,0.3889,0.4071,0.4561,0.5232,0.5906,0.6582,0.7197,0.7747,0.7872,0.7872,0.7872,0.7872,0.7872,0.7872,0.7872,0.7872,0.7872,0.7872,0.7872,0.7872,0.7872,0.7872,0.7872,0.7872,0.7872,0.7872,0.7872,0.7625,0.6582,0.6154,0.5592,0.4528,0.3305,0.2316,0.1981,0.1078,0.0358,0.0059,0.0,0.0,0.0,0.0,0.0,0.0,0.0,-0.0392,-0.1288,-0.1623,-0.263,-0.4419,-0.5091,-0.5817,-0.6707,-0.7043,-0.721,-0.721,-0.721,-0.721,-0.721,-0.721,-0.7645,0.2993,0.3011,0.3043,0.3066,0.3095,0.3112,0.3171,0.323,0.3166,0.2597,0.2582,0.2414,0.191,0.1831,0.1795,0.1795,0.1795,0.1795,0.1795,0.1795,0.1795,0.1795,0.1795,0.1795,0.1795,0.1795,0.1795,0.1795,0.1795,0.2076,0.2637,0.2733,0.3067,0.3708,0.3828,0.389,0.3888,0.3889,0.3889,0.3889,0.3889,0.3889,0.3889,0.3889,0.3889,0.3889,0.3889,0.3889,0.3889,0.3889,0.3889,0.395,0.4621,0.5233,0.5906,0.6582,0.7255,0.7869,0.7872,0.7872,0.7872,0.7872,0.7872,0.7872,0.7872,0.7872,0.7872,0.7872,0.7872,0.7872,0.7872,0.7872,0.7872,0.7872,0.7872,0.7872,0.7872,0.7872,0.7869,0.7808,0.6766,0.5819,0.561,0.4572,0.3293,0.2007,0.1767,0.1288,0.0173,0.0,0.0,0.0,0.0,0.0,0.0,0.0,0.0,-0.0112,-0.1176,-0.1847,-0.1959,-0.4196,-0.5427,-0.5483,-0.6596,-0.721,-0.721,-0.721,-0.721,-0.721,-0.721,-0.721,0.2989,0.3004,0.3025,0.3061,0.2986,0.2854,0.2861,0.279,0.2612,0.2239,0.2224,0.2152,0.1797,0.1788,0.1828,0.1792,0.1795,0.1795,0.1795,0.1795,0.1795,0.1795,0.1795,0.1795,0.1795,0.1795,0.1795,0.1795,0.1795,0.1964,0.2356,0.262,0.2995,0.3419,0.3747,0.389,0.3888,0.3889,0.3889,0.3889,0.3889,0.3889,0.3889,0.3889,0.3889,0.3889,0.3889,0.3889,0.3889,0.3889,0.4133,0.4561,0.4803,0.56,0.658,0.6827,0.7319,0.7872,0.7872,0.7872,0.7872,0.7872,0.7872,0.7872,0.7872,0.7872,0.7872,0.7872,0.7872,0.7872,0.7872,0.7872,0.7872,0.7872,0.7872,0.7872,0.7872,0.7872,0.785,0.7777,0.7399,0.7,0.6889,0.5743,0.4708,0.4229,0.2834,0.167,0.119,0.0452,0.0,0.0,0.0,0.0,0.0,0.0,0.0,0.0,-0.0392,-0.1008,-0.1791,-0.2629,-0.3784,-0.5229,-0.5722,-0.6358,-0.721,-0.721,-0.721,-0.721,-0.721,-0.721,0.2965,0.2976,0.299,0.3051,0.2924,0.2796,0.2707,0.2587,0.2411,0.2047,0.2031,0.2009,0.1764,0.1747,0.1788,0.1774,0.178,0.1783,0.1793,0.1795,0.1795,0.1795,0.1795,0.1795,0.1795,0.1795,0.1795,0.1795,0.1795,0.1964,0.2356,0.2607,0.2971,0.3332,0.3718,0.3858,0.392,0.392,0.3931,0.3889,0.3889,0.3889,0.3889,0.3889,0.3889,0.3889,0.3889,0.3889,0.3889,0.4133,0.4499,0.4926,0.5416,0.609,0.695,0.7133,0.7503,0.7872,0.7872,0.8116,0.836,0.836,0.836,0.836,0.836,0.8175,0.7872,0.7872,0.7872,0.7872,0.7872,0.7872,0.7872,0.7872,0.7872,0.7861,0.7823,0.7815,0.7793,0.7717,0.7668,0.7603,0.7478,0.6696,0.5963,0.5524,0.3696,0.2267,0.185,0.0728,0.0,0.0,0.0,0.0,0.0,0.0,0.0,0.0,0.0,-0.0386,-0.1157,-0.1596,-0.2517,-0.4054,-0.4811,-0.5651,-0.6538,-0.6871,-0.7076,-0.7041,-0.7041,-0.7041,0.0,0.0,0.0,0.2987,0.3001,0.2925,0.2748,0.2704,0.2547,0.2109,0.1994,0.193,0.1758,0.1712,0.1732,0.1792,0.1802,0.1814,0.1788,0.1792,0.1793,0.1793,0.1793,0.1794,0.1795,0.1795,0.1795,0.1795,0.1795,0.2076,0.2637,0.2693,0.2996,0.3676,0.3736,0.3855,0.3917,0.392,0.389,0.3887,0.3888,0.3889,0.3889,0.3889,0.3889,0.3889,0.3889,0.3889,0.395,0.4621,0.4926,0.5109,0.6399,0.695,0.7072,0.7747,0.7994,0.7994,0.7994,0.8604,0.9335,0.9335,0.9339,0.9275,0.9275,0.8665,0.7872,0.7872,0.7872,0.7872,0.7872,0.7872,0.7869,0.7867,0.7867,0.7834,0.7722,0.7693,0.769,0.769,0.7595,0.7472,0.7293,0.7274,0.6894,0.5663,0.4419,0.3244,0.2014,0.0784,0.0056,0.0,0.0,0.0,0.0,0.0,0.0,0.0,0.0,0.0,0.0,-0.1118,-0.1754,-0.1806,-0.3981,-0.5147,-0.5197,-0.6268,-0.6813,-0.6803,-0.6798,-0.6795,0.298,0.0,0.0,0.0,0.0,0.0,0.2648,0.2343,0.2031,0.1966,0.1807,0.1686,0.1645,0.1614,0.1642,0.1733,0.1703,0.172,0.1728,0.1729,0.1737,0.1814,0.1817,0.1826,0.1793,0.1795,0.1795,0.1795,0.1795,0.1964,0.23,0.2747,0.322,0.3676,0.3695,0.3733,0.3854,0.3898,0.3928,0.3886,0.3929,0.3889,0.3889,0.3889,0.3889,0.3889,0.3889,0.4195,0.4621,0.4803,0.5477,0.6458,0.7497,0.8233,0.8723,0.9633,0.9997,0.9997,0.9997,1.0179,1.0365,1.0365,0.9879,0.9275,0.9275,0.8665,0.7872,0.7872,0.7872,0.7872,0.7872,0.7872,0.785,0.7769,0.7747,0.7717,0.7595,0.75,0.7437,0.7437,0.741,0.7347,0.7225,0.7203,0.7081,0.6768,0.5648,0.4455,0.3246,0.2033,0.0986,0.0108,0.0,0.0,0.0,0.0,0.0,0.0,0.0,0.0,0.0,-0.032,-0.0847,-0.1618,-0.2296,-0.3368,-0.4908,-0.619,-0.6781,-0.6786,-0.6824,-0.6792,0.3043,0.3,0.2954,0.2954,0.0,0.0,0.2553,0.2255,0.195,0.1879,0.1675,0.1556,0.1618,0.1586,0.1608,0.1639,0.1657,0.1676,0.1701,0.1704,0.1711,0.1729,0.1785,0.1737,0.1755,0.1757,0.1757,0.1757,0.1769,0.2004,0.2411,0.2859,0.3265,0.3639,0.364,0.367,0.373,0.3824,0.3869,0.3921,0.3895,0.3927,0.3889,0.3889,0.3889,0.3889,0.4195,0.4684,0.5354,0.6027,0.6519,0.7011,0.7805,0.8601,0.9396,0.9943,1.0425,1.0789,1.0789,1.1031,1.139,1.139,1.0967,1.0425,1.0061,0.9271,0.8421,0.7991,0.7872,0.7872,0.7872,0.7837,0.7782,0.7717,0.7663,0.7592,0.747,0.7328,0.728,0.728,0.7296,0.7239,0.7224,0.721,0.7193,0.7147,0.6088,0.506,0.427,0.2752,0.1453,0.0747,0.0267,0.0,0.0,0.0,0.0,0.0,0.0,0.0,0.0,0.0,-0.0311,-0.0923,-0.1383,-0.2645,-0.4826,-0.559,-0.6172,-0.6646,-0.6656,-0.6639,0.3106,0.3062,0.3014,0.3014,0.2971,0.0,0.2612,0.2372,0.2169,0.1891,0.1688,0.1529,0.1605,0.1613,0.1575,0.1603,0.1607,0.1627,0.1686,0.1695,0.1696,0.1699,0.1699,0.1701,0.1704,0.1704,0.1704,0.1704,0.1729,0.2033,0.2683,0.2908,0.3188,0.3587,0.3587,0.3613,0.3668,0.3674,0.3733,0.3899,0.3914,0.3888,0.388,0.407,0.4134,0.4195,0.4926,0.5659,0.6455,0.7861,0.7925,0.7255,0.805,0.8906,0.964,0.9761,1.0365,1.1091,1.1091,1.1696,1.2359,1.2359,1.2294,1.1993,1.1091,1.0122,0.9089,0.816,0.7853,0.7847,0.7837,0.7758,0.7679,0.7663,0.7578,0.7464,0.7342,0.7317,0.7312,0.7355,0.7276,0.7204,0.7193,0.7191,0.7152,0.6983,0.6091,0.5293,0.5041,0.3127,0.175,0.1642,0.0636,0.0,0.0104,0.0052,0.0051,0.0101,0.0101,0.0101,0.0101,0.0101,0.0101,0.0101,-0.0957,-0.2463,-0.4366,-0.4676,-0.5334,-0.6387,-0.6387,-0.6387,0.3219,0.3078,0.3079,0.3079,0.3033,0.0,0.2896,0.2641,0.2394,0.2167,0.1928,0.1678,0.1544,0.1519,0.1537,0.1543,0.1544,0.1565,0.1625,0.1634,0.1643,0.1719,0.1722,0.168,0.1702,0.1704,0.1704,0.1704,0.171,0.1996,0.2581,0.2693,0.2986,0.3586,0.3587,0.3593,0.3605,0.3654,0.3691,0.3714,0.3873,0.3927,0.3939,0.5023,0.5663,0.5965,0.7121,0.8158,0.9073,0.9377,0.9265,0.9028,1.0721,1.145,1.1752,1.2539,1.2964,1.3144,1.3144,1.3264,1.3389,1.3389,1.284,1.1993,1.1091,1.0122,0.907,0.8062,0.7733,0.7712,0.7614,0.757,0.7529,0.7429,0.7331,0.7396,0.7502,0.753,0.7554,0.7667,0.7433,0.718,0.7035,0.7018,0.6978,0.6855,0.6621,0.6102,0.5104,0.3846,0.2741,0.1991,0.0765,0.0153,0.061,0.0457,0.0406,0.0606,0.0657,0.0657,0.0657,0.0657,0.0657,0.0657,-0.0404,-0.116,-0.1563,-0.3768,-0.5372,-0.6387,-0.6387,-0.6387,0.3283,0.314,0.3094,0.3094,0.3095,0.0,0.0,0.2661,0.2319,0.2204,0.19,0.16,0.1524,0.1493,0.1508,0.1523,0.1478,0.1489,0.1567,0.1585,0.1606,0.1636,0.1639,0.1645,0.1659,0.166,0.1667,0.1682,0.1683,0.1962,0.2589,0.2591,0.2883,0.3541,0.3542,0.3556,0.3587,0.3617,0.3649,0.3679,0.374,0.3844,0.3877,0.49,0.572,0.6442,0.771,0.8891,0.9866,1.0657,1.0902,1.0785,1.1269,1.1812,1.2238,1.2779,1.3264,1.3688,1.3688,1.3688,1.3688,1.3688,1.3024,1.2037,1.0988,0.9596,0.828,0.7746,0.7611,0.7595,0.7535,0.7472,0.741,0.7518,0.7517,0.7514,0.773,0.7773,0.7704,0.7798,0.7573,0.7393,0.7333,0.7321,0.7278,0.7096,0.7076,0.6872,0.6182,0.5145,0.4114,0.3124,0.1914,0.111,0.0808,0.0657,0.0657,0.0808,0.0808,0.0808,0.0808,0.0808,0.0808,0.0808,0.0253,-0.0253,-0.0808,-0.2165,-0.3718,-0.542,-0.5522,-0.5877,0.3478,0.3245,0.3108,0.3108,0.3112,0.3101,0.0,0.0,0.0,0.2311,0.189,0.1533,0.1559,0.1518,0.148,0.1504,0.1461,0.1463,0.1517,0.1538,0.1565,0.1596,0.1599,0.1602,0.1607,0.1613,0.1627,0.1652,0.1705,0.1978,0.2542,0.265,0.2885,0.3478,0.3491,0.3521,0.357,0.3582,0.3612,0.3661,0.3673,0.3761,0.3988,0.4763,0.5807,0.6934,0.8291,0.9483,1.0561,1.1863,1.2427,1.2367,1.1619,1.1816,1.2479,1.2479,1.3024,1.3688,1.3688,1.3665,1.3632,1.3632,1.2824,1.1686,1.0827,0.9114,0.7513,0.7666,0.7599,0.7478,0.7453,0.7375,0.7358,0.7695,0.7676,0.7712,0.8014,0.7974,0.7879,0.788,0.7787,0.7716,0.7558,0.7555,0.751,0.7373,0.7352,0.7313,0.72,0.6279,0.5275,0.4475,0.3169,0.2116,0.1312,0.101,0.0909,0.096,0.096,0.096,0.096,0.096,0.096,0.096,0.0953,0.0501,-0.0354,-0.0401,-0.175,-0.4318,-0.4564,-0.528,0.4014,0.3575,0.3169,0.3169,0.3125,0.3079,0.3073,0.0,0.2819,0.2585,0.0,0.202,0.18,0.0,0.0,0.14,0.1401,0.141,0.1482,0.1489,0.1502,0.1532,0.1488,0.1547,0.1574,0.1601,0.1618,0.1622,0.1825,0.2146,0.2494,0.2758,0.3044,0.342,0.347,0.35,0.3507,0.356,0.3591,0.3598,0.3653,0.3968,0.4551,0.5845,0.7346,0.9036,1.04,1.1628,1.2742,1.3105,1.3243,1.3262,1.3319,1.3444,1.3504,1.3504,1.3629,1.3688,1.3688,1.357,1.3424,1.3424,1.2121,1.0469,1.0392,0.8981,0.7669,0.8362,0.7986,0.7331,0.7225,0.724,0.7287,0.7572,0.7619,0.7741,0.817,0.824,0.8261,0.8267,0.8255,0.8036,0.7519,0.7416,0.7367,0.7231,0.721,0.7203,0.7188,0.6279,0.5625,0.5777,0.377,0.2567,0.2922,0.1817,0.1263,0.1516,0.1516,0.1516,0.1516,0.1516,0.1465,0.1415,0.1417,0.1368,0.1263,0.0977,-0.083,-0.4046,-0.4221,-0.489,0.4212,0.3831,0.3581,0.3281,0.3161,0.3133,0.3099,0.3003,0.2854,0.2652,0.0,0.0,0.0,0.0,0.0,0.0,0.1391,0.1395,0.1453,0.1455,0.1472,0.1473,0.1478,0.1531,0.1544,0.1573,0.1641,0.1839,0.1959,0.218,0.2653,0.2757,0.2987,0.3306,0.3383,0.3428,0.3496,0.3522,0.3552,0.3587,0.4006,0.4302,0.4586,0.5864,0.7514,0.9292,1.0314,1.1627,1.3131,1.3164,1.3202,1.3211,1.3296,1.3405,1.3514,1.3514,1.3433,1.3329,1.3329,1.3273,1.3144,1.2561,1.1384,1.0159,1.0155,0.9181,0.8144,0.8479,0.7959,0.7441,0.8211,0.7925,0.7712,0.8865,0.8533,0.8083,0.8456,0.8418,0.8314,0.8296,0.8197,0.8036,0.7781,0.773,0.7708,0.765,0.7686,0.7657,0.7573,0.7162,0.664,0.6082,0.5105,0.4087,0.317,0.2587,0.2052,0.1564,0.1526,0.1533,0.1533,0.1554,0.155,0.1516,0.1504,0.1486,0.1511,0.1378,0.0285,-0.1749,-0.2649,-0.4015,0.4421,0.4102,0.3857,0.3325,0.318,0.3168,0.3125,0.3004,0.2872,0.2745,0.2519,0.0,0.0,0.0,0.1839,0.157,0.0,0.148,0.1391,0.1391,0.1407,0.1449,0.1508,0.1513,0.1513,0.1541,0.1709,0.1964,0.209,0.231,0.2774,0.2876,0.2996,0.3243,0.3313,0.3371,0.3473,0.3489,0.3527,0.3587,0.4201,0.459,0.476,0.5892,0.7336,0.903,0.9599,1.0846,1.256,1.2611,1.2809,1.3046,1.3103,1.3188,1.3225,1.3282,1.3202,1.3122,1.3122,1.3032,1.2857,1.1776,1.0984,1.0376,1.032,0.962,0.8868,0.8868,0.8533,0.8309,0.9123,0.8748,0.8527,0.9847,0.9215,0.837,0.8555,0.8421,0.831,0.8214,0.8116,0.7988,0.7988,0.7988,0.7988,0.7988,0.7955,0.7887,0.7824,0.7777,0.7423,0.6511,0.6167,0.541,0.3947,0.3569,0.2951,0.1954,0.1637,0.1498,0.1492,0.1524,0.1514,0.1455,0.1457,0.148,0.148,0.148,0.0924,-0.009,-0.1476,-0.3129,0.4751,0.4313,0.3793,0.3316,0.318,0.318,0.3177,0.3133,0.3089,0.3086,0.2805,0.2592,0.2591,0.2366,0.2109,0.1839,0.1794,0.0,0.0,0.1391,0.1391,0.1393,0.1464,0.1482,0.1482,0.151,0.1636,0.1962,0.2258,0.2523,0.2773,0.3029,0.3181,0.3183,0.329,0.3352,0.3414,0.3469,0.3527,0.3587,0.4201,0.4814,0.5371,0.6042,0.7102,0.8546,0.8549,0.9544,1.116,1.1389,1.1975,1.2851,1.2994,1.2951,1.2866,1.306,1.3131,1.3122,1.3122,1.2998,1.2627,1.1482,1.1088,1.108,1.108,1.0464,0.9743,0.9743,1.0178,1.0394,0.9508,0.9515,0.9757,0.9965,0.9133,0.8317,0.8295,0.833,0.8225,0.8025,0.7992,0.7988,0.7988,0.7988,0.7988,0.7988,0.7913,0.7818,0.7811,0.7692,0.7604,0.7553,0.6643,0.5976,0.5928,0.4937,0.3945,0.3,0.205,0.1518,0.1498,0.1517,0.1453,0.1395,0.1391,0.1391,0.1391,0.1393,0.0898,-0.0045,-0.1164,-0.2325,0.5199,0.5045,0.4761,0.3903,0.3698,0.3632,0.3281,0.3164,0.3138,0.3099,0.3011,0.2865,0.2652,0.2532,0.2372,0.2114,0.193,0.1749,0.0,0.1525,0.1391,0.1391,0.1399,0.1451,0.1451,0.1617,0.1839,0.2165,0.2435,0.272,0.3025,0.313,0.318,0.318,0.32,0.329,0.3352,0.3412,0.3685,0.4131,0.4788,0.5427,0.604,0.6596,0.7487,0.8484,0.8484,0.9144,1.0245,1.0299,1.0548,1.0888,1.1509,1.1722,1.1747,1.2623,1.2776,1.2654,1.2654,1.222,1.1711,1.1914,1.1564,1.1185,1.1782,1.0954,0.9798,0.9798,0.979,0.9866,1.0343,1.0212,1.0176,1.1002,0.9731,0.829,0.8292,0.8191,0.8102,0.8002,0.7988,0.7988,0.7988,0.7907,0.7889,0.7889,0.7767,0.7634,0.7533,0.7478,0.7411,0.726,0.6927,0.6472,0.5839,0.4886,0.3932,0.2974,0.261,0.215,0.1455,0.1416,0.141,0.1391,0.1391,0.1391,0.1391,0.1391,0.1256,0.0897,-0.009,-0.1119,0.5395,0.5351,0.5152,0.4394,0.4203,0.4098,0.3575,0.3481,0.3419,0.318,0.3106,0.3019,0.2802,0.2757,0.2672,0.2365,0.2119,0.1885,0.0,0.1525,0.1391,0.1391,0.1391,0.1436,0.1525,0.168,0.1985,0.2357,0.2578,0.282,0.3144,0.3148,0.3158,0.318,0.318,0.3209,0.332,0.3517,0.3886,0.4329,0.5227,0.5879,0.6265,0.6914,0.7654,0.8484,0.8152,0.8865,1.0241,0.9908,1.0182,1.0785,1.1345,1.1564,1.1636,1.2376,1.2559,1.2387,1.2387,1.2055,1.1673,1.2219,1.1782,1.1181,1.1782,1.1177,1.0241,1.0127,1.051,1.1074,1.1695,1.156,1.1303,1.1625,1.0268,0.8707,0.8299,0.8407,0.8432,0.8088,0.8283,0.8414,0.8016,0.7834,0.7753,0.7804,0.7645,0.7482,0.7429,0.7322,0.7251,0.7105,0.7095,0.6874,0.6251,0.5319,0.4385,0.3446,0.3092,0.2465,0.1436,0.1391,0.1395,0.1451,0.1396,0.1395,0.1451,0.1395,0.1391,0.1391,0.0762,0.0179]}]]